GFSCGP_250_spd_000.txt.gz
Wind_Speed
6 6 3 2 4 5 7 11 12 11 8 7 7 7 6 7 5 9 12 12 11 13 20 22 25 29 30 30 32 32 36 38 39 40 43 46 49 51 50 47 46 47 50 54
9 8 7 7 9 10 11 10 10 10 11 13 10 12 12 12 10 14 13 12 17 22 26 27 30 32 34 35 39 39 39 42 42 44 46 49 51 53 54 55 55 56 59 59
12 11 10 10 10 9 12 13 13 15 15 14 18 16 19 23 23 20 26 23 26 30 31 35 39 40 44 43 44 45 46 46 46 50 52 54 56 61 64 65 65 65 65 68
11 14 13 11 11 12 13 15 20 21 22 21 24 25 18 15 19 22 24 28 36 37 37 40 44 49 51 51 52 53 53 57 58 62 65 63 64 68 71 68 68 70 72 73
14 12 14 17 15 17 20 21 21 22 25 25 24 28 25 20 26 23 23 30 37 37 39 39 47 51 53 54 58 60 63 66 66 68 71 72 72 75 76 77 78 79 80 83
16 18 17 15 16 18 20 19 20 21 25 29 29 31 29 27 23 24 33 36 35 38 43 46 51 54 55 58 63 67 69 67 70 70 71 76 78 77 79 81 83 84 87 90
20 21 20 16 18 18 19 22 24 23 26 28 28 34 33 36 35 35 36 38 39 46 51 53 56 57 61 65 68 69 71 71 72 74 78 80 83 86 88 90 92 96 97 96
22 22 22 19 17 18 20 23 26 26 25 31 37 42 44 44 45 46 46 47 48 53 57 57 60 63 67 69 72 75 74 76 78 81 85 87 91 96 99 102 104 106 108 108
22 21 21 20 22 22 24 26 26 28 28 29 37 47 49 52 49 48 50 51 55 60 64 67 70 72 74 76 76 79 82 85 89 90 91 95 99 103 107 108 110 113 115 118
23 22 23 26 26 28 32 34 31 30 29 31 37 52 55 50 48 50 52 55 60 64 68 71 73 74 77 80 82 86 90 91 93 95 98 101 105 109 114 118 121 123 124 124
26 27 26 25 27 33 37 38 37 40 44 47 44 45 48 48 50 52 56 61 65 69 70 73 77 80 82 84 87 91 96 100 103 105 108 111 116 121 124 127 126 124 120 115
29 32 31 30 34 41 48 48 43 40 38 40 36 41 50 52 53 56 61 64 68 71 75 78 84 87 89 92 96 101 104 106 110 113 117 121 125 127 129 126 126 123 116 110
31 37 38 37 42 44 51 51 39 35 38 42 45 47 55 57 57 63 65 70 73 76 80 85 88 91 94 97 101 106 110 110 115 121 126 125 124 124 126 126 120 113 108 104
28 34 37 38 36 30 37 42 42 43 46 47 53 51 58 60 62 64 71 78 81 83 86 90 93 94 98 104 106 106 108 115 121 124 123 123 122 122 115 107 104 102 100 95
22 23 26 31 34 36 43 44 49 53 57 56 58 60 61 64 69 75 79 80 84 89 93 96 98 100 104 110 109 113 118 121 122 119 118 117 114 106 102 99 96 96 93 91
30 32 34 40 43 44 47 49 49 51 53 56 59 64 68 71 76 78 81 82 92 99 100 103 106 110 111 111 115 116 118 117 117 117 114 108 104 99 98 94 87 84 80 79
35 35 39 45 48 50 52 52 55 57 64 65 67 70 75 78 80 85 88 89 100 104 107 109 108 109 111 116 119 120 115 114 111 109 105 101 99 97 96 93 88 84 82 80
42 42 44 44 46 47 62 57 59 63 70 73 73 76 82 84 83 88 96 99 102 111 115 113 114 117 119 121 120 114 112 107 103 98 98 97 97 95 92 88 86 84 81 79
45 47 48 51 50 52 67 63 67 68 70 76 78 82 83 86 87 92 98 105 111 114 117 122 123 121 123 124 118 114 109 103 97 94 96 96 96 95 92 89 85 82 80 78
53 55 57 61 61 61 71 73 74 74 75 79 83 83 86 91 95 98 106 107 112 118 122 128 126 124 126 121 114 113 103 97 95 95 97 97 96 92 86 82 78 76 73 71
58 61 64 66 68 70 77 79 81 82 81 80 83 89 95 100 107 111 111 113 121 126 129 133 131 130 129 121 117 108 100 97 97 98 97 96 93 87 82 77 72 70 68 66
66 68 70 72 74 77 80 85 85 88 84 90 93 101 105 110 114 117 119 123 128 131 139 134 133 133 126 120 112 104 102 100 99 98 95 93 88 81 76 72 69 66 64 60
69 73 74 78 78 86 89 91 92 97 99 100 105 110 113 116 120 125 130 134 137 139 138 132 132 128 120 112 106 103 102 101 98 95 92 87 81 76 71 68 66 62 58 54
74 77 80 84 88 91 93 94 97 101 106 109 115 117 119 125 129 134 138 139 141 139 136 134 128 120 111 107 107 105 101 98 95 91 86 81 77 73 69 65 60 55 50 48
82 84 90 93 94 94 97 99 102 108 115 118 120 123 126 129 133 137 140 139 136 135 133 124 119 114 109 105 101 99 94 90 87 83 78 74 71 69 63 58 53 49 45 45
89 93 97 98 101 102 100 104 108 114 117 119 126 132 135 135 136 139 138 135 135 130 120 117 111 110 106 102 97 93 89 85 79 75 72 69 65 59 55 52 49 45 42 41

GFSCGP_250_spd_003.txt.gz
Wind_Speed
9 9 10 9 13 13 11 13 13 15 15 15 16 18 18 18 21 18 19 22 23 25 30 36 37 33 35 38 38 40 40 39 41 45 48 52 55 56 57 57 53 53 56 58
11 12 11 9 8 8 10 13 14 13 15 18 20 21 20 21 26 24 28 28 27 27 32 38 43 41 40 42 43 46 47 46 46 48 52 57 60 60 61 62 60 60 62 64
12 16 13 12 11 13 15 18 20 21 19 23 23 25 22 27 31 33 33 34 36 37 34 43 43 46 49 51 52 53 55 56 59 59 60 61 62 62 65 67 69 70 71 72
13 16 17 16 16 20 20 21 23 25 28 29 29 29 28 32 33 31 33 34 37 41 44 50 48 49 52 57 59 61 63 65 67 66 65 66 67 68 69 72 75 78 81 82
12 15 17 18 21 21 22 22 26 28 28 29 31 32 32 34 36 35 35 37 38 45 51 50 51 53 55 57 59 62 65 68 68 69 68 70 72 76 78 80 83 85 88 91
18 17 15 15 18 22 24 24 24 23 23 25 29 31 30 31 33 36 39 42 43 48 49 51 52 52 56 60 63 65 67 67 69 72 75 78 80 82 86 90 93 96 98 101
25 20 18 17 20 21 23 23 22 24 28 29 30 30 31 33 35 37 42 44 45 48 50 51 54 57 60 63 65 66 68 72 76 79 83 86 90 95 98 102 104 107 108 109
27 27 22 21 20 20 21 22 25 26 30 34 36 39 41 36 38 44 40 39 44 49 52 55 59 61 64 68 70 73 76 81 84 85 90 94 98 103 108 112 114 116 114 114
24 26 24 23 22 21 22 25 27 29 32 35 44 51 51 49 48 42 39 45 50 53 56 58 62 64 68 73 76 80 84 88 91 93 96 101 103 106 111 114 116 117 116 114
24 26 27 26 26 28 29 28 31 33 37 42 46 54 54 48 42 48 50 52 55 59 62 64 67 71 78 81 83 87 91 95 98 99 102 105 108 110 116 120 121 120 115 111
26 28 29 30 32 34 34 36 38 43 46 47 36 39 45 48 49 54 56 59 60 62 65 70 75 80 84 86 89 92 95 95 97 104 109 112 117 117 117 119 117 117 114 107
25 30 29 31 34 36 37 41 44 41 38 37 36 42 47 51 54 58 60 61 65 70 74 79 82 84 85 89 92 98 101 106 109 114 116 117 119 118 120 115 111 111 104 96
18 22 27 30 35 39 40 38 33 35 40 44 46 49 56 54 55 59 64 68 70 75 79 80 82 85 91 95 101 104 106 111 114 119 119 119 117 121 115 110 107 103 96 92
20 20 21 22 24 30 36 37 40 44 46 46 52 48 56 59 63 67 70 72 76 80 79 82 86 93 100 105 106 109 114 118 120 121 125 123 121 117 107 104 100 97 94 93
26 28 29 31 33 36 42 44 50 50 49 47 51 56 61 66 69 72 76 77 78 80 83 92 96 101 106 110 113 119 123 126 128 131 130 125 120 108 103 98 96 96 95 94
32 31 32 37 38 40 48 47 48 49 52 54 58 63 70 73 76 77 80 81 81 84 91 100 104 108 112 117 122 125 128 131 131 129 127 120 109 104 98 95 92 90 89 87
34 32 35 42 45 46 51 50 51 55 59 61 64 69 73 79 79 81 83 88 92 97 101 108 112 117 123 126 127 129 129 132 128 123 119 110 105 100 97 95 93 91 90 88
39 39 43 45 46 48 61 55 57 59 63 69 70 73 81 82 81 86 90 94 99 104 108 112 117 121 129 132 132 132 135 130 125 117 109 103 99 98 96 94 91 87 85 82
43 47 47 50 49 50 65 63 65 67 67 74 74 83 87 87 88 92 97 101 107 112 114 119 123 131 134 141 139 135 130 127 121 112 107 102 98 95 92 88 84 82 78 73
48 50 52 55 56 59 69 70 72 75 73 76 86 89 94 96 96 98 102 108 114 118 121 126 130 136 142 143 137 133 129 121 114 109 106 101 95 88 84 82 80 75 70 66
55 56 58 61 65 65 72 74 77 79 82 84 91 96 100 102 106 108 114 118 121 125 127 133 139 143 143 140 134 129 121 115 112 107 100 93 86 82 79 76 71 67 64 62
59 60 64 67 72 76 79 78 81 85 87 93 97 102 104 110 115 119 121 122 125 128 132 139 142 144 143 137 130 122 118 114 107 98 92 86 82 78 73 68 65 63 60 58
63 70 70 77 77 82 82 85 88 92 94 99 104 107 113 118 120 122 124 127 132 135 141 145 145 143 137 128 122 116 113 104 96 90 83 80 75 70 67 65 62 57 53 51
69 77 74 77 80 84 87 91 94 97 101 104 107 114 120 122 124 127 131 133 137 140 145 143 141 134 127 121 115 111 102 93 86 82 79 72 70 67 64 60 55 53 49 46
74 75 80 81 83 88 95 97 97 102 107 113 118 124 126 130 132 138 141 142 143 145 144 142 132 124 118 114 108 99 91 85 81 75 70 68 66 62 58 53 50 48 45 43
82 83 87 86 93 97 98 102 107 112 114 121 125 130 131 134 137 142 144 143 142 143 136 128 120 115 112 104 95 90 85 80 74 70 67 64 61 56 52 50 47 44 42 40

GFSCGP_250_spd_006.txt.gz
Wind_Speed
13 12 13 12 12 11 13 15 18 20 21 24 21 19 21 24 25 27 29 34 37 37 39 40 45 45 45 48 48 47 48 50 53 54 55 56 57 60 61 60 61 60 61 62
11 11 13 12 12 14 16 16 16 16 20 22 23 24 24 27 28 29 31 35 38 42 42 43 44 46 47 52 55 54 53 55 55 58 59 58 58 59 62 65 68 69 69 70
13 14 16 15 14 13 12 13 15 18 23 24 25 29 31 31 32 34 37 40 41 42 44 50 48 49 51 54 56 60 58 61 62 60 61 62 63 66 69 72 74 76 79 80
15 15 19 20 19 18 16 19 20 23 23 25 28 30 31 30 32 34 34 35 36 41 46 48 54 53 53 56 58 58 61 61 62 63 64 67 71 72 74 77 80 83 87 90
20 18 18 20 24 21 21 23 25 26 28 30 30 28 27 26 29 31 32 35 40 43 49 56 53 54 54 56 57 58 60 63 65 70 72 73 76 79 82 87 89 91 94 98
25 21 17 19 22 21 22 25 29 31 31 28 25 25 27 26 27 30 35 36 41 48 52 50 49 52 54 57 61 63 66 69 74 77 81 84 88 92 94 97 100 103 104 106
27 25 21 20 20 23 23 24 24 23 22 25 26 28 31 33 34 38 43 47 48 49 48 49 52 55 58 60 62 66 71 76 80 84 87 90 93 95 100 103 103 105 107 108
27 26 26 25 23 23 25 25 24 22 23 24 26 33 38 39 39 41 42 40 40 46 50 53 55 58 61 64 68 72 77 82 84 87 90 94 98 101 102 106 110 110 111 113
21 25 25 27 26 25 25 25 25 27 28 32 39 45 45 42 42 39 42 44 48 53 55 58 60 62 66 71 75 80 82 85 88 90 94 98 103 107 111 113 115 113 114 117
19 23 26 26 26 26 26 28 30 31 32 36 43 53 47 37 42 49 51 53 53 55 59 63 66 69 73 78 83 84 85 87 92 95 99 104 110 111 114 114 115 116 113 113
16 21 26 28 30 29 30 31 33 34 39 41 34 48 44 48 52 54 53 55 60 63 68 72 75 79 82 83 83 84 92 97 98 104 108 113 117 119 121 120 119 117 113 112
11 14 19 27 30 32 35 36 37 39 39 38 37 45 49 49 49 51 54 59 64 69 73 77 78 76 77 82 87 93 98 103 109 111 116 120 125 128 128 125 124 120 114 108
15 12 11 15 20 23 27 29 28 31 36 41 45 45 45 44 50 56 60 63 65 72 73 74 80 85 87 91 96 102 107 111 115 119 122 125 130 133 132 129 121 113 104 102
24 24 23 24 29 32 33 33 34 36 39 41 46 42 53 57 59 62 65 64 73 77 81 85 88 92 96 100 106 110 113 116 122 127 129 131 137 140 127 118 110 104 101 99
34 33 31 33 34 34 37 38 40 40 44 42 46 52 58 60 62 66 70 75 80 82 85 90 95 100 106 109 112 116 121 124 129 133 137 137 137 125 115 107 102 100 99 96
31 30 31 35 34 36 43 46 45 45 49 50 53 57 62 65 68 71 77 79 84 87 92 98 102 105 108 114 118 124 130 134 136 137 137 134 127 114 108 105 102 97 94 90
35 34 32 36 38 42 51 52 45 48 55 57 58 62 66 70 73 78 81 86 91 96 99 104 110 115 120 122 125 130 137 141 140 135 133 121 111 109 108 105 100 94 88 83
37 35 34 36 39 40 57 53 49 52 58 64 65 68 70 76 80 85 89 94 96 99 106 111 117 119 124 129 136 141 142 140 134 129 121 114 109 107 104 99 92 85 80 77
43 43 41 43 44 44 54 55 55 58 62 69 72 75 81 85 85 90 94 100 102 105 113 118 122 126 131 136 143 143 136 130 123 118 114 110 107 103 97 91 85 80 76 71
50 49 49 50 52 51 59 60 61 63 65 70 77 83 89 93 94 95 99 102 106 114 122 125 127 139 145 143 147 136 127 121 115 112 112 108 101 94 90 85 80 75 70 67
50 51 54 57 57 56 61 64 66 69 72 77 81 87 91 97 101 104 107 112 118 119 124 134 138 149 147 145 137 128 119 114 112 112 106 97 91 87 83 78 73 70 67 64
56 58 62 60 63 64 66 69 74 78 81 85 87 91 98 100 104 109 115 120 123 127 131 138 146 153 145 136 129 121 116 113 110 101 93 87 84 80 76 72 69 66 61 57
63 68 64 67 67 72 72 77 82 85 87 91 96 100 103 110 114 117 124 126 129 131 138 144 151 150 136 126 122 116 115 111 101 92 87 83 79 74 70 67 63 60 56 53
68 71 70 69 73 77 82 85 88 92 97 102 107 108 114 119 125 127 130 130 135 138 146 151 148 134 125 118 114 111 107 98 92 86 81 77 73 70 65 61 56 54 53 52
75 75 75 75 79 83 87 92 97 100 103 108 112 118 124 125 131 132 132 135 140 148 154 148 132 123 117 111 110 105 98 91 87 81 76 73 69 64 62 58 54 53 50 50
81 81 82 85 90 93 93 97 100 104 108 114 119 124 131 133 133 134 137 141 148 155 145 131 122 114 112 111 105 97 91 86 82 77 72 68 64 62 58 56 54 50 48 47

GFSCGP_250_spd_009.txt.gz
Wind_Speed
18 16 14 10 10 11 12 14 17 19 19 17 20 23 25 24 25 26 26 28 30 34 37 41 42 43 43 46 49 47 49 51 50 52 51 54 57 58 59 60 63 65 68 70
11 10 10 11 11 8 10 13 17 18 19 20 22 28 29 32 32 32 32 31 32 36 38 41 43 42 44 48 47 48 50 50 52 53 56 60 62 64 65 65 67 68 69 71
10 10 11 12 12 9 10 14 15 17 18 16 18 22 26 29 31 28 29 32 36 39 41 43 44 43 48 49 48 49 53 55 58 60 61 62 64 65 68 69 70 71 74 78
13 12 12 13 15 16 17 18 18 20 20 20 22 25 30 27 25 26 28 31 37 40 41 42 47 50 51 51 52 56 58 60 61 63 66 69 71 71 72 72 74 80 83 84
19 18 17 18 19 21 22 21 23 23 22 24 27 29 26 26 25 25 31 38 41 42 46 50 49 47 48 53 56 58 61 62 65 69 72 74 75 76 76 82 84 86 89 92
21 23 23 22 21 23 22 22 23 24 25 25 21 21 24 24 26 30 37 42 45 46 42 41 44 50 52 54 56 59 65 69 72 76 79 79 79 81 85 88 91 94 97 99
24 25 28 26 25 23 23 24 22 22 23 20 20 22 25 29 33 37 39 41 39 39 43 46 47 49 53 58 63 68 72 74 76 76 77 79 84 91 94 98 100 101 104 106
19 23 24 28 26 26 24 25 23 22 21 21 23 26 31 37 39 38 38 37 43 45 46 48 50 55 59 64 67 69 70 71 76 81 86 91 95 97 102 107 110 113 116 117
16 18 20 21 24 28 28 27 24 23 23 27 31 33 37 40 38 38 43 45 47 46 47 52 55 60 62 66 69 69 73 77 84 89 94 101 104 108 109 113 122 125 124 123
14 15 17 19 22 24 26 26 26 26 26 29 37 41 38 34 36 43 46 46 46 51 55 57 60 60 68 74 75 77 79 85 92 98 101 104 107 115 122 124 130 131 127 122
14 15 13 15 19 21 25 26 27 29 33 34 35 49 39 39 45 47 46 48 53 57 59 61 64 69 76 78 81 83 87 92 97 101 104 114 122 128 129 130 130 127 119 115
11 13 13 13 13 16 21 26 30 30 27 30 31 39 42 44 43 45 50 54 57 59 61 66 71 75 79 84 88 88 93 99 100 106 114 123 129 134 137 131 122 116 113 109
19 20 19 20 21 22 24 27 28 28 29 33 37 41 44 42 46 49 52 55 59 61 65 73 78 81 86 90 91 93 99 105 107 114 122 128 134 143 137 128 119 113 105 100
29 28 29 31 30 30 32 29 28 31 31 32 45 38 47 46 51 55 60 64 64 69 74 78 82 87 91 94 98 102 106 111 117 121 126 135 144 137 126 120 112 105 103 100
30 30 29 28 28 30 33 35 32 33 37 39 41 43 49 52 58 61 66 68 71 76 80 84 89 92 96 98 103 110 115 118 124 129 136 144 134 121 113 109 104 103 102 98
32 29 31 34 31 32 38 37 38 37 41 44 47 50 53 58 63 67 69 72 78 82 85 89 95 99 102 106 110 115 118 122 130 135 140 133 121 112 105 102 101 98 94 89
36 31 29 33 33 38 44 42 44 45 49 50 52 57 60 65 67 72 76 81 86 90 93 96 102 108 110 114 118 122 125 127 136 135 133 120 110 105 101 98 93 89 85 81
39 34 31 35 36 39 47 42 44 49 54 56 57 60 65 69 74 79 83 89 92 95 100 106 112 116 120 122 123 129 132 135 136 130 118 109 106 104 99 91 86 82 77 73
42 39 40 38 37 39 50 49 53 54 58 61 64 68 72 78 80 85 91 94 97 102 110 113 118 124 124 125 132 133 136 131 122 114 110 106 103 99 93 88 82 76 72 69
46 45 45 42 43 46 51 54 58 60 65 69 71 73 77 83 85 91 95 99 106 112 116 118 124 130 131 134 135 136 129 120 111 106 106 103 98 91 86 80 75 71 69 66
50 49 50 48 50 54 59 61 65 71 70 72 75 81 84 88 93 98 103 109 114 117 121 126 131 136 140 137 129 123 116 109 106 104 100 92 86 83 78 74 71 68 64 62
54 51 52 54 61 63 66 67 73 73 74 79 83 88 91 95 100 108 112 117 124 128 130 132 137 140 134 123 117 111 106 105 104 99 92 87 83 79 73 69 66 63 61 58
58 59 58 60 67 70 72 74 73 76 79 86 90 92 99 103 110 113 119 125 130 134 136 137 139 131 121 115 109 105 105 104 98 91 86 82 78 73 69 66 62 60 56 53
64 66 64 65 73 74 76 78 80 86 89 91 97 104 105 113 117 119 124 131 134 132 133 134 125 113 110 110 108 105 101 97 91 85 82 78 73 70 67 63 58 55 51 50
71 69 70 73 77 77 82 85 87 90 96 102 106 110 117 118 118 126 132 133 134 129 124 117 110 107 107 108 107 103 96 90 85 81 76 72 70 65 63 59 55 52 49 48
75 75 76 77 81 83 86 90 96 100 107 107 110 115 119 123 127 131 129 130 124 118 111 108 106 105 105 106 102 95 88 84 81 77 72 68 65 62 58 57 55 49 46 47

GFSCGP_250_spd_012.txt.gz
Wind_Speed
16 14 15 17 17 16 16 16 17 18 19 18 19 22 23 26 28 31 32 35 38 37 35 36 36 38 39 36 39 40 45 44 42 45 49 51 53 54 57 60 62 64 67 69
15 16 13 14 17 17 17 16 15 15 16 21 25 26 28 29 33 33 32 30 31 34 35 36 38 41 41 42 45 44 42 44 48 51 52 55 58 60 64 67 68 69 68 67
15 13 15 16 16 17 16 12 12 15 18 21 24 24 24 26 27 31 28 29 31 32 34 39 42 45 47 43 40 44 48 50 51 54 57 61 64 65 66 66 66 68 70 73
15 17 17 17 17 18 19 17 17 18 19 19 22 23 25 27 29 27 27 28 29 34 40 44 47 43 40 43 46 49 49 51 56 60 61 63 63 64 66 69 71 77 81 83
17 20 22 21 22 20 20 21 21 21 22 23 25 27 29 28 24 25 25 28 35 41 42 42 37 44 45 47 48 48 52 56 59 61 65 67 69 70 73 77 79 83 86 88
18 21 24 27 26 24 21 23 24 25 26 25 26 27 25 25 26 26 28 34 41 41 39 42 45 46 47 48 51 54 59 63 66 70 72 74 78 80 83 87 88 90 93 97
15 20 25 24 25 28 27 25 25 26 27 27 26 26 25 28 29 31 35 41 40 39 44 47 48 49 50 53 57 60 65 69 73 78 78 81 83 87 89 94 96 98 100 106
12 15 16 18 22 23 26 27 27 28 28 29 30 30 29 31 33 36 39 40 40 44 48 46 48 51 56 58 60 64 68 71 74 78 82 85 88 89 96 99 103 108 111 115
11 13 12 13 16 18 21 24 28 28 28 28 29 30 32 34 36 38 39 41 45 50 49 50 53 56 58 59 62 68 71 76 81 84 87 92 95 100 104 106 109 113 121 123
11 13 13 14 12 13 17 21 24 27 25 26 33 36 37 37 34 37 41 46 48 49 51 54 58 59 61 63 69 73 78 82 86 91 96 99 103 106 110 112 118 122 129 128
7 10 13 14 13 12 12 13 16 21 25 27 33 42 34 32 35 40 44 47 49 52 56 59 61 64 64 70 78 83 86 91 94 98 102 106 110 114 119 123 126 131 134 135
11 12 14 17 18 18 19 20 19 20 23 28 31 37 38 36 40 43 45 49 53 56 60 64 66 68 73 80 85 90 93 97 102 107 109 113 117 121 126 130 136 135 135 131
20 23 23 24 25 26 24 25 25 26 28 30 32 37 40 42 47 48 51 56 59 62 67 70 72 76 81 86 89 93 98 103 107 111 116 120 126 130 133 135 137 134 126 118
26 28 28 26 28 28 27 25 25 27 28 28 36 36 42 45 47 51 56 60 63 65 69 73 77 81 87 91 95 100 106 110 115 120 122 127 130 134 136 133 126 118 112 108
28 31 33 32 31 35 33 29 30 30 34 36 37 40 42 48 51 60 63 65 66 70 75 79 82 86 91 97 101 107 112 115 122 126 130 134 133 131 124 117 111 106 104 103
29 33 36 38 34 37 37 32 33 37 36 37 40 46 50 52 58 62 64 67 69 74 79 84 88 94 98 102 107 115 117 124 131 136 133 127 123 115 109 105 104 102 99 94
34 36 37 39 38 42 38 41 42 42 42 44 47 53 56 59 64 66 69 73 77 81 84 91 95 98 102 109 114 121 129 134 133 125 121 116 109 105 104 103 99 95 88 83
40 41 40 39 39 44 40 42 44 46 49 51 55 60 62 68 70 71 75 79 82 85 91 96 99 105 112 116 122 129 136 133 124 118 112 106 104 103 101 97 91 85 80 75
43 43 39 38 39 44 47 46 48 49 55 59 61 65 71 73 75 79 81 84 93 97 97 102 109 113 117 126 129 133 130 119 114 108 105 103 102 98 93 87 81 77 74 70
47 44 41 40 43 46 45 47 51 54 57 62 67 72 75 75 79 81 88 96 101 104 108 111 117 120 128 131 132 125 115 111 108 105 102 100 96 89 83 79 75 71 68 66
50 48 45 46 45 46 47 52 56 61 63 68 72 73 76 82 86 90 96 99 105 110 114 119 124 129 130 129 119 113 110 107 105 102 98 94 87 82 78 74 70 66 63 62
52 50 49 49 51 51 54 59 61 64 68 70 74 78 82 87 90 97 102 107 112 116 121 126 126 124 124 117 111 109 107 105 102 98 92 86 80 76 73 70 65 62 61 58
54 53 54 52 57 57 61 63 66 68 71 75 79 84 89 95 99 104 111 113 117 125 126 125 122 119 112 110 109 105 103 101 97 91 84 79 76 73 69 65 61 60 57 54
59 59 58 57 62 64 67 71 73 77 79 82 88 95 100 103 108 110 115 122 125 126 123 119 114 107 107 107 105 102 99 94 89 83 79 75 72 69 65 61 59 57 54 51
65 62 62 64 67 69 75 79 84 84 86 91 97 102 107 110 111 117 121 125 123 119 112 107 106 104 103 102 99 96 91 86 82 78 76 73 69 65 62 60 58 52 50 49
67 66 67 69 74 78 81 82 86 90 94 98 104 108 111 114 119 122 123 123 120 112 108 107 106 104 101 98 95 90 84 80 76 74 71 68 65 63 60 59 54 50 47 47

GFSCGP_250_spd_015.txt.gz
Wind_Speed
16 16 16 16 15 16 17 17 15 15 18 21 22 21 22 25 24 26 29 30 34 35 36 36 36 35 36 40 44 44 47 43 39 44 47 48 50 52 55 59 60 62 65 64
13 13 14 14 14 15 15 16 15 16 17 19 21 24 26 28 29 29 30 33 35 36 33 33 33 36 42 46 48 42 41 47 48 49 50 52 56 61 64 66 67 69 71 71
14 14 16 16 17 18 16 16 18 19 18 21 25 26 29 32 33 32 32 33 35 32 33 32 36 41 45 43 39 46 48 50 50 52 55 58 62 65 66 67 69 70 71 73
15 17 17 18 20 20 19 21 22 23 21 22 26 30 32 31 32 32 32 33 33 32 32 36 41 43 42 43 49 50 52 52 54 57 60 62 64 66 67 68 72 77 79 81
14 18 21 23 22 23 24 25 25 25 27 27 28 32 24 33 34 34 31 32 33 35 37 42 46 45 45 50 52 52 53 56 60 63 65 66 70 73 76 77 80 83 87 91
14 15 18 21 25 27 28 28 29 31 33 33 31 35 26 31 30 29 32 35 36 39 43 46 48 46 50 55 55 56 58 62 65 67 67 71 77 78 82 86 90 93 97 101
11 12 15 16 19 24 26 30 31 32 32 32 34 36 31 34 33 32 32 35 38 41 45 48 48 51 55 55 57 61 65 67 68 68 72 79 83 87 91 94 98 101 104 107
4 7 10 12 13 14 20 24 29 33 34 35 36 37 35 33 34 34 36 40 43 46 47 49 51 55 55 58 61 66 69 72 73 76 79 86 90 93 97 100 104 108 113 116
6 6 8 9 9 12 15 17 19 26 31 34 37 37 33 36 38 40 42 44 43 46 48 53 55 57 61 62 66 70 73 76 79 82 86 92 95 98 102 106 110 116 119 123
4 7 11 12 12 11 12 13 16 19 23 27 32 39 32 36 36 40 39 42 44 47 52 56 60 64 67 69 72 74 76 81 85 89 92 96 102 105 109 115 119 125 128 133
8 10 12 14 15 17 18 19 19 19 21 23 28 37 32 33 36 40 43 45 49 54 57 58 64 68 72 74 76 79 84 88 92 95 99 104 107 113 118 122 128 132 138 140
11 14 17 20 21 21 21 22 23 25 29 33 34 40 40 39 38 41 45 49 53 56 57 63 67 69 71 75 80 85 88 93 98 101 105 111 116 120 127 131 134 137 139 136
18 20 23 25 26 26 26 26 25 26 29 32 33 36 35 38 42 46 48 50 55 54 62 69 71 74 77 80 85 90 94 101 104 108 113 119 125 130 135 137 138 135 125 119
22 25 27 29 30 30 29 30 32 33 35 34 37 37 44 45 45 47 52 56 59 63 70 73 75 79 82 87 90 98 100 105 112 117 123 129 134 136 135 132 129 123 118 114
25 27 29 32 34 36 36 34 35 37 37 37 40 44 45 45 50 52 56 61 64 70 74 75 79 83 88 93 100 104 109 114 119 125 131 132 134 131 129 126 122 117 112 110
28 29 34 40 41 43 44 41 40 39 38 41 44 46 49 50 52 57 61 66 71 74 77 81 85 90 95 99 106 111 116 124 132 134 136 134 126 123 119 117 114 111 109 106
32 34 36 40 42 46 44 42 40 42 39 45 46 48 51 53 58 61 65 70 74 76 81 84 90 96 104 108 115 122 126 133 136 130 124 120 114 114 114 110 108 106 100 93
38 40 41 42 42 47 43 43 45 46 45 45 46 49 53 58 62 65 69 72 76 81 86 93 101 107 113 120 122 125 132 133 126 120 113 109 109 109 107 104 100 94 87 82
44 44 45 46 44 46 46 46 48 48 47 47 51 53 58 62 67 74 75 78 82 88 96 100 108 116 118 120 126 130 129 122 119 113 110 109 106 105 101 95 87 83 78 74
50 51 50 50 47 49 45 44 47 46 48 50 57 61 65 69 73 79 83 87 92 98 104 109 114 119 122 126 127 126 122 118 115 110 106 105 103 99 93 85 80 75 71 67
52 54 54 51 52 50 48 50 52 52 53 58 64 68 72 77 80 83 88 93 99 104 110 116 121 124 128 126 124 119 115 113 111 109 104 101 95 88 82 77 72 69 65 63
55 55 57 56 59 54 52 52 54 58 61 64 68 74 78 81 84 89 95 99 106 113 118 124 128 128 125 123 118 113 112 112 109 104 100 94 88 81 75 71 68 64 62 61
61 60 61 61 64 62 59 58 61 63 66 71 76 79 82 86 92 97 102 109 114 123 128 127 126 127 125 119 114 110 109 106 102 98 92 84 79 74 69 67 65 63 61 58
67 64 63 63 67 63 66 66 66 70 75 79 83 87 91 95 101 105 111 115 123 124 126 125 126 125 119 113 109 106 103 99 94 87 81 77 72 69 66 64 61 59 57 54
75 72 67 65 67 66 71 70 73 77 82 86 91 94 98 104 108 113 117 122 127 128 127 127 125 121 115 111 107 103 98 90 83 78 74 71 68 65 63 61 59 54 52 50
76 73 69 67 68 71 73 77 80 85 88 93 97 101 106 111 114 118 123 128 131 130 130 127 122 115 112 108 102 96 88 81 76 73 70 67 64 62 60 58 54 53 50 48

GFSCGP_250_spd_021.txt.gz
Wind_Speed
29 33 36 37 34 32 31 31 30 34 33 36 37 36 36 40 42 43 38 37 31 30 32 33 36 38 38 36 38 39 38 41 44 49 55 56 56 59 63 63 63 62 63 66
20 20 22 23 25 27 29 27 26 31 31 31 34 34 36 39 34 37 34 33 31 33 34 36 37 37 39 40 41 43 45 48 51 56 59 59 62 65 68 68 65 67 68 72
18 20 22 23 23 23 24 26 26 29 29 30 32 29 29 36 34 33 33 32 32 32 34 38 37 38 42 43 45 48 51 54 56 58 60 61 66 69 69 72 73 76 78 79
13 13 14 15 15 15 23 18 22 23 27 29 33 30 28 32 33 32 31 33 34 34 37 44 43 43 42 45 50 52 53 56 61 61 61 63 66 69 72 75 77 81 84 86
8 9 12 14 14 16 21 20 22 24 26 29 34 33 25 29 30 30 35 35 38 39 40 41 42 45 47 51 53 56 58 60 59 60 66 68 70 74 79 82 85 87 90 95
10 11 11 12 12 14 16 20 23 24 26 30 33 35 29 29 28 28 35 39 43 43 42 39 39 44 49 54 58 61 63 62 62 64 66 67 72 79 85 88 90 94 98 103
7 7 5 4 6 8 11 13 15 15 21 25 28 33 27 27 26 27 29 35 37 38 39 40 42 45 48 52 55 58 63 67 68 71 73 75 80 85 89 92 96 100 105 109
5 6 6 6 6 6 6 6 8 9 13 19 21 24 28 30 28 25 27 30 35 38 40 42 45 48 50 50 52 56 59 65 71 75 79 84 89 93 96 99 105 110 114 116
10 9 7 6 7 8 10 11 13 15 18 21 18 21 22 26 29 30 30 31 34 40 41 43 46 49 53 56 58 60 64 70 76 81 86 92 95 100 103 107 114 119 122 125
6 4 3 4 6 9 12 15 17 19 23 28 29 25 29 31 32 34 34 36 39 43 44 47 49 53 56 58 61 66 70 76 81 86 90 96 100 104 106 112 118 124 127 128
3 2 3 6 9 11 12 15 17 17 21 25 35 33 32 33 35 38 41 41 43 45 48 52 55 56 59 63 67 72 76 81 85 90 95 100 105 109 114 120 127 131 132 133
6 7 9 11 13 14 15 16 22 26 26 28 31 42 39 37 38 39 40 43 45 48 52 56 57 59 61 65 70 74 79 85 90 95 99 105 112 118 122 128 135 134 133 133
11 11 14 16 18 18 19 23 26 31 35 39 36 41 37 38 43 41 46 47 48 51 54 56 58 61 67 72 78 82 87 92 98 102 107 112 119 125 128 126 124 121 118 117
14 15 16 18 20 22 25 27 29 31 34 37 41 40 44 47 43 48 48 51 52 54 53 56 62 65 71 75 82 87 93 99 102 107 114 120 128 126 126 124 120 115 109 108
17 18 19 21 23 26 31 33 36 38 39 40 44 44 43 51 52 47 50 54 55 55 59 63 66 71 75 80 87 93 100 106 112 117 124 128 130 130 124 121 114 112 104 101
21 23 25 26 29 33 38 39 42 44 46 46 46 49 47 50 52 53 54 56 57 61 62 65 70 77 82 88 94 100 106 113 119 124 127 132 129 129 124 117 115 112 100 95
25 28 31 33 37 41 44 48 49 50 51 50 48 50 54 55 54 56 58 57 59 62 66 71 77 83 89 94 98 103 110 117 122 129 133 133 130 124 117 111 106 100 93 91
30 33 35 39 42 44 43 46 50 52 53 56 55 54 55 58 57 58 58 61 64 67 70 77 84 90 93 98 104 109 116 123 128 132 132 127 127 118 109 106 102 93 89 85
35 37 39 41 43 48 49 52 56 56 58 61 62 62 61 62 62 59 60 62 65 71 77 84 89 94 100 106 110 115 122 129 134 135 129 125 120 114 106 98 93 89 83 80
35 37 43 47 50 54 54 57 62 60 61 62 65 67 65 65 63 65 66 69 74 79 85 90 95 101 106 110 115 121 128 132 135 131 128 123 111 103 97 92 85 82 79 76
42 46 51 53 56 58 61 58 56 59 61 63 64 66 66 64 63 64 68 73 80 85 90 95 101 107 111 115 122 128 134 136 131 128 125 114 105 97 92 84 80 77 73 69
51 55 59 61 63 62 60 58 59 64 65 65 65 65 65 65 67 72 77 80 86 91 96 101 106 110 116 123 128 133 135 134 130 126 113 105 98 92 84 80 76 72 69 66
57 62 65 67 67 69 63 63 63 65 67 68 67 67 67 69 74 80 84 88 93 98 102 106 109 115 123 128 131 137 133 131 127 115 105 98 93 85 79 75 71 68 66 63
64 67 70 70 71 74 70 65 64 67 69 69 69 70 73 77 81 85 90 96 100 104 108 112 118 122 127 130 134 134 132 127 120 108 99 94 87 81 76 72 68 65 62 59
70 75 76 73 76 78 73 69 69 70 72 72 74 77 80 84 89 94 99 103 107 110 115 121 125 127 131 132 133 133 129 124 113 102 95 89 81 77 72 69 66 63 59 56
74 77 78 77 80 79 73 73 75 76 76 78 80 82 87 91 97 102 106 109 112 116 121 125 128 129 130 131 130 129 125 113 103 96 89 82 77 73 69 66 63 59 56 54

GFSCGP_250_spd_027.txt.gz
Wind_Speed
30 30 26 24 26 31 33 35 34 36 35 37 39 44 48 54 58 52 53 48 44 41 43 46 47 47 46 48 48 44 45 49 57 58 64 71 69 70 70 66 67 70 72 74
26 23 22 24 26 27 30 30 31 33 31 33 36 39 37 32 33 36 39 41 42 42 42 43 44 47 50 47 46 51 54 56 55 60 65 66 66 67 67 68 71 73 75 75
21 23 22 22 22 22 24 25 26 27 27 28 27 29 31 32 33 36 38 38 35 33 34 37 42 46 50 53 53 52 53 54 57 60 63 64 65 67 69 72 73 75 78 79
19 17 16 16 16 17 21 23 25 25 24 25 24 26 27 25 27 31 34 32 32 34 37 40 42 46 50 51 50 51 50 53 56 59 62 64 66 67 69 72 75 78 80 82
16 14 16 17 19 21 22 22 23 25 23 20 20 21 23 26 30 30 32 35 38 41 43 44 48 51 52 52 50 50 53 55 58 61 64 66 68 71 75 77 79 82 86 89
15 17 18 18 17 18 20 21 21 20 18 15 16 18 22 23 25 28 31 33 35 37 38 42 47 49 48 45 43 51 53 55 58 60 63 67 71 74 76 78 81 85 89 95
18 17 16 16 16 15 13 11 9 5 3 1 2 4 7 11 16 20 24 28 32 35 38 40 43 45 45 45 46 51 56 58 61 64 67 71 73 76 79 83 87 92 96 101
13 13 12 11 10 7 6 5 2 3 5 7 8 10 11 14 18 22 26 29 32 36 40 45 47 48 50 52 53 56 59 63 66 69 71 74 76 78 82 87 91 96 103 107
12 11 13 11 9 8 6 4 3 5 8 11 14 17 19 20 22 25 28 30 31 34 37 41 45 48 50 52 54 56 59 62 66 69 72 74 77 81 87 92 97 103 109 113
17 16 14 10 8 5 3 4 7 10 10 14 16 17 20 22 25 28 30 32 34 36 39 41 43 45 49 52 56 59 62 63 65 67 71 75 80 85 90 96 102 108 114 120
16 14 12 8 5 5 7 10 12 13 15 18 21 23 26 29 32 34 36 38 40 42 43 45 47 50 52 54 57 60 62 65 68 72 76 80 84 90 95 102 109 113 119 124
14 12 9 7 8 9 12 12 14 17 19 22 25 27 31 33 35 38 40 42 44 46 47 48 50 52 54 57 60 62 64 68 71 75 79 85 90 96 104 109 115 121 127 128
14 12 11 12 13 15 17 17 18 19 24 28 31 33 36 39 42 44 48 49 50 51 52 54 55 57 58 60 61 63 65 69 73 79 87 92 100 106 112 118 123 129 127 123
14 14 16 17 19 19 18 19 21 25 29 31 32 37 39 44 48 51 53 53 52 53 55 58 59 60 60 62 63 66 70 75 82 88 95 102 108 113 117 123 128 125 121 117
17 18 19 20 21 21 20 21 25 29 30 32 37 42 46 48 50 53 55 56 56 57 58 59 61 63 63 65 67 72 77 82 89 96 102 108 113 118 124 128 127 123 117 110
17 19 21 22 23 23 25 27 29 29 33 36 40 45 49 52 54 56 60 59 58 57 58 59 61 64 66 69 73 79 84 91 97 102 108 114 118 125 129 130 127 121 115 109
21 21 22 24 23 24 30 31 30 34 40 44 46 51 54 57 59 61 65 63 61 61 60 61 63 67 71 75 81 86 92 99 104 108 114 119 124 129 133 127 124 121 111 107
23 23 24 27 26 26 32 34 35 39 45 49 52 56 59 60 62 65 69 66 61 60 63 68 72 75 78 83 89 94 100 105 109 115 119 124 130 132 127 126 122 115 109 101
28 27 28 28 30 28 35 41 42 45 50 55 58 63 64 64 64 68 70 67 64 65 69 73 77 81 85 91 96 101 106 110 117 122 127 131 130 124 125 124 118 112 102 93
30 28 28 30 32 35 41 47 51 53 55 60 65 65 68 68 69 73 74 72 69 71 75 79 83 87 92 97 103 109 114 120 124 130 130 128 126 125 124 120 113 102 94 87
26 28 32 36 36 39 47 53 56 58 60 65 68 68 71 72 74 76 76 73 72 75 80 85 88 93 98 104 110 115 120 124 130 130 127 125 127 125 121 114 105 95 88 81
34 36 39 41 44 46 53 57 58 62 66 71 70 72 74 76 78 76 74 75 79 84 88 91 94 100 105 110 115 119 127 130 131 130 127 128 127 122 116 107 98 90 82 76
39 44 45 49 53 56 58 59 63 67 71 70 70 76 79 80 81 80 81 83 86 89 92 95 101 106 111 116 121 126 130 132 132 130 129 129 123 116 106 98 91 83 76 71
47 51 53 58 63 66 65 66 67 70 72 72 75 80 81 82 83 84 85 86 91 94 97 102 108 111 117 122 127 131 131 131 130 129 128 122 116 108 99 92 84 77 71 66
57 62 63 61 66 66 70 73 74 75 74 74 80 83 81 81 82 84 88 91 96 100 103 109 113 117 122 127 131 130 131 131 128 127 121 116 109 100 93 85 77 72 66 62
65 67 66 65 71 72 75 76 77 77 76 80 83 82 81 82 86 90 93 98 101 105 110 115 120 123 129 130 130 127 130 127 123 118 114 108 100 92 84 78 72 67 63 59

GFSCGP_250_spd_030.txt.gz
Wind_Speed
23 25 26 27 29 30 30 30 32 38 40 42 46 49 49 49 55 56 53 52 50 52 54 55 52 49 46 45 44 36 32 49 54 64 67 70 72 74 75 75 75 78 77 76
23 24 26 26 28 29 28 28 26 29 30 31 32 34 36 37 40 41 41 40 39 41 41 42 44 43 42 32 33 37 45 50 56 60 67 74 74 73 75 75 76 77 76 76
23 23 25 25 24 24 23 23 23 25 25 26 28 30 31 33 34 35 36 36 35 34 35 38 39 40 38 43 50 52 55 58 61 63 67 71 70 71 72 74 74 75 77 78
22 22 23 23 23 21 20 20 18 17 18 21 23 25 27 29 32 34 34 32 32 34 36 37 39 42 46 50 53 55 57 59 61 65 69 67 69 70 71 73 75 77 80 83
18 16 16 17 18 18 18 18 17 16 17 18 21 22 26 27 30 29 29 31 34 37 36 36 39 40 40 41 42 45 48 51 57 62 63 65 69 71 73 75 78 79 81 84
15 16 17 16 16 15 14 14 13 13 14 17 20 22 27 27 26 26 25 24 24 26 29 31 34 37 41 44 47 48 51 53 58 61 64 67 69 71 73 76 79 82 84 87
15 17 16 15 16 15 14 13 12 13 11 9 8 9 9 12 15 19 21 24 27 30 33 35 38 41 42 45 50 53 54 57 59 62 65 67 69 72 75 77 80 84 88 91
16 16 17 17 16 14 13 11 10 9 9 8 7 10 12 15 18 21 24 27 30 32 35 37 40 42 46 49 52 53 56 58 60 62 65 68 72 74 76 78 82 87 91 95
16 16 17 15 13 11 11 10 8 6 6 6 8 12 14 18 20 24 27 31 34 37 39 41 44 46 49 51 54 56 59 61 63 66 69 72 74 76 78 82 85 89 96 102
16 16 14 12 13 12 10 8 6 5 8 10 12 15 19 21 24 26 29 32 35 39 42 46 48 50 53 55 58 61 63 64 67 69 71 72 73 75 79 84 90 96 104 108
14 14 14 14 12 10 7 5 7 9 11 12 16 18 20 23 26 30 34 37 41 45 47 49 51 53 56 57 59 60 61 63 65 67 69 71 74 80 85 91 97 101 105 109
17 15 13 11 9 7 7 9 12 14 15 17 20 22 24 28 31 33 38 41 44 46 47 49 51 52 54 57 58 59 60 61 64 66 68 73 79 86 92 98 103 109 112 116
18 17 13 10 8 10 12 16 18 19 20 22 24 26 28 31 34 37 41 45 47 48 51 54 53 52 52 53 55 57 59 62 66 71 76 83 89 96 102 107 113 118 119 120
17 15 12 11 12 15 17 19 20 22 23 26 27 30 32 37 41 45 47 50 51 54 56 59 56 55 56 57 59 61 64 68 74 80 86 91 98 105 108 116 121 122 125 123
15 14 13 15 17 19 21 23 24 27 29 31 32 33 36 41 44 51 55 53 55 57 61 62 62 59 58 60 63 67 72 77 83 90 95 101 107 112 117 123 124 128 127 125
16 17 17 18 20 21 23 28 27 31 32 32 33 39 44 45 50 55 60 58 58 61 65 65 65 61 61 66 70 75 80 85 91 97 103 109 113 118 125 125 129 128 127 123
21 20 19 22 23 22 30 31 31 33 32 34 39 42 46 50 55 60 64 61 63 65 68 69 66 64 68 73 78 84 88 92 98 103 108 112 117 124 126 129 126 127 125 120
23 24 25 27 27 25 34 37 35 32 35 40 45 47 52 55 60 66 65 66 68 72 72 74 72 73 77 80 85 90 93 98 103 110 113 118 122 127 128 128 126 125 120 113
28 29 29 31 33 29 35 39 36 37 40 48 50 56 57 60 65 70 69 69 73 75 75 76 75 78 82 86 91 95 100 106 110 114 119 123 124 127 128 127 125 121 114 108
31 31 32 35 32 28 37 41 40 41 42 53 58 61 63 66 68 73 73 72 76 78 79 78 79 83 87 92 96 101 105 110 115 121 122 124 123 124 126 124 120 116 109 101
33 34 37 36 31 30 39 41 44 47 51 56 62 66 68 70 73 76 77 75 80 82 81 80 84 88 92 96 101 106 110 116 121 123 124 123 124 124 124 121 116 110 102 95
38 39 38 36 38 38 42 46 50 55 59 64 66 68 71 75 77 78 77 79 83 85 82 85 89 93 96 101 107 112 118 121 123 123 121 121 124 123 120 116 111 103 97 90
41 44 42 46 47 46 48 53 58 62 65 68 71 74 76 78 78 79 80 83 86 85 86 90 94 98 103 108 113 119 122 121 122 122 121 123 122 119 116 112 104 98 91 84
47 49 50 50 52 55 58 60 63 66 69 72 75 78 81 80 80 82 84 87 89 88 90 94 98 104 109 114 120 121 120 121 121 123 121 119 117 115 111 105 99 91 84 76
52 55 53 51 58 61 64 67 68 71 74 78 82 84 83 83 83 85 89 91 90 92 96 100 105 109 115 119 123 121 120 119 122 121 118 115 113 110 104 99 92 85 77 72
57 58 58 59 64 65 68 71 74 78 81 84 86 87 86 86 87 90 91 91 93 96 101 106 111 115 119 123 122 118 118 119 121 120 116 112 108 103 98 92 86 77 72 69

GFSCGP_250_spd_033.txt.gz
Wind_Speed
24 29 28 27 28 29 28 28 30 31 34 36 40 41 45 48 45 48 48 50 54 57 56 57 54 50 48 44 39 42 43 34 32 59 51 55 66 77 82 85 88 87 86 85
23 23 26 29 30 28 29 31 31 31 31 32 33 34 36 38 38 41 43 44 43 42 41 43 42 41 40 38 37 21 52 37 41 62 57 62 68 72 78 81 81 82 84 83
24 23 24 25 25 24 23 23 26 27 27 28 29 31 33 34 34 34 34 36 36 36 37 36 38 38 38 38 39 39 45 50 53 56 60 65 71 74 74 75 75 74 76 79
20 21 21 21 22 22 23 23 24 25 25 26 27 29 30 30 29 29 30 30 30 30 30 30 30 30 33 36 37 39 42 45 48 52 55 60 63 67 70 72 74 75 77 79
21 22 23 22 21 20 19 22 23 23 20 23 24 24 25 24 24 25 26 26 25 24 24 25 27 31 34 37 39 42 45 48 49 52 55 58 61 63 65 68 71 73 76 79
21 21 20 18 18 20 22 22 19 18 23 23 20 19 18 18 18 16 14 15 18 22 25 28 32 34 37 39 42 45 48 52 55 57 59 61 64 66 68 70 72 75 78 78
18 18 18 19 18 17 19 19 20 21 17 14 11 8 6 8 9 11 13 16 19 23 27 31 34 37 40 44 48 51 54 56 59 61 63 65 67 68 70 71 73 75 75 78
18 17 17 15 13 12 11 12 12 10 9 6 5 5 7 8 11 13 16 19 23 27 29 32 36 40 44 47 50 53 55 58 59 61 62 63 64 65 66 68 71 73 78 83
14 14 14 13 11 13 13 14 12 12 9 6 7 9 10 12 14 17 20 22 25 29 32 36 40 43 45 48 51 53 55 57 58 60 61 63 64 65 67 70 74 78 84 89
14 14 13 13 14 15 16 15 12 9 9 9 10 11 13 14 17 20 22 25 28 32 37 41 43 45 47 50 52 53 55 57 58 59 60 62 65 67 71 75 82 87 94 98
14 14 14 14 16 15 13 10 8 8 7 10 13 14 16 19 21 23 25 29 33 37 41 43 45 48 50 54 55 55 56 56 56 57 60 64 68 73 77 81 89 96 100 104
13 13 15 17 16 14 10 8 7 8 10 12 16 19 21 24 25 26 30 33 36 42 46 47 49 51 53 56 57 55 55 56 56 59 64 70 76 80 86 92 98 102 105 107
16 17 17 16 13 10 7 8 10 12 14 17 20 22 23 26 27 30 34 36 39 44 51 50 50 53 56 59 59 56 56 57 62 66 72 79 83 88 94 100 105 108 107 112
17 16 14 13 12 11 10 13 15 16 19 22 22 26 25 27 29 33 38 40 46 50 55 57 58 60 62 64 64 62 64 66 69 73 79 84 89 96 101 107 109 111 115 117
18 17 16 14 13 14 14 16 20 20 24 27 29 31 27 31 35 41 44 48 52 55 58 61 63 65 67 70 70 69 70 72 75 80 86 90 96 102 109 110 111 115 117 120
17 16 16 17 17 15 18 23 24 25 29 30 31 36 30 36 41 45 50 53 57 60 63 67 70 70 70 73 75 76 76 79 83 87 92 98 103 110 112 113 114 116 118 121
21 21 20 19 19 18 25 29 29 31 32 32 35 35 36 41 47 52 55 60 64 65 69 72 75 75 75 77 79 81 81 84 88 93 98 104 109 114 116 115 115 116 119 119
23 22 22 25 25 24 32 36 36 32 34 35 36 36 41 45 51 56 60 65 66 69 72 75 78 78 79 80 84 85 84 88 92 97 103 109 113 118 117 115 115 118 117 113
27 27 27 29 31 31 35 40 42 38 37 38 38 41 46 52 56 60 66 68 71 74 76 79 80 82 83 85 88 87 88 93 97 103 109 113 117 118 117 115 117 116 113 110
29 29 30 33 33 34 41 44 43 42 40 42 43 48 53 58 60 65 68 72 76 78 82 82 83 86 87 90 89 89 91 98 102 109 113 118 119 117 116 114 115 112 110 108
31 31 33 36 36 37 42 44 45 45 44 44 51 57 61 64 67 71 74 77 81 84 86 87 88 89 91 92 91 93 97 103 109 114 118 120 118 114 112 114 111 110 107 105
35 36 38 40 41 41 45 47 48 48 49 53 57 62 66 69 72 74 78 83 86 88 90 91 93 93 93 91 93 97 103 110 114 118 121 118 114 113 113 112 110 107 105 100
40 42 43 46 46 46 46 47 49 53 57 61 63 67 70 72 75 78 82 87 90 92 93 95 96 95 92 94 98 103 109 115 119 121 117 111 111 112 112 110 107 105 100 94
43 46 47 48 51 53 53 53 56 60 61 65 69 72 75 77 80 84 88 91 92 94 96 96 95 95 97 101 105 110 116 121 122 116 112 111 111 112 111 108 105 102 96 90
47 50 51 51 54 55 58 59 63 64 68 72 75 78 81 84 87 91 93 92 95 95 94 94 95 99 103 107 113 117 120 123 114 112 111 110 112 113 109 106 102 96 91 85
48 46 46 49 56 58 62 65 67 71 73 77 80 83 88 91 94 94 93 95 94 94 94 97 100 105 109 113 118 121 122 114 113 112 112 112 112 110 107 102 96 90 85 79

GFSCGP_250_spd_036.txt.gz
Wind_Speed
30 30 32 29 26 24 23 23 25 25 24 25 31 33 37 36 40 41 44 46 47 51 52 47 47 47 48 49 52 48 43 39 26 36 34 50 55 53 60 69 76 82 83 88
29 29 28 27 28 24 25 25 25 26 27 30 32 34 38 42 46 45 42 41 47 51 43 41 44 46 41 38 36 35 31 33 37 41 47 58 61 65 66 73 82 85 89 92
28 30 30 30 28 25 27 28 29 32 32 33 35 36 37 37 36 35 35 35 36 36 36 35 34 33 33 35 37 37 36 37 44 47 52 60 62 66 66 70 72 74 76 78
27 27 28 29 29 30 31 30 30 29 29 30 30 30 31 29 29 30 31 30 28 29 29 28 30 30 28 27 29 32 34 36 40 45 49 54 58 61 65 68 71 74 77 79
28 27 25 23 25 26 27 27 27 28 28 28 27 27 26 24 24 25 25 25 26 25 21 18 20 24 26 29 33 36 39 43 47 51 55 59 63 66 68 71 71 71 71 71
23 21 22 22 24 24 23 24 24 24 25 27 25 22 19 21 21 19 16 14 12 14 17 20 24 27 31 34 37 40 43 46 50 53 56 59 62 64 65 66 67 67 67 67
24 24 23 22 22 21 21 21 21 25 23 19 17 18 16 10 8 10 10 11 14 17 21 24 26 29 32 36 39 41 45 48 51 54 57 60 62 63 64 63 63 62 66 71
21 22 21 21 19 17 18 20 21 19 18 18 17 12 9 9 10 11 11 14 17 19 21 24 27 32 35 38 41 44 47 51 54 55 57 59 60 60 59 59 62 66 71 76
22 21 21 19 20 22 22 21 20 19 17 15 12 9 9 10 11 13 14 16 18 20 22 26 29 33 38 41 45 47 49 53 55 56 57 60 61 61 62 64 68 72 77 83
19 20 19 20 22 20 18 15 14 14 15 12 10 10 12 14 15 16 19 20 22 24 27 30 33 39 42 44 47 51 53 55 57 59 60 61 61 61 65 68 72 78 82 88
17 15 16 17 16 15 14 15 16 15 13 12 13 14 16 17 18 20 23 24 25 28 31 34 40 45 47 49 53 57 59 61 61 63 64 64 65 67 71 75 80 84 90 95
16 16 17 17 18 19 19 19 15 14 14 15 16 17 20 22 23 25 27 27 28 33 34 39 44 48 52 56 60 64 66 66 66 68 69 69 70 70 74 80 86 92 96 102
16 17 18 21 21 20 17 16 14 14 15 18 21 21 23 25 27 29 30 30 34 38 39 43 47 52 55 59 64 67 71 70 70 72 71 73 73 75 79 87 92 98 103 108
16 20 21 20 18 18 18 16 16 17 18 21 24 25 26 29 33 33 34 35 38 43 44 47 52 56 59 64 69 72 75 74 76 77 77 79 79 81 85 93 99 104 109 111
20 21 20 20 20 18 17 18 20 21 21 25 28 30 28 29 34 38 39 41 44 48 49 53 58 63 65 68 73 77 80 80 82 82 83 86 85 87 92 98 104 110 113 114
20 20 21 21 21 20 19 23 24 23 24 28 29 35 35 35 37 40 41 44 50 54 56 60 64 67 71 75 79 81 85 85 85 87 88 88 88 92 98 104 110 115 115 113
24 24 24 25 23 20 25 28 26 27 30 31 33 38 39 41 42 42 45 48 55 59 62 65 70 75 78 80 84 87 88 88 89 90 90 88 92 98 104 110 114 119 115 112
27 27 28 27 24 25 32 32 33 33 35 36 38 40 44 45 45 45 47 54 59 63 68 71 75 78 81 85 88 90 90 91 93 92 90 93 98 104 110 115 119 116 112 112
29 30 30 29 31 32 34 37 39 37 40 40 42 45 48 48 48 49 55 61 65 69 72 76 79 83 86 89 92 91 93 94 92 92 95 99 104 109 115 118 118 115 114 112
32 33 33 34 35 35 39 40 41 41 42 45 47 51 51 51 52 56 62 66 70 75 77 81 84 87 90 92 91 93 95 93 93 97 101 105 110 114 118 118 116 114 111 110
33 34 36 37 36 38 40 41 42 44 45 48 50 52 53 53 58 63 66 71 75 79 83 85 88 92 94 92 93 94 93 94 98 102 106 111 115 119 118 115 112 111 112 107
34 34 37 38 40 40 42 43 46 49 50 52 53 54 56 61 66 69 72 75 80 83 86 91 94 95 94 95 94 94 97 101 106 109 112 116 120 117 113 111 111 110 107 104
35 37 40 42 43 44 44 47 50 52 54 57 60 62 65 67 69 72 75 79 82 87 91 94 95 96 95 94 94 96 100 105 110 114 117 119 117 115 113 110 111 109 105 104
40 43 44 45 47 47 48 51 52 53 55 58 62 66 69 71 72 76 79 83 87 92 94 93 92 93 93 95 100 104 107 110 115 117 119 117 114 111 111 111 108 107 104 100
43 44 45 47 48 48 50 50 50 56 60 64 66 67 71 75 78 82 85 89 93 93 90 91 92 94 98 102 105 109 113 116 118 120 117 112 110 111 112 108 106 103 100 95
45 46 47 50 52 54 57 60 61 62 66 67 71 74 78 82 84 87 91 95 91 90 91 93 97 101 104 108 111 113 116 118 119 116 113 114 114 111 107 103 101 99 95 88

GFSCGP_250_spd_039.txt.gz
Wind_Speed
32 38 37 38 35 32 27 23 21 20 21 21 21 22 26 30 34 36 36 41 47 47 50 52 53 59 61 58 56 57 57 56 58 57 52 50 49 51 59 60 65 74 81 77
37 36 34 35 32 26 26 24 25 25 25 22 30 32 36 39 40 41 45 45 46 47 49 50 49 50 49 51 52 49 47 45 45 44 46 47 51 51 55 61 69 72 77 88
36 35 34 33 27 25 24 25 25 24 23 24 27 32 40 44 47 46 46 47 49 49 46 44 43 43 43 42 40 38 35 35 34 35 37 47 52 54 61 64 67 72 75 79
35 31 32 30 28 29 26 27 25 25 25 27 29 31 36 39 39 38 37 38 38 38 38 39 36 34 33 30 27 27 28 31 35 38 43 46 50 55 61 65 69 71 77 79
33 29 31 29 28 29 27 27 28 31 32 36 36 36 35 32 32 33 35 35 34 34 33 28 25 22 22 23 25 29 32 36 40 43 46 49 54 57 60 64 66 68 69 70
31 29 27 26 29 31 32 32 32 32 32 32 31 30 29 27 29 29 28 29 28 24 19 18 18 19 22 25 29 32 36 39 42 45 48 51 53 54 56 60 64 66 65 63
25 26 27 28 27 28 28 29 30 32 31 28 24 24 23 27 24 24 21 17 17 18 17 17 19 21 24 27 30 34 35 38 42 45 48 53 57 59 60 62 62 62 65 67
25 23 25 26 29 31 31 28 25 23 22 20 22 23 23 20 21 20 16 17 17 17 17 19 21 23 26 30 35 37 39 43 47 51 55 58 59 60 63 64 66 65 67 70
28 28 28 28 30 27 25 22 20 19 21 21 19 20 20 20 17 15 15 16 17 19 21 21 24 27 31 34 38 41 44 48 51 56 58 60 64 67 68 69 68 70 74 74
26 27 25 26 26 24 21 21 19 20 20 20 20 21 19 17 15 16 18 19 22 24 25 26 29 33 35 38 42 46 48 52 56 61 65 67 71 73 73 73 74 75 78 80
23 21 23 24 23 21 20 22 24 24 21 21 21 19 18 18 18 20 22 24 26 28 30 31 34 37 38 41 45 50 53 58 62 68 71 74 76 78 76 77 78 80 82 83
22 24 24 23 23 24 25 25 24 22 22 21 20 19 20 21 23 26 28 30 31 32 35 36 39 43 44 47 50 57 61 65 70 76 77 79 82 82 80 81 82 83 85 88
25 25 24 25 25 25 24 21 21 21 22 22 21 21 25 26 28 31 32 34 36 38 39 40 44 47 52 54 57 63 67 72 76 79 82 83 85 83 83 84 84 85 90 94
24 24 24 25 22 23 23 23 23 23 24 21 26 23 27 29 31 34 36 38 39 41 42 45 48 53 58 60 64 67 73 77 80 83 86 88 86 84 87 87 87 92 96 99
24 24 24 23 25 25 25 24 24 24 24 26 28 28 31 30 34 36 40 42 44 46 48 49 53 58 62 66 69 73 76 80 84 87 90 89 86 88 89 90 93 98 102 105
23 23 25 26 27 27 24 26 26 27 28 29 31 32 33 36 37 40 41 45 48 50 53 52 57 63 67 70 75 78 81 85 87 90 91 89 89 90 91 94 99 104 107 112
25 28 28 29 28 27 28 31 28 29 33 32 33 36 37 40 44 46 47 49 53 55 55 56 64 69 72 75 79 82 85 89 92 93 91 90 92 94 96 100 106 109 113 116
30 30 29 30 28 29 34 32 33 34 35 35 37 40 43 45 48 49 50 54 56 57 57 63 69 73 76 80 83 87 90 93 94 92 92 93 93 97 102 105 109 113 116 119
29 30 30 31 31 34 36 37 37 37 40 39 44 47 49 50 51 52 52 57 55 57 64 69 74 77 81 83 86 91 94 96 93 92 93 94 98 102 105 110 112 115 118 113
30 32 33 35 36 36 38 39 41 42 43 45 50 51 51 53 54 57 57 58 62 67 70 73 76 80 81 86 89 95 97 93 93 94 97 101 105 107 111 114 116 117 111 112
32 35 37 38 38 40 41 42 43 45 48 50 51 53 55 57 58 61 64 66 69 71 74 77 80 83 87 89 94 97 94 94 95 98 103 108 110 112 115 117 117 112 112 112
34 36 39 39 39 40 43 44 47 48 49 51 53 55 58 59 59 62 65 69 73 74 75 80 85 88 90 95 98 96 96 99 102 105 109 112 114 116 117 116 113 114 112 108
38 39 40 41 41 42 43 45 46 49 52 54 56 57 58 60 60 65 70 73 74 78 82 86 86 91 97 97 96 97 99 103 106 110 112 115 118 116 113 113 112 111 108 106
41 42 40 42 42 43 46 48 50 52 54 56 57 59 63 64 68 70 74 76 79 83 86 88 91 98 96 96 97 100 104 107 111 113 115 118 118 116 115 116 113 113 110 107
42 43 44 45 46 48 47 48 51 54 57 59 62 63 67 71 73 77 80 84 87 88 89 94 99 96 96 98 101 105 109 113 116 117 115 116 112 112 111 114 115 111 105 99
45 45 46 47 47 49 52 53 57 60 63 65 66 70 75 78 81 84 87 89 88 91 96 100 97 97 100 104 108 111 114 116 119 118 119 116 117 115 116 114 109 104 98 93

GFSCGP_250_spd_042.txt.gz
Wind_Speed
25 32 37 33 33 30 30 33 29 23 19 21 25 24 20 23 25 24 23 30 38 41 40 38 45 48 53 52 53 54 57 59 63 62 62 64 64 61 59 60 59 62 65 67
34 38 35 34 29 28 31 30 25 22 21 23 23 25 26 26 26 27 29 32 39 40 43 49 52 55 54 55 55 58 60 58 52 51 51 51 50 48 47 51 57 62 67 72
32 37 36 35 31 32 30 27 24 26 25 25 25 27 28 31 29 35 38 40 43 46 47 50 49 49 51 56 49 46 44 43 42 40 38 39 41 43 47 51 52 56 64 68
30 34 33 33 30 29 26 21 20 20 24 22 31 34 30 31 33 37 43 47 48 51 50 53 55 54 45 41 38 39 33 31 33 35 37 40 42 45 47 48 51 57 62 65
35 35 36 28 26 23 22 19 16 20 21 25 27 28 26 27 33 36 40 40 41 38 36 37 37 37 37 32 27 27 28 32 33 35 37 38 39 40 45 48 51 56 58 62
27 27 24 20 26 23 26 23 22 24 26 26 31 34 29 35 33 31 38 33 32 30 31 33 30 27 23 24 26 28 28 29 34 35 36 38 42 45 50 56 59 65 65 68
30 27 26 28 23 20 22 22 23 24 33 34 33 35 37 24 35 27 31 29 29 27 22 20 20 24 25 26 27 28 29 33 36 38 39 44 49 54 58 63 67 70 73 75
28 27 28 24 23 21 28 29 31 31 36 31 34 33 29 27 27 25 26 25 23 20 20 21 22 24 25 27 30 32 33 37 43 44 47 50 55 61 68 70 75 78 80 80
29 23 25 25 26 29 26 29 33 35 37 30 28 24 25 24 25 26 26 26 24 23 22 23 25 27 29 31 34 36 37 42 48 49 54 58 62 68 72 75 77 81 85 81
27 26 30 30 32 32 31 31 33 29 28 27 21 27 23 25 24 26 26 25 25 25 26 28 29 30 34 37 41 43 43 48 54 57 60 64 68 73 77 80 84 87 86 82
29 34 30 32 33 31 32 32 28 28 27 26 25 21 24 23 26 26 24 25 26 27 31 33 34 36 37 41 44 49 53 53 57 62 66 69 73 78 82 85 88 89 87 84
31 35 31 30 28 29 29 30 28 27 25 24 25 24 25 27 26 25 27 28 29 33 36 38 39 41 45 44 48 53 59 60 65 68 72 76 80 84 86 89 91 91 87 87
28 29 30 27 30 29 31 28 25 25 26 30 27 28 27 27 25 28 30 32 35 39 40 40 42 44 47 49 51 54 61 66 70 74 77 81 84 88 91 93 94 90 88 90
30 31 30 29 31 28 29 27 28 28 29 30 29 25 26 28 28 31 35 38 39 41 45 46 46 47 51 54 57 58 64 71 75 80 83 85 87 90 93 96 93 90 91 94
32 32 30 30 30 30 29 30 29 29 31 25 30 24 27 30 29 36 39 41 44 48 48 52 53 55 57 59 61 64 70 76 80 84 87 87 90 92 96 95 93 93 96 100
32 32 30 30 30 31 29 30 30 30 28 26 27 25 33 33 35 40 40 44 45 50 50 53 57 59 59 58 62 68 72 76 81 84 85 90 93 98 98 96 96 99 101 107
31 31 31 31 30 28 30 32 30 29 28 28 30 33 35 38 39 43 48 49 52 56 57 57 58 62 64 66 69 75 76 79 81 86 90 93 98 99 98 97 100 103 107 112
33 31 32 31 30 29 34 31 31 31 33 32 33 36 42 42 46 48 50 54 58 56 60 61 63 66 71 75 75 78 79 82 86 89 92 99 99 99 100 101 105 109 114 116
32 30 31 32 32 34 35 33 35 35 36 36 40 43 46 48 51 51 55 58 59 61 62 65 66 70 74 78 79 81 85 88 88 91 99 101 101 100 102 107 113 116 116 115
32 31 30 35 35 35 35 38 38 39 38 41 46 47 49 52 54 56 57 58 61 63 65 66 70 75 78 80 82 87 90 91 92 99 104 103 102 104 109 114 117 117 117 117
33 32 32 34 36 37 35 40 41 42 45 45 48 50 53 56 55 58 60 63 63 66 66 72 76 78 81 85 89 93 94 94 99 106 105 104 108 112 116 120 121 122 123 117
36 35 34 33 34 36 40 41 44 44 46 49 51 54 53 56 60 60 62 66 68 69 72 77 79 84 89 92 95 95 95 100 106 104 104 107 112 118 122 121 122 122 116 115
40 38 37 36 34 38 40 41 44 49 51 52 53 54 56 58 60 63 64 69 74 75 77 80 84 89 92 94 94 96 101 107 105 105 107 113 119 122 121 122 120 114 115 116
41 42 40 41 40 40 44 42 46 50 50 52 54 52 57 61 64 68 72 73 77 80 83 86 89 93 94 95 98 104 107 105 106 109 115 120 123 122 121 115 112 113 110 107
43 44 43 46 44 47 42 44 52 50 51 52 55 58 64 68 71 74 77 80 83 86 89 92 94 94 97 102 106 106 106 108 113 117 121 124 122 119 113 113 112 112 111 104
43 44 46 46 48 49 44 48 51 52 53 58 63 67 71 73 76 81 84 86 88 92 94 95 97 101 105 105 104 107 111 115 119 123 123 120 118 113 112 111 109 107 105 100

GFSCGP_250_spd_045.txt.gz
Wind_Speed
14 27 32 32 35 29 33 25 23 25 23 21 19 21 24 23 22 25 23 25 31 34 30 26 33 39 36 46 49 47 50 54 57 61 65 64 67 70 72 69 66 64 58 57
18 26 36 38 31 29 27 21 23 25 20 19 23 26 28 26 25 28 28 24 25 27 32 34 35 42 40 43 46 49 52 54 56 59 63 67 65 60 57 53 51 51 51 52
20 27 34 33 29 31 27 25 26 25 23 23 24 27 29 31 30 29 31 27 30 33 34 36 35 42 47 48 50 53 53 54 57 58 59 53 51 47 45 46 44 43 41 45
16 26 33 32 30 26 26 20 24 24 20 26 25 25 28 30 32 33 35 31 33 39 40 44 44 44 48 50 51 49 52 53 49 51 48 41 41 42 40 40 42 44 47 52
19 26 28 24 24 24 23 21 19 20 22 24 28 28 27 25 25 27 29 33 35 35 36 40 44 42 43 42 40 41 42 44 42 40 40 41 41 38 38 42 46 50 55 60
19 23 27 24 26 24 22 21 16 17 19 24 29 26 21 24 27 30 34 34 27 29 30 34 37 33 33 35 34 31 33 39 39 39 41 41 40 41 45 47 51 56 59 62
15 22 25 29 24 20 25 24 22 25 26 28 28 27 25 27 31 31 34 35 28 25 25 29 32 31 26 26 29 32 35 38 42 40 43 45 45 47 50 53 57 62 66 70
16 18 22 23 21 26 26 25 22 24 29 27 25 30 29 32 34 32 31 30 29 27 26 23 23 25 26 28 32 34 36 39 43 45 46 50 52 56 58 60 64 68 74 78
19 28 29 27 28 25 30 26 25 23 28 27 31 27 30 32 28 29 27 27 28 28 24 24 25 28 31 34 36 36 35 42 47 51 55 56 58 62 62 66 70 76 82 86
25 28 28 28 27 27 30 29 28 26 28 32 34 34 27 29 30 25 27 28 26 26 27 28 30 32 34 36 38 41 42 46 50 54 58 60 63 66 69 74 79 83 87 87
26 30 30 29 28 32 31 33 32 31 31 35 30 26 28 31 28 27 27 25 26 28 30 31 32 34 37 39 43 45 47 50 54 58 61 63 66 70 74 80 83 85 85 87
33 32 34 32 27 30 33 36 37 32 30 29 32 28 30 30 29 29 25 27 29 31 32 35 36 38 39 42 45 49 51 53 55 59 64 66 70 73 76 80 81 83 88 90
31 34 36 34 35 37 37 34 28 26 26 31 31 35 30 30 31 28 27 30 32 34 36 38 39 41 43 45 48 50 53 58 60 61 64 67 71 76 77 79 85 86 88 96
31 34 34 35 36 33 28 28 27 27 29 36 32 37 29 33 27 26 31 34 35 38 40 42 42 44 45 47 50 54 57 60 64 69 72 73 75 77 82 85 90 90 95 103
29 31 34 32 31 30 29 30 30 31 34 37 35 35 31 31 27 28 33 37 43 42 46 45 46 51 54 55 56 59 61 65 70 74 76 76 78 83 87 93 93 96 101 108
33 39 30 35 34 30 32 35 34 33 34 37 37 30 33 26 29 32 36 41 41 45 48 51 52 55 59 60 61 63 66 69 74 78 79 80 85 91 94 96 98 101 109 108
32 34 33 35 33 33 33 36 32 36 36 35 31 26 28 33 36 36 40 44 49 51 54 58 60 61 61 64 67 68 72 74 78 79 83 89 94 97 98 99 103 109 110 108
31 32 33 36 34 32 35 34 35 33 32 29 30 31 34 38 40 42 43 47 49 52 57 61 62 64 67 69 72 73 75 78 79 84 89 94 99 99 99 104 110 111 109 112
32 35 35 34 33 34 33 36 34 31 31 32 34 36 37 42 43 46 49 51 54 57 59 60 63 67 69 71 75 78 80 81 85 90 94 96 97 101 107 110 109 110 114 120
34 37 35 34 35 33 34 35 36 32 31 37 39 41 44 46 48 50 52 54 57 59 60 64 67 70 73 76 79 82 85 89 93 96 99 99 104 109 111 109 111 116 121 122
35 35 36 35 34 33 35 36 36 37 38 43 43 45 47 49 51 52 55 56 57 60 63 65 68 73 78 81 84 89 92 94 97 99 101 106 110 109 109 113 120 123 123 121
38 40 40 38 36 34 33 35 35 41 44 43 44 46 49 53 55 55 54 58 61 62 66 70 74 78 81 86 89 93 96 98 99 103 109 109 107 110 115 120 123 125 122 116
42 44 43 40 41 37 32 34 41 46 43 43 45 49 53 54 56 58 58 59 63 68 73 77 81 85 89 91 93 96 97 99 105 108 105 107 113 118 122 123 122 119 116 113
44 46 45 44 43 39 39 40 43 47 47 47 49 53 55 57 59 61 63 66 69 72 77 82 86 90 93 96 97 98 103 108 106 105 109 116 120 122 121 120 117 113 113 111
45 46 47 46 43 44 43 45 48 50 50 51 54 56 58 60 62 65 69 73 77 79 82 86 89 92 95 96 98 105 107 104 106 111 118 123 121 119 118 115 113 113 108 105
48 48 45 45 45 46 48 49 50 52 52 54 57 59 62 64 67 71 75 80 83 85 88 90 93 95 96 99 106 106 106 108 113 120 124 121 118 118 114 112 110 111 105 100

GFSCGP_250_spd_048.txt.gz
Wind_Speed
22 13 17 22 23 32 28 25 25 21 16 16 16 20 23 29 31 36 41 38 34 37 44 45 37 34 35 39 40 40 38 43 47 54 53 55 58 59 62 68 71 76 76 73
20 22 20 24 21 28 22 25 24 17 18 18 16 19 25 31 35 38 38 34 35 32 30 39 41 40 30 35 35 43 45 50 51 49 53 57 57 58 61 66 67 65 65 63
18 20 16 23 23 23 18 21 21 19 19 16 17 24 25 29 30 29 31 31 31 29 25 28 31 35 38 41 39 42 49 55 55 52 52 54 59 58 57 59 60 58 58 58
15 17 18 26 29 26 21 24 21 18 19 20 21 21 24 26 28 30 31 31 34 34 31 32 34 37 36 37 38 43 46 47 49 51 48 52 54 54 52 54 54 56 56 55
15 10 17 23 27 26 25 22 18 16 21 23 26 27 23 26 29 34 31 33 34 37 34 35 35 38 42 42 42 44 45 46 47 49 48 48 47 47 50 54 56 56 56 58
17 11 16 21 25 26 24 23 23 22 28 30 23 25 25 27 28 31 31 30 31 34 37 39 40 42 40 40 40 36 40 42 42 42 42 44 46 50 53 55 58 60 62 66
12 11 14 17 20 25 25 21 20 23 26 26 26 26 23 25 28 26 27 27 33 36 37 34 33 31 32 34 35 35 32 36 38 42 44 48 50 53 57 59 62 63 65 68
15 17 14 15 19 25 22 24 25 26 24 23 24 22 21 25 28 32 31 27 27 28 31 31 30 30 29 29 29 29 34 39 42 46 48 50 51 53 57 61 64 66 70 72
17 20 16 18 20 20 23 25 23 25 28 25 19 24 28 28 28 31 32 26 21 25 29 29 29 28 29 29 29 33 38 43 46 48 51 52 54 56 60 63 65 66 68 70
17 22 23 22 23 23 26 25 24 25 30 29 27 28 31 29 30 30 27 29 27 27 28 29 29 31 31 31 31 38 42 44 46 49 51 54 57 60 62 65 67 70 73 74
22 20 25 29 29 25 26 29 30 29 33 36 31 31 32 31 26 25 28 30 30 29 27 28 31 33 35 36 38 39 41 44 47 51 54 57 60 64 67 71 75 76 75 77
30 24 28 31 26 20 22 28 29 29 32 36 36 35 32 29 27 26 30 32 30 28 27 29 32 34 37 40 42 42 45 48 52 56 58 61 65 68 70 75 77 76 78 83
33 32 30 32 29 28 28 30 32 37 37 36 35 34 23 27 28 30 30 31 30 28 28 30 32 36 39 43 45 49 53 56 60 63 64 65 67 71 74 76 76 80 84 89
33 35 34 33 29 29 29 31 33 29 30 31 31 34 30 25 28 30 28 27 31 33 30 32 36 38 42 45 47 51 54 59 62 64 67 71 72 71 75 77 81 87 90 93
33 29 32 36 35 29 24 28 30 28 29 31 36 34 33 29 26 27 25 30 37 32 33 36 39 41 45 48 52 55 58 59 62 66 69 70 72 76 80 84 88 93 95 96
35 30 30 28 31 29 26 32 34 28 31 35 36 37 35 32 26 28 33 33 31 35 38 41 43 47 50 52 55 56 59 63 65 67 71 75 79 83 86 90 94 97 98 104
39 34 31 34 34 37 30 37 33 35 34 36 37 37 38 32 30 30 31 33 37 40 43 48 50 50 53 55 59 62 65 66 68 72 77 82 87 89 93 96 97 101 107 105
36 32 31 31 33 29 37 32 35 36 34 36 37 35 33 30 29 31 34 37 41 45 49 52 53 54 57 60 62 65 67 71 75 79 83 88 91 94 95 98 104 107 103 106
38 34 32 30 30 30 34 34 36 33 34 35 34 33 33 32 33 35 38 42 46 50 53 54 57 60 61 62 65 68 72 76 80 85 89 92 96 96 98 105 106 105 108 113
43 36 30 29 30 30 37 34 35 33 35 36 36 36 36 36 37 39 43 47 51 53 54 58 60 61 65 68 71 74 79 83 88 92 94 97 98 99 105 108 107 110 114 119
42 36 31 31 30 31 36 34 34 37 40 38 39 39 40 42 42 44 49 52 54 56 58 60 63 66 69 72 76 80 84 89 92 94 96 97 100 106 109 108 111 115 121 124
42 35 32 33 33 31 36 36 39 39 40 38 39 42 43 45 47 49 51 55 57 59 61 63 67 69 73 76 81 85 89 92 94 97 98 100 104 110 109 112 116 122 123 118
39 36 34 34 31 34 39 42 43 44 41 40 42 43 45 48 50 52 54 57 60 62 64 68 71 75 78 82 86 89 92 95 97 98 101 104 109 110 113 117 123 123 119 115
39 45 40 36 35 37 40 45 45 46 46 46 47 47 50 52 54 56 58 60 62 65 69 72 75 79 84 88 90 92 95 96 98 101 104 109 109 114 119 123 123 118 115 114
39 41 47 44 40 41 42 46 48 48 49 51 52 55 56 58 60 61 62 64 66 69 73 76 80 84 88 90 92 95 96 98 100 105 108 109 114 119 123 122 118 113 114 112
42 44 46 47 44 44 44 44 47 49 51 53 56 57 60 61 63 65 68 70 72 74 77 81 85 88 91 92 95 96 99 100 106 109 110 115 119 122 122 118 113 114 111 109

GFSCGP_250_spd_051.txt.gz
Wind_Speed
41 34 21 27 9 14 11 13 16 22 23 18 13 15 23 27 31 43 39 37 40 47 45 38 39 45 39 40 43 41 45 47 48 51 50 56 55 60 56 61 61 67 67 71
37 31 16 20 12 10 18 17 15 19 16 13 12 13 15 21 33 34 42 50 49 48 45 41 41 42 45 43 43 40 36 40 45 50 50 49 50 54 56 61 62 66 67 65
34 32 11 15 11 14 20 16 18 15 14 15 15 17 19 22 23 30 33 35 39 39 36 28 24 22 30 39 40 43 43 44 45 45 50 52 55 60 62 57 58 60 57 58
34 29 19 11 13 16 16 15 16 17 16 18 19 18 20 21 24 28 31 31 32 32 36 39 39 37 32 31 33 37 41 41 43 47 48 51 52 53 53 52 52 51 55 58
31 25 20 13 9 15 19 16 17 19 16 20 19 17 17 22 24 28 31 33 36 39 42 43 42 43 42 41 43 46 47 48 49 51 49 50 47 45 45 47 51 54 59 63
30 22 15 9 9 14 17 18 19 19 19 19 19 22 21 24 24 24 27 31 33 33 40 43 44 46 45 45 47 48 46 43 38 37 41 42 42 43 47 51 54 58 63 66
29 19 16 13 5 11 15 19 20 23 23 19 22 22 20 22 26 24 25 29 32 32 35 38 38 39 46 46 44 38 32 29 31 33 37 43 45 48 52 55 58 62 66 67
30 19 17 15 10 13 16 19 21 24 23 21 21 24 23 26 27 26 28 29 31 32 36 37 36 37 35 36 33 29 26 27 30 38 45 48 51 54 57 59 60 63 65 68
33 20 18 19 19 16 15 18 18 22 20 17 18 22 27 27 26 25 25 32 38 38 38 35 34 31 31 32 28 26 25 33 36 45 49 52 55 57 57 59 61 64 67 71
38 25 19 20 22 19 13 14 19 20 24 22 18 25 26 26 28 30 28 31 35 33 29 31 31 31 29 27 26 29 34 39 44 50 53 56 54 54 58 61 63 67 72 74
43 31 22 21 21 23 20 18 19 21 24 24 23 26 29 30 29 32 33 29 29 28 29 30 31 31 29 25 30 37 40 42 46 49 50 51 54 58 60 62 65 69 72 70
43 36 26 26 24 23 21 19 21 23 24 25 25 27 29 32 34 32 30 29 29 28 31 34 33 30 27 33 36 38 41 45 45 44 49 55 57 60 62 66 66 67 73 79
42 41 36 26 27 26 23 26 29 29 28 30 26 33 28 26 27 27 30 29 29 31 35 36 33 29 32 36 37 41 43 46 47 51 55 59 63 65 66 65 68 71 78 84
46 44 38 32 29 27 25 33 30 32 30 30 29 26 19 19 25 28 31 29 32 37 38 34 30 32 35 36 38 38 39 49 53 59 63 64 66 68 67 70 75 80 85 88
45 43 38 34 32 33 31 33 34 34 31 22 26 24 26 26 27 27 30 34 37 41 38 27 30 33 35 38 41 43 47 55 60 63 66 66 69 69 72 77 83 88 91 93
52 48 46 36 36 33 30 35 38 36 26 23 25 25 28 30 30 30 32 35 37 37 34 34 34 35 40 43 46 50 56 60 63 65 67 70 71 74 78 83 87 91 93 95
53 52 49 41 38 34 28 36 34 33 30 25 25 30 32 30 31 31 32 31 32 33 34 36 38 40 44 47 51 55 58 61 64 66 70 73 76 79 83 89 91 93 95 97
54 56 48 41 38 35 39 38 34 31 31 29 31 33 33 32 31 28 27 29 31 34 36 39 41 45 49 52 55 58 60 63 66 70 72 76 80 84 89 92 95 95 96 99
57 60 51 38 36 34 34 39 35 31 27 33 36 35 31 31 29 28 29 31 34 36 39 42 46 50 53 55 58 62 65 67 70 74 77 81 85 90 92 95 96 97 100 107
59 60 48 38 36 34 36 37 36 32 29 38 36 32 32 33 32 32 33 35 38 40 43 47 50 53 56 60 62 65 67 71 75 78 82 86 90 92 95 96 98 99 105 107
61 55 47 38 35 36 38 39 35 33 40 34 33 34 35 36 37 37 39 40 42 45 48 51 53 57 60 63 65 68 72 75 78 82 87 91 92 95 97 98 100 104 107 108
56 52 44 38 37 36 39 37 39 40 37 37 34 36 39 40 40 41 42 44 46 49 52 55 57 61 64 65 69 73 77 79 82 87 91 92 95 96 99 100 104 108 107 112
56 51 43 35 34 38 41 40 42 42 40 39 40 41 43 45 46 46 48 50 52 55 57 60 63 65 67 71 74 76 80 84 88 91 93 95 96 99 100 104 107 108 111 115
50 46 39 35 35 36 38 42 41 41 41 42 44 44 45 46 49 52 54 56 58 60 63 65 66 70 72 75 78 81 85 88 92 94 94 96 99 100 104 107 107 110 114 116
45 45 36 36 29 36 38 44 47 46 46 46 47 47 48 48 50 54 57 59 61 64 66 68 71 74 76 79 82 86 89 92 93 94 97 98 100 104 107 108 111 114 116 119
46 45 44 43 40 36 38 37 44 49 49 49 50 51 51 51 54 56 60 62 64 66 69 72 75 78 81 84 87 89 91 91 94 96 98 101 105 107 108 110 110 114 118 121

GFSCGP_250_spd_054.txt.gz
Wind_Speed
65 56 41 28 16 7 8 9 7 6 10 12 9 13 16 16 31 33 33 35 42 47 43 37 37 35 32 29 31 31 37 36 36 40 45 47 47 57 61 64 60 60 63 70
64 54 39 32 14 6 8 7 5 5 8 8 11 10 15 19 30 34 30 31 35 36 39 41 38 37 39 36 39 42 46 46 44 44 45 47 47 49 54 59 59 61 65 64
60 56 37 28 14 4 7 8 7 6 7 6 10 13 18 21 23 26 27 31 31 31 36 39 40 44 39 35 30 35 38 35 43 43 44 47 49 52 53 53 55 58 60 59
59 53 34 28 11 1 6 10 7 8 10 11 13 11 10 14 18 21 21 25 30 40 44 41 42 45 43 42 39 35 30 31 39 40 39 42 47 49 48 50 54 53 53 55
55 54 36 27 17 4 6 8 10 13 14 14 12 12 11 16 18 18 20 25 29 30 31 34 36 36 38 44 41 42 46 42 43 46 48 53 58 58 56 53 50 50 50 54
53 50 43 24 18 8 4 11 14 16 16 15 14 12 14 13 15 17 18 22 28 33 33 34 36 37 44 47 48 48 48 53 52 53 55 53 45 49 49 46 48 51 54 59
52 51 46 23 21 14 5 10 15 19 17 14 15 14 15 17 16 17 21 25 27 30 31 32 34 36 37 40 42 44 43 47 52 49 43 37 39 45 45 50 52 56 61 66
50 51 46 27 21 19 11 7 12 17 15 14 19 19 15 18 17 20 22 24 28 31 33 34 35 36 37 41 44 43 42 39 34 28 30 34 42 44 49 54 58 61 67 65
47 49 49 37 22 21 16 11 13 14 15 15 18 22 19 19 20 21 23 25 27 30 34 36 40 42 38 37 35 35 33 32 26 25 32 39 45 49 57 62 62 63 63 65
46 47 48 41 24 19 15 12 12 15 13 14 17 20 23 21 21 22 26 30 32 35 40 42 42 40 34 32 32 33 32 29 24 29 37 46 53 59 61 62 58 62 64 65
45 48 47 41 27 20 16 17 16 14 17 16 19 24 24 25 23 27 31 34 34 37 39 35 32 31 31 31 32 33 32 28 28 34 41 48 55 59 57 58 62 64 66 69
45 47 48 50 38 26 22 17 17 19 18 19 20 25 26 26 28 31 33 36 38 32 31 33 34 34 32 31 31 31 30 31 31 39 43 49 56 58 60 66 67 69 72 74
45 48 46 49 43 35 24 21 19 23 24 25 24 30 24 30 33 36 36 33 31 30 33 34 35 35 33 32 32 33 30 31 37 41 44 55 57 60 65 69 72 74 76 77
45 47 47 49 48 39 32 26 23 27 29 29 32 33 31 31 30 30 29 30 31 33 34 35 36 35 34 33 33 32 33 37 38 44 51 52 62 64 67 72 74 76 79 82
48 44 47 50 55 44 41 33 26 30 32 33 37 34 36 32 28 29 29 30 32 34 37 38 36 35 32 32 32 35 37 41 47 49 55 60 64 67 71 73 75 78 81 84
50 47 48 50 54 54 39 34 28 28 35 36 34 37 39 31 30 30 30 30 32 36 38 41 39 33 29 32 35 39 44 47 52 55 59 64 68 72 74 76 79 81 83 86
51 50 51 49 52 51 45 42 32 30 32 34 36 37 35 34 32 32 30 32 35 36 37 37 35 33 33 36 40 44 47 52 56 60 65 68 72 74 77 79 81 83 86 89
51 53 51 51 52 47 46 43 34 31 34 35 34 36 38 36 31 30 32 33 33 33 32 32 34 36 39 42 45 48 52 56 61 64 67 70 74 76 77 79 82 86 89 94
53 54 54 52 54 50 51 48 40 32 33 37 36 34 32 31 31 33 34 32 31 32 33 34 36 39 42 46 49 53 58 61 63 66 70 73 75 77 79 82 87 91 95 95
53 55 53 52 57 53 50 47 42 36 35 38 33 34 33 35 35 35 36 34 33 35 36 38 40 43 46 49 54 57 59 63 66 70 72 74 77 80 84 88 92 94 95 99
49 54 56 60 56 54 53 48 41 38 44 35 36 35 36 35 35 36 38 38 38 38 40 41 44 46 50 53 56 59 63 66 70 72 74 77 80 84 89 93 95 96 99 101
52 56 56 59 58 51 51 45 42 39 42 37 37 38 39 40 41 39 38 41 43 45 46 48 50 52 55 58 61 65 68 70 72 75 78 81 85 89 92 93 95 98 100 104
52 57 60 60 55 50 45 44 45 43 39 37 37 40 42 43 43 42 44 46 47 49 51 54 56 58 60 62 65 68 70 73 75 78 81 85 89 92 93 95 97 100 106 110
54 56 59 56 52 51 46 45 42 36 33 36 39 40 40 41 43 45 46 48 50 51 53 55 57 59 62 64 68 70 72 76 79 82 86 89 92 94 96 97 101 106 111 112
54 57 56 56 51 48 49 47 43 42 37 35 39 41 44 47 48 48 49 50 52 55 57 59 61 64 67 68 70 72 76 79 82 86 89 91 94 96 99 103 108 111 113 112
52 55 59 55 54 52 48 47 50 48 44 43 38 40 42 46 50 52 54 54 56 58 61 63 65 67 69 71 74 77 80 83 85 89 92 95 98 100 104 108 109 111 113 116

GFSCGP_250_spd_057.txt.gz
Wind_Speed
49 54 58 58 39 31 12 11 8 3 2 6 4 7 11 11 13 20 35 49 44 40 39 36 28 29 31 30 28 25 30 28 36 37 45 44 45 43 45 49 50 56 56 58
46 49 52 55 39 34 7 7 4 5 5 2 7 13 12 10 12 16 21 35 42 45 41 44 38 34 33 29 28 26 30 31 31 36 40 44 48 49 49 48 49 53 53 56
44 47 50 51 42 32 11 6 7 5 2 10 9 8 12 14 12 15 22 28 32 34 34 34 41 38 37 36 34 37 38 41 38 44 41 45 49 46 48 48 50 53 57 58
43 46 48 52 41 28 20 5 10 6 7 6 8 8 10 11 13 15 18 20 20 23 24 23 29 33 38 39 40 42 38 39 39 35 31 32 34 42 43 45 46 53 57 57
40 42 43 49 44 25 23 12 11 9 8 9 11 11 11 9 9 13 19 21 20 23 25 30 36 36 39 39 38 38 40 42 43 44 45 48 53 53 54 51 55 60 59 56
39 40 43 45 38 29 20 17 14 11 11 14 13 13 13 13 10 12 14 16 18 20 23 25 26 28 31 34 35 35 42 43 45 49 52 53 52 53 53 53 54 49 49 49
38 38 40 43 41 34 22 19 13 14 13 16 16 14 11 13 13 12 13 15 18 19 18 21 24 27 33 38 39 38 37 40 42 44 46 46 45 41 38 41 43 46 49 53
36 36 38 39 40 39 22 16 13 12 14 18 17 16 12 15 17 17 17 20 21 22 23 24 24 27 29 32 35 37 39 42 44 42 40 36 33 37 38 38 44 52 54 58
36 33 36 38 39 40 32 16 14 14 15 17 19 22 20 18 17 17 19 21 22 23 23 22 25 28 30 34 39 41 44 42 36 34 33 35 34 37 39 44 53 58 62 64
36 33 36 37 39 38 36 19 15 14 17 19 18 22 22 17 19 22 24 26 26 28 29 29 32 35 35 37 39 38 37 35 33 33 34 33 34 37 44 52 57 64 63 65
37 35 35 37 39 37 37 33 19 16 20 19 20 20 20 19 21 23 25 27 27 30 33 36 38 37 38 35 33 32 33 33 34 34 32 33 36 39 45 53 60 66 65 68
40 39 38 37 38 40 40 35 28 20 21 23 25 27 21 18 21 27 30 31 32 35 38 39 41 41 35 31 31 32 33 35 35 33 32 35 35 43 48 56 64 63 66 73
42 43 40 36 40 40 44 40 35 28 24 28 28 32 26 26 27 29 32 34 37 40 43 43 39 34 33 32 32 32 35 37 36 37 38 38 43 50 55 59 61 65 73 77
44 43 40 37 38 41 42 44 39 32 21 31 34 36 34 33 33 33 33 36 37 35 34 35 35 32 33 35 36 37 38 39 39 39 40 44 47 54 56 59 64 71 74 78
44 39 40 40 40 41 42 43 48 34 28 26 39 38 39 37 37 36 34 36 37 35 36 38 39 37 36 39 40 38 36 39 43 42 45 49 52 55 60 65 68 71 75 80
43 40 42 41 42 42 41 49 46 41 32 27 33 36 39 40 39 39 37 36 36 36 37 38 39 41 43 43 40 40 41 45 45 47 49 53 56 60 64 66 69 74 78 82
43 42 44 44 44 43 39 50 51 44 39 32 31 34 33 38 41 43 39 34 35 36 37 37 38 40 42 42 41 38 40 43 46 49 52 55 59 63 66 70 74 76 80 84
45 45 46 46 47 42 48 53 54 47 43 36 30 36 36 36 37 39 42 38 37 38 38 38 39 39 40 40 41 41 43 45 48 51 55 59 63 66 70 73 76 79 82 84
48 47 49 49 48 43 41 54 51 50 44 42 37 32 31 33 32 34 37 39 39 38 39 38 38 40 42 43 44 45 48 50 53 57 61 63 66 69 72 76 79 81 83 85
52 52 52 50 48 39 41 47 51 49 46 42 32 30 33 33 35 36 38 40 39 40 41 41 40 40 42 45 46 48 51 54 58 60 63 66 70 73 76 77 79 82 85 90
52 55 53 50 46 41 41 48 56 47 47 49 41 32 34 36 37 39 40 40 41 39 40 42 43 45 47 48 50 52 56 58 61 64 67 70 73 74 77 79 82 86 89 93
50 45 46 49 48 40 47 46 48 51 52 43 42 36 35 39 40 40 41 42 43 45 46 47 48 49 50 52 55 57 59 61 64 66 69 71 73 76 79 83 87 90 93 96
49 49 51 52 50 47 48 49 48 53 51 46 40 36 38 42 42 42 43 44 46 46 46 48 50 51 53 54 55 57 60 63 66 69 71 73 75 78 82 87 90 94 98 100
52 53 53 55 49 46 46 49 53 54 50 45 41 41 41 42 44 44 44 45 47 49 50 51 53 54 55 56 59 61 64 66 69 71 73 76 79 83 87 91 95 98 100 103
47 47 46 44 46 52 52 52 53 53 49 46 46 47 47 47 50 51 52 52 52 54 55 55 55 57 59 61 63 65 68 70 73 75 78 80 84 89 93 94 96 99 104 106
49 49 50 49 53 55 55 55 57 54 54 49 48 52 55 54 55 57 57 55 56 57 55 57 58 59 61 64 67 69 73 76 79 80 81 84 91 92 92 96 101 104 106 108

GFSCGP_250_spd_060.txt.gz
Wind_Speed
38 41 44 48 48 52 32 27 9 6 2 5 4 7 10 11 17 23 30 41 42 37 31 31 26 30 33 30 27 28 28 37 48 46 44 52 53 67 55 72 68 59 61 62
36 39 41 44 46 50 32 27 16 3 6 4 9 9 10 11 11 17 21 35 43 43 37 34 34 26 29 32 32 32 31 31 30 32 35 42 48 47 43 50 51 53 57 62
35 37 39 40 43 46 34 27 17 6 4 7 11 11 11 10 10 10 14 24 38 42 43 39 42 39 30 32 34 33 32 32 30 34 34 36 39 42 47 49 49 51 50 52
33 35 38 37 41 42 34 25 21 5 7 9 11 11 12 15 12 7 7 10 20 37 42 30 34 39 42 42 37 38 38 36 36 39 40 42 42 46 48 44 44 46 48 54
34 34 38 34 37 37 41 22 22 12 10 13 12 11 10 9 9 11 12 13 14 17 22 27 29 30 35 36 36 39 43 42 43 43 43 46 48 46 46 51 53 54 55 58
33 35 35 31 33 36 39 27 19 16 14 15 13 12 12 12 10 9 13 16 18 20 21 23 26 28 30 32 36 37 39 42 40 40 41 44 45 47 50 53 52 52 54 56
34 36 33 28 30 33 35 31 17 16 17 17 15 13 13 14 14 14 14 16 15 16 19 20 22 25 27 30 34 36 37 36 37 41 44 44 44 46 47 47 47 48 49 49
35 35 28 27 29 30 30 35 21 16 14 20 20 19 18 16 15 15 19 19 20 22 23 23 26 31 32 33 35 36 37 38 41 41 42 45 46 45 42 39 39 48 49 46
37 35 28 26 28 31 31 33 25 19 19 21 23 22 17 20 19 19 20 21 22 20 22 25 27 30 32 33 34 36 37 38 41 45 45 44 36 39 42 40 44 48 48 48
37 35 30 28 29 32 32 31 31 22 20 22 25 27 23 23 20 19 21 22 23 23 23 25 28 29 31 32 35 37 38 40 42 40 39 38 38 40 42 45 46 43 49 57
40 35 30 29 30 32 33 31 30 30 23 20 26 30 26 25 22 21 22 22 24 25 26 28 29 32 34 35 36 38 40 38 37 37 37 39 40 42 43 46 44 47 53 59
40 36 30 30 31 32 32 31 30 34 32 21 27 31 30 27 26 27 28 28 28 29 31 33 36 37 37 40 41 38 34 35 36 38 39 42 43 44 46 46 47 49 57 62
43 36 32 32 34 32 32 32 33 32 32 26 22 35 30 31 32 32 30 30 30 32 33 34 38 41 42 38 36 36 37 38 39 39 42 43 46 47 47 48 50 55 60 64
43 38 34 35 37 33 31 33 35 34 33 32 29 30 32 36 38 37 36 34 35 35 35 36 38 37 35 36 39 41 42 43 42 44 46 47 48 50 51 53 56 59 63 68
44 38 38 39 37 33 33 37 36 34 34 32 36 32 31 33 41 42 41 40 38 38 39 39 39 40 39 39 41 42 43 45 45 44 44 44 50 52 53 58 60 62 67 71
44 40 40 39 38 37 35 39 38 36 36 36 38 35 32 29 34 41 42 40 41 38 40 42 41 41 42 42 43 44 46 43 40 47 49 50 52 54 57 60 63 67 71 74
45 42 42 42 40 36 38 40 39 38 37 36 39 37 35 28 30 37 38 39 40 41 42 44 44 44 44 45 45 45 46 45 45 44 44 48 52 56 60 63 66 70 73 75
46 43 43 41 40 35 42 41 43 38 37 39 43 33 33 30 29 34 35 36 40 45 46 46 47 45 44 45 44 45 46 46 47 48 50 51 54 57 61 65 68 71 74 78
49 47 44 40 41 38 39 45 44 43 40 46 38 36 35 36 31 33 38 39 41 42 43 43 44 45 45 46 45 46 46 48 51 53 55 57 60 62 64 67 70 74 78 81
50 48 44 42 43 37 42 45 47 49 45 48 41 38 38 35 35 33 36 40 40 39 41 43 45 46 45 45 46 47 48 50 52 55 57 60 62 65 67 70 73 75 79 81
50 49 43 45 41 37 43 47 48 47 52 46 47 42 41 38 37 35 38 40 42 42 42 44 46 47 46 47 49 51 52 53 55 57 59 60 62 65 68 72 75 78 81 84
53 49 45 44 41 35 46 48 48 49 51 47 43 42 44 41 41 40 39 44 47 46 45 46 47 49 49 51 52 52 54 56 58 59 61 63 66 69 72 75 79 83 85 87
50 47 45 43 41 45 48 51 50 48 44 43 44 44 45 44 43 44 45 46 48 50 49 49 50 51 51 53 55 56 59 62 63 63 64 67 69 70 72 76 81 84 87 89
52 50 49 49 48 50 51 51 47 43 43 45 45 45 47 47 47 49 50 53 52 50 51 54 54 54 55 57 60 64 66 65 66 66 67 68 70 75 79 81 85 89 92 94
53 51 48 47 48 51 50 49 46 47 47 48 51 50 50 50 51 52 51 55 55 54 54 56 59 59 60 59 59 63 67 71 71 68 71 71 75 79 85 88 91 92 92 94
52 51 51 48 53 53 52 52 50 51 51 53 54 55 57 57 56 54 51 53 56 56 57 59 61 59 62 66 67 69 71 71 68 69 73 76 82 87 92 95 93 94 93 93

GFSCGP_250_spd_063.txt.gz
Wind_Speed
34 30 34 38 40 44 43 43 26 21 9 8 7 11 20 19 26 35 39 45 41 40 32 31 30 26 32 37 35 39 43 45 48 51 47 42 38 45 61 55 63 55 64 67
31 28 33 37 39 42 41 42 26 17 11 11 14 14 13 12 14 27 37 41 40 41 38 34 31 27 32 32 34 32 37 33 34 38 50 52 47 46 42 46 45 46 43 51
28 27 33 36 37 41 40 41 29 17 12 13 16 15 12 13 8 11 15 22 33 39 44 35 36 33 30 30 31 32 33 34 31 31 31 35 36 39 40 42 43 46 52 52
28 28 33 32 36 40 36 38 30 18 13 14 11 13 19 14 13 10 9 12 22 36 44 40 41 39 39 31 37 35 35 32 34 33 36 35 38 41 43 44 48 49 51 53
27 29 32 33 35 38 31 31 36 15 12 16 13 13 11 10 7 6 7 7 12 35 45 40 47 46 43 43 45 43 41 40 38 42 44 41 38 43 46 49 49 53 57 57
29 29 32 33 34 34 29 31 33 24 13 14 17 15 10 10 9 9 10 12 13 16 21 26 31 36 39 39 43 45 45 44 44 42 45 47 47 47 49 50 49 51 54 54
31 29 34 32 34 31 27 28 33 31 15 13 17 18 15 13 15 15 13 17 18 20 22 23 24 26 32 35 34 34 37 38 40 41 42 44 45 45 46 48 49 50 51 53
35 31 36 33 35 29 27 30 30 32 20 16 14 21 21 19 16 16 17 19 19 21 22 24 25 28 30 32 34 35 36 39 42 43 42 43 45 46 48 48 50 53 55 53
39 33 37 35 35 30 26 28 28 28 28 19 15 15 23 24 21 20 21 21 23 25 26 28 29 31 33 35 37 39 39 39 40 41 42 45 47 48 49 52 54 52 52 54
40 35 40 37 35 31 24 27 27 26 27 28 16 13 17 28 25 25 25 26 28 29 29 29 28 31 33 36 36 37 38 38 39 41 45 47 49 48 46 47 50 51 54 56
43 38 42 41 36 31 25 27 28 28 28 32 22 16 17 22 28 30 30 29 29 29 30 30 30 29 30 32 33 35 38 41 42 45 46 50 44 43 43 46 48 51 56 60
43 41 38 42 37 32 27 27 30 30 30 31 26 26 16 15 25 31 32 30 32 34 33 35 34 35 35 36 37 39 41 44 47 45 43 44 46 48 47 48 50 55 59 63
45 42 43 44 41 34 27 30 31 31 31 32 29 31 29 17 19 30 34 36 36 37 37 37 37 36 38 38 38 39 40 39 38 40 42 43 47 47 48 49 51 56 60 64
48 48 48 47 42 33 29 33 33 31 32 33 32 33 33 22 19 21 30 37 40 41 40 41 40 41 39 39 39 38 38 39 40 41 43 45 47 49 50 52 54 57 59 62
52 50 53 50 41 32 33 37 36 33 33 33 34 35 35 26 18 19 23 32 42 45 44 45 44 45 44 44 42 42 41 41 43 44 44 44 45 47 50 53 55 58 58 61
57 52 53 50 43 34 35 39 38 35 35 33 36 37 34 34 27 24 26 31 32 38 44 46 45 45 46 46 46 45 44 45 45 46 46 47 50 50 50 52 55 58 62 64
60 55 54 48 46 38 34 43 39 39 37 35 35 39 37 39 35 30 28 28 34 36 38 39 43 45 45 48 49 49 48 48 47 48 48 48 49 52 52 54 56 58 61 64
61 58 55 50 47 39 45 42 41 40 37 37 37 39 38 40 36 35 32 31 31 34 35 37 39 44 48 48 46 45 46 48 50 50 49 49 50 52 54 56 59 62 65 67
62 59 55 51 47 42 43 45 44 41 40 42 37 38 42 40 37 37 36 36 34 35 40 42 45 48 49 48 45 45 47 49 49 48 48 50 52 54 57 59 61 63 66 68
64 61 56 51 47 42 47 50 48 44 40 44 37 40 45 40 37 36 39 36 35 36 38 45 48 50 50 48 48 47 48 49 50 50 52 54 56 58 60 63 65 67 69 71
63 61 56 52 47 46 48 52 51 41 50 43 42 43 42 40 39 39 40 37 37 38 40 45 49 52 53 52 51 51 52 53 55 56 57 59 60 62 66 70 71 71 71 71
63 61 56 53 48 45 50 56 48 48 48 49 44 42 42 41 43 42 42 40 40 39 43 48 49 51 53 55 56 55 55 56 57 58 60 61 64 66 68 69 72 74 73 77
63 59 56 50 47 49 52 52 51 50 53 48 46 44 45 47 48 47 47 48 46 47 48 49 53 55 54 51 49 53 55 56 57 58 60 62 62 68 73 75 76 78 80 83
61 59 55 51 49 50 51 51 51 52 56 48 48 48 49 49 49 50 52 54 51 52 52 51 50 51 55 58 58 57 56 58 61 63 65 68 70 72 74 73 77 81 84 89
61 59 54 50 51 55 53 55 55 55 54 52 50 51 50 52 53 54 58 59 58 59 57 54 53 53 56 58 59 59 61 62 62 65 69 71 74 76 78 81 87 89 92 93
63 60 57 57 60 61 59 60 56 55 55 54 53 53 52 54 57 60 61 64 64 63 64 57 56 55 55 57 61 62 64 66 70 73 74 75 79 82 85 88 90 93 96 99

GFSCGP_250_spd_066.txt.gz
Wind_Speed
39 39 37 39 33 32 39 42 46 42 25 16 15 16 25 19 29 25 25 26 29 41 52 51 55 57 56 58 61 60 59 65 63 66 68 67 66 68 62 69 65 65 68 69
36 38 38 35 30 34 37 38 43 40 30 14 17 20 23 20 22 26 24 29 24 32 38 58 55 57 50 54 63 61 61 63 65 64 66 63 57 64 58 43 47 47 51 50
37 40 36 31 28 34 35 38 37 34 33 18 15 18 24 17 12 9 13 28 30 25 36 32 33 36 41 33 37 54 54 51 53 56 51 46 45 45 44 52 54 52 51 56
37 37 37 28 30 32 35 37 34 33 32 19 16 15 15 16 15 11 12 10 18 30 36 36 31 36 33 33 37 35 40 47 45 42 42 43 41 42 41 41 46 47 46 50
39 39 33 26 29 33 33 35 35 33 33 20 16 15 13 12 16 18 11 7 8 16 15 30 42 42 39 37 34 38 38 37 36 36 37 38 39 41 45 43 45 50 52 56
41 37 34 27 29 34 32 33 33 29 28 25 18 15 11 13 12 12 11 10 9 11 24 32 35 51 44 43 45 44 41 40 43 43 44 46 47 48 49 50 50 53 55 57
42 38 33 29 28 34 32 34 32 24 25 25 22 15 15 17 16 18 17 13 16 16 19 21 23 39 39 43 50 51 50 44 43 44 45 45 46 48 50 49 49 52 53 56
43 38 36 35 31 33 34 35 30 23 26 27 27 18 11 17 19 21 22 22 21 18 21 24 25 26 27 33 38 39 40 42 45 43 41 42 43 46 50 52 53 53 55 58
46 41 40 38 32 34 32 34 30 21 21 24 29 23 19 16 20 24 23 19 18 21 22 26 29 30 31 33 35 37 39 41 42 43 44 46 48 48 48 49 49 53 57 57
47 50 40 40 35 35 34 36 31 24 22 22 25 19 19 19 22 20 24 26 27 26 28 29 32 34 35 36 37 39 40 41 42 44 45 43 44 43 46 47 47 44 47 53
52 51 46 44 41 37 38 38 33 27 22 20 23 26 24 22 18 23 22 28 30 31 35 33 33 32 36 35 35 37 37 38 39 40 41 43 47 43 43 42 42 49 55 56
53 51 49 45 46 36 41 39 35 30 24 20 22 24 25 25 20 18 21 26 28 30 32 35 34 34 33 38 38 37 40 40 40 42 41 40 45 34 42 56 57 58 58 60
58 56 52 47 42 35 41 39 40 32 26 26 23 27 27 27 27 19 20 20 26 33 33 35 36 36 37 38 38 36 38 39 38 35 39 39 43 46 51 53 55 58 59 60
61 61 51 47 49 44 41 43 42 34 31 32 28 28 31 27 28 27 23 27 30 30 34 38 39 40 41 40 40 40 40 38 38 38 40 39 42 50 52 54 54 53 52 53
59 56 57 53 48 43 44 45 45 36 32 34 30 30 33 32 29 31 33 27 26 31 36 38 39 41 43 42 42 42 43 42 40 40 40 42 43 47 51 49 50 50 51 52
63 55 59 60 52 46 45 48 44 39 36 36 34 34 35 35 34 35 36 30 28 32 33 35 41 39 42 42 42 42 44 45 43 44 45 48 47 47 50 49 50 51 52 53
61 61 60 50 54 54 48 48 46 41 39 37 37 37 36 35 35 36 37 32 33 32 33 34 35 35 35 38 44 44 47 48 50 50 49 47 48 50 52 52 53 54 55 57
65 58 59 57 58 49 49 51 47 44 42 41 39 39 37 37 39 40 38 34 37 35 34 34 34 33 33 39 43 47 49 51 52 53 53 52 50 52 53 53 53 56 59 61
70 58 53 60 59 56 53 54 50 47 43 43 42 41 40 40 42 41 39 39 39 39 36 35 37 34 35 39 45 50 53 55 54 53 53 53 53 54 55 57 59 61 62 64
72 71 62 59 58 54 54 56 51 48 40 48 45 44 45 43 43 42 41 39 41 41 39 38 38 39 39 40 43 44 47 51 55 56 55 54 55 56 58 60 62 63 63 64
73 70 68 66 63 60 56 57 57 49 49 52 48 45 47 46 43 44 41 42 46 44 42 43 44 43 43 45 47 50 50 52 51 49 49 53 56 58 59 59 58 60 65 69
78 76 73 72 69 60 57 58 55 54 59 52 48 48 48 47 50 45 45 46 47 47 46 45 48 50 51 53 53 53 52 52 51 52 53 55 56 56 59 61 66 67 70 73
71 71 70 68 61 59 60 62 63 61 57 55 51 50 52 54 56 49 48 49 50 51 50 49 52 54 56 57 58 56 55 54 55 55 56 57 59 61 63 65 68 71 75 79
70 70 70 70 65 63 63 65 62 62 61 57 52 53 56 55 56 51 51 52 53 54 54 54 57 59 61 60 62 60 59 58 56 57 58 59 62 65 67 69 74 77 80 84
72 70 70 66 64 61 61 62 64 63 59 55 55 58 59 55 57 54 55 57 55 57 57 59 61 64 65 65 67 66 67 64 61 62 64 67 68 72 73 75 77 79 81 85
68 69 70 64 63 63 63 63 61 62 60 59 60 61 61 57 60 59 59 59 57 59 61 63 65 68 70 70 71 72 70 68 64 63 61 62 63 65 67 73 76 79 83 83

GFSCGP_250_spd_069.txt.gz
Wind_Speed
39 32 44 43 39 33 33 29 37 36 41 41 30 19 21 17 27 14 20 19 28 41 28 31 48 48 54 58 60 63 64 62 67 67 65 64 64 60 64 69 67 65 65 69
36 34 39 41 36 33 33 32 35 36 38 38 33 18 19 17 12 24 23 22 32 29 30 38 48 54 57 55 55 56 57 59 61 69 67 66 66 68 65 68 69 72 64 67
37 40 33 38 31 29 30 30 35 34 38 34 30 24 14 14 13 20 25 19 20 28 27 25 47 51 55 55 52 52 54 55 57 58 64 64 65 68 68 68 63 62 60 61
37 37 30 33 30 32 28 30 35 33 35 35 31 23 10 9 12 9 14 10 8 18 30 18 20 30 53 55 56 54 56 53 54 55 58 65 57 57 57 53 55 51 46 41
41 37 31 29 32 31 27 28 34 28 33 33 27 26 17 11 10 7 11 13 8 12 17 26 20 25 30 49 55 59 58 54 47 46 47 50 52 46 45 44 46 42 42 48
43 39 30 33 32 30 26 28 33 33 31 32 27 28 19 11 10 12 8 10 8 8 15 20 22 25 30 33 36 36 39 41 44 43 45 45 40 44 46 50 52 51 53 56
53 43 35 37 36 33 29 27 31 34 30 32 28 24 22 14 10 14 17 13 14 12 14 19 22 25 28 38 41 40 39 39 41 40 42 41 44 48 50 53 58 56 57 59
56 43 40 44 38 36 28 30 30 32 29 32 27 21 23 22 16 15 16 18 19 18 16 16 21 23 22 28 35 40 45 47 48 46 45 48 49 48 49 52 57 60 58 59
63 49 50 44 41 37 30 34 31 31 32 32 27 20 21 23 22 15 14 19 18 20 16 16 20 22 24 27 28 30 36 42 44 46 48 49 50 52 51 48 51 49 51 57
63 53 52 47 46 42 30 33 33 34 32 32 27 21 20 22 21 20 17 19 22 19 24 23 20 21 26 29 32 30 29 31 32 35 37 40 40 36 39 40 43 41 38 41
65 54 51 51 42 43 34 36 34 35 33 32 28 22 18 23 26 21 23 20 21 25 26 27 27 26 27 26 24 27 31 29 26 24 28 27 27 28 20 18 23 36 33 49
59 55 52 53 43 44 44 34 37 35 35 31 29 24 18 19 25 26 20 22 21 24 28 29 31 31 29 26 23 27 25 24 30 32 29 32 28 20 26 31 25 61 59 59
62 55 58 55 48 43 45 38 37 38 36 31 31 25 25 20 24 24 24 24 27 22 24 27 29 32 32 29 29 30 19 12 31 25 24 24 26 44 37 42 51 62 67 64
66 62 59 53 50 45 44 44 39 34 36 34 36 30 26 26 25 27 27 27 25 26 22 24 33 31 27 32 33 33 23 30 38 39 38 36 43 46 50 57 64 69 72 74
63 60 59 53 52 51 48 44 41 36 42 38 39 37 29 32 28 29 29 30 30 31 31 28 26 31 36 26 27 31 37 42 50 51 47 50 51 53 59 65 71 73 76 73
64 62 63 57 55 53 50 46 43 40 41 41 40 38 32 36 31 32 32 32 33 33 32 30 26 26 32 39 33 28 27 37 47 50 52 57 58 63 65 68 71 73 74 74
63 64 67 62 57 59 50 44 44 45 43 46 43 42 35 35 34 35 34 33 36 36 35 35 29 28 28 31 34 34 36 35 38 43 49 55 58 60 61 62 62 59 59 62
69 68 69 60 62 52 43 50 50 51 47 42 46 43 38 38 36 38 39 37 39 38 37 35 33 30 27 28 29 30 30 32 37 42 48 52 56 59 61 61 59 57 58 60
73 71 72 67 59 55 50 51 49 49 50 48 47 45 43 41 37 42 43 42 41 43 40 38 37 35 32 31 32 34 35 37 38 40 42 45 49 54 55 58 60 60 60 62
74 70 73 66 61 53 51 53 51 51 47 50 50 50 47 42 40 43 46 47 44 44 43 40 40 41 40 38 39 39 41 43 45 47 46 47 50 50 51 53 52 53 55 58
71 73 71 65 60 59 54 59 60 55 52 60 56 53 50 45 43 46 49 49 49 50 46 43 45 44 46 44 45 46 48 49 51 53 54 55 55 55 55 55 56 57 59 62
73 76 73 69 64 55 55 58 53 53 56 59 57 55 53 51 48 49 50 52 54 53 50 47 48 49 50 51 50 52 52 53 56 58 59 61 59 58 59 60 60 63 66 68
72 68 75 72 62 62 64 67 63 61 60 60 54 57 57 53 50 52 55 57 56 56 53 52 51 53 54 55 57 56 56 57 61 64 65 66 63 65 66 62 62 65 68 71
71 71 79 74 66 66 66 64 66 68 66 65 62 62 60 53 51 53 56 57 57 58 57 57 56 57 58 58 60 60 61 63 66 69 72 73 68 72 74 71 67 64 64 66
73 73 72 77 74 70 66 59 69 67 70 68 67 64 58 53 54 57 60 59 59 59 60 60 62 62 61 61 63 65 66 67 69 73 76 77 74 78 81 77 70 67 68 70
73 71 71 71 74 73 69 71 67 66 72 71 67 62 60 57 58 60 63 60 61 62 63 65 67 67 65 65 66 69 71 72 74 78 80 81 82 82 84 77 73 71 72 75

GFSCGP_250_spd_072.txt.gz
Wind_Speed
46 41 44 37 36 28 33 30 30 28 31 35 37 43 37 24 26 27 32 34 24 24 32 35 21 31 40 42 45 49 56 82 81 81 72 71 71 71 71 67 67 66 66 64
44 46 46 38 36 34 28 28 27 26 27 33 37 39 37 25 24 25 22 21 22 26 26 31 23 21 41 46 50 52 56 55 56 71 72 78 69 62 65 70 72 70 68 64
45 52 45 39 38 34 26 25 28 24 28 34 34 37 33 24 21 23 22 25 23 25 24 21 19 11 32 46 48 56 59 58 55 55 60 66 72 66 64 61 69 70 69 75
46 54 50 43 38 35 28 24 27 23 26 32 34 34 33 27 16 19 13 17 14 17 16 21 19 12 16 37 47 45 46 52 48 50 53 53 58 59 57 61 58 65 62 65
52 54 49 43 40 37 34 25 26 24 23 28 34 31 28 25 17 15 10 14 16 15 11 12 15 17 18 20 28 33 43 46 50 52 48 48 49 52 55 57 54 57 52 57
59 63 51 45 46 39 37 26 27 24 23 23 31 28 26 22 19 15 12 14 14 14 12 10 12 17 20 25 29 33 32 37 41 40 38 43 43 41 44 46 48 53 51 52
67 65 63 58 44 41 37 31 29 27 24 23 28 25 25 19 22 13 13 15 16 18 11 11 15 13 12 15 21 29 33 36 38 41 46 45 43 44 46 45 47 49 51 52
71 68 65 59 54 46 42 35 32 29 26 25 27 24 25 18 18 19 13 12 16 17 17 16 12 15 16 19 19 25 28 31 37 35 36 38 42 44 45 46 48 51 55 54
74 69 71 65 59 54 46 37 40 32 25 27 28 25 23 18 15 16 17 13 14 17 15 17 19 13 14 15 16 16 17 28 37 37 36 41 45 44 45 47 47 51 42 43
71 70 70 70 65 57 47 44 39 34 29 25 28 27 21 21 14 16 16 15 11 10 19 22 21 20 18 17 18 20 23 22 20 22 26 24 23 24 27 26 30 31 28 33
72 67 69 70 66 58 51 48 44 40 31 27 28 27 22 19 18 16 18 12 12 16 9 12 22 27 27 28 27 26 22 20 22 22 22 15 15 16 22 25 23 31 33 33
69 67 66 63 65 61 55 51 50 42 41 29 30 30 27 19 21 18 20 20 18 17 18 13 12 16 23 28 30 25 22 16 17 23 23 22 20 19 13 19 34 38 44 44
65 62 63 64 61 56 52 52 49 44 42 31 30 33 30 22 22 21 20 22 21 22 17 15 12 15 18 21 26 29 25 21 25 25 31 34 31 29 29 39 40 45 56 57
61 60 60 55 56 59 59 58 54 47 43 34 31 31 28 27 25 25 22 23 21 21 25 22 20 19 20 20 20 22 26 30 30 34 41 40 34 34 39 42 56 64 65 64
60 57 59 57 59 62 59 58 57 48 43 41 36 31 30 32 30 25 25 24 24 22 24 26 26 27 24 19 18 20 21 25 37 40 44 41 44 45 48 51 59 65 68 70
64 56 59 58 61 64 62 58 59 56 41 42 36 31 34 35 33 27 29 25 27 26 24 27 29 31 32 27 20 19 18 18 26 39 47 51 51 54 59 66 69 73 77 79
65 64 62 58 62 65 60 59 59 55 48 43 37 40 36 36 36 35 31 30 31 29 29 28 29 31 30 28 28 25 23 20 20 23 29 35 44 53 60 65 70 74 79 84
70 66 65 65 68 66 54 61 60 54 49 45 40 44 42 39 40 38 33 31 32 32 32 32 32 32 33 32 31 27 29 28 28 29 29 30 33 37 42 46 51 54 58 61
67 68 68 68 69 63 61 59 58 54 50 46 41 48 45 44 43 39 37 35 36 39 37 35 35 35 35 35 34 35 34 33 33 33 33 35 35 35 37 39 45 49 51 55
72 72 70 66 64 62 58 60 58 59 51 48 48 53 52 47 44 42 42 40 40 41 43 42 40 42 42 36 37 37 39 40 39 40 41 41 43 43 44 48 52 53 54 55
76 74 68 63 64 62 59 63 65 64 52 57 56 55 51 44 44 45 44 44 45 45 47 47 46 46 48 45 44 45 45 43 43 45 47 48 49 50 51 54 59 61 61 63
75 76 69 66 66 62 64 64 70 64 61 62 61 55 48 44 45 48 47 50 50 46 49 51 48 48 49 50 51 52 53 53 51 50 54 56 56 57 59 62 65 67 70 73
73 73 70 65 67 65 68 67 66 66 65 66 62 52 45 46 48 50 52 52 53 52 53 53 51 52 53 54 55 55 58 60 59 58 58 60 64 64 65 68 70 72 73 78
68 71 72 70 66 64 69 70 69 69 66 66 64 64 54 49 49 49 52 54 57 55 58 57 55 55 57 57 58 61 62 63 64 64 64 65 69 69 71 73 75 76 79 82
68 71 70 70 69 68 69 71 72 69 64 66 65 64 64 61 62 63 62 62 62 60 59 58 59 60 61 61 62 64 64 64 66 68 69 71 74 75 78 78 79 81 85 87
65 68 73 72 76 72 69 73 69 68 66 64 68 72 71 67 65 63 61 65 65 62 61 62 63 65 65 65 68 68 67 68 70 71 74 76 76 80 83 86 85 86 90 92

GFSCGP_250_spd_078.txt.gz
Wind_Speed
50 41 43 55 48 45 45 36 38 40 31 27 27 28 29 30 31 34 40 42 34 27 27 30 32 22 32 29 34 28 39 53 60 56 57 53 57 59 58 54 59 60 58 58
52 46 57 53 53 46 41 40 46 41 36 31 30 28 30 28 32 34 40 42 32 26 29 26 23 17 18 22 32 27 35 48 56 59 53 54 55 57 58 54 60 59 58 64
58 53 56 56 53 49 48 45 44 38 34 32 30 27 28 27 31 31 38 41 31 26 26 21 20 21 17 20 21 22 28 40 50 50 49 51 54 62 60 62 59 61 63 66
56 55 55 55 54 55 51 50 43 40 36 36 33 27 27 25 27 28 36 37 30 23 21 19 15 14 11 14 18 25 25 31 39 38 43 47 46 51 57 63 63 62 61 63
58 61 59 57 56 53 50 48 43 40 33 34 36 24 26 24 23 27 31 37 30 21 18 17 10 12 13 14 16 21 24 27 30 33 40 39 36 43 52 56 57 57 58 62
65 66 65 59 60 55 55 48 46 42 37 29 35 27 28 24 24 25 28 34 31 21 17 14 11 10 15 15 19 23 23 25 29 36 38 36 34 37 47 55 56 58 60 58
75 73 70 64 61 58 58 54 50 44 32 35 35 27 27 23 24 23 23 29 28 21 15 15 16 10 9 17 19 20 22 25 26 30 35 38 37 39 39 42 47 47 50 48
76 72 69 65 65 63 63 59 52 49 48 41 34 25 30 24 24 22 21 23 27 20 16 14 15 14 12 10 12 15 21 26 29 29 30 32 33 34 35 38 39 39 40 42
76 73 70 68 68 67 62 57 57 55 48 42 37 35 34 25 26 24 22 20 24 20 16 14 15 14 14 13 14 17 18 20 24 29 32 33 34 36 37 39 41 41 43 46
79 77 76 76 76 75 72 69 67 62 55 52 44 40 39 28 29 26 23 23 20 19 17 14 11 14 17 14 13 13 17 20 22 22 25 29 34 36 38 41 43 44 33 31
81 80 80 81 78 80 78 74 70 64 59 54 40 39 43 35 33 29 26 24 26 20 17 16 12 11 9 11 17 22 23 21 21 22 23 25 26 29 32 34 37 37 42 40
87 85 81 83 84 81 78 73 73 70 66 57 41 41 51 40 39 31 30 27 23 20 19 17 14 7 8 10 9 15 21 28 31 31 29 31 34 34 36 36 39 36 38 41
91 89 90 88 87 82 80 78 76 74 72 60 45 45 53 43 44 39 32 32 24 20 22 18 15 15 10 7 9 10 13 22 29 35 35 35 37 39 43 39 38 36 37 40
82 82 81 84 91 92 90 87 82 81 74 61 49 51 57 45 46 41 36 35 30 24 23 22 20 19 17 13 12 11 10 9 19 26 37 39 39 39 40 38 36 38 39 41
68 65 67 70 78 77 74 72 72 69 63 56 49 55 60 51 49 47 40 32 34 25 28 24 24 24 23 20 19 17 14 12 11 12 23 35 44 42 42 42 40 41 44 46
62 55 59 59 65 67 65 60 54 55 55 49 50 56 61 56 50 48 48 38 35 32 34 34 30 27 27 26 24 24 20 17 16 17 15 15 20 29 39 42 45 46 48 51
55 57 62 59 63 65 55 48 55 54 50 48 52 60 62 57 52 52 51 45 36 36 38 35 30 28 30 29 29 28 27 24 23 20 20 18 19 22 25 27 31 35 39 42
53 60 57 54 61 57 48 58 58 59 55 51 58 64 64 59 58 55 52 49 37 37 41 39 34 33 34 33 32 31 30 30 28 26 27 29 28 26 27 29 31 32 34 37
55 60 66 62 63 59 54 59 60 56 57 57 60 68 67 65 58 53 54 55 45 41 44 45 39 36 36 38 36 33 31 31 31 31 30 32 33 34 36 39 41 41 42 43
50 62 64 56 62 61 58 60 59 55 58 62 62 66 66 64 56 58 59 59 50 47 48 46 43 42 42 43 42 41 39 38 36 36 35 36 36 38 40 41 44 45 48 50
54 61 60 62 65 61 59 62 57 55 65 62 63 65 66 62 61 60 59 63 59 53 48 49 51 53 49 47 47 45 47 46 45 43 42 43 44 45 46 49 51 50 51 53
54 57 60 63 64 58 60 60 58 63 63 64 66 66 65 64 63 64 64 66 68 63 57 52 50 51 51 51 53 52 53 51 50 49 48 52 53 54 55 56 57 59 59 59
54 56 60 58 54 55 55 58 57 62 67 66 66 66 66 65 64 66 65 69 67 69 66 64 57 52 51 52 52 56 58 57 55 54 54 56 58 59 60 62 63 65 67 66
55 56 59 57 56 59 57 59 65 68 69 69 70 71 71 69 67 67 66 67 70 71 70 66 64 58 57 59 56 60 62 63 62 60 59 62 65 65 66 67 68 70 72 73
60 57 60 61 65 61 59 62 67 68 70 72 74 72 70 70 70 67 67 67 68 71 71 72 71 67 65 67 66 67 66 67 68 65 65 68 69 70 70 73 75 75 76 78
60 61 59 63 65 65 66 66 69 72 71 74 74 73 72 72 71 70 68 68 68 68 69 70 72 73 72 72 73 72 69 69 72 70 73 74 73 74 76 78 81 79 80 82

GFSCGP_250_spd_081.txt.gz
Wind_Speed
47 44 40 54 46 40 42 35 37 40 30 27 31 35 33 29 31 33 33 31 36 34 32 21 21 21 18 19 22 21 23 24 27 38 40 48 53 47 53 50 48 49 48 51
48 40 54 53 47 42 39 35 41 45 36 28 34 36 33 29 30 33 32 30 34 35 35 23 20 14 13 16 22 26 28 24 32 38 44 50 56 55 49 52 52 52 55 52
55 52 57 51 48 44 45 39 47 39 33 36 33 35 34 29 30 30 27 30 33 36 35 25 21 15 16 18 20 20 22 27 32 40 43 50 52 51 51 53 54 54 52 54
65 58 59 54 52 51 46 52 44 37 34 35 31 33 34 30 29 29 25 27 32 34 34 25 18 15 18 14 16 20 25 31 33 40 39 40 46 51 52 53 54 52 52 48
64 64 64 56 56 53 53 47 45 38 36 33 35 26 35 27 29 29 25 25 27 32 31 23 15 13 15 12 15 20 28 31 33 35 39 40 41 49 49 46 45 49 53 57
65 64 65 61 58 51 53 51 45 41 43 35 40 23 39 28 31 30 25 23 24 28 32 26 14 11 13 11 13 17 28 29 29 33 32 33 35 36 39 43 47 45 41 44
70 68 68 65 57 57 55 56 52 49 47 36 36 22 34 26 30 29 25 21 23 24 29 27 21 11 9 6 15 19 20 25 25 26 28 29 27 28 28 30 32 32 35 34
71 70 71 68 65 66 64 62 56 52 50 42 34 30 44 31 32 29 25 21 22 19 26 28 23 17 9 6 5 21 23 27 31 31 30 28 30 31 31 32 34 38 36 37
75 66 69 67 65 66 64 60 63 54 49 43 38 31 42 38 31 33 29 25 21 17 20 24 26 16 15 12 11 12 13 20 31 35 34 34 36 36 38 40 38 39 40 41
82 77 74 74 72 69 68 67 66 57 50 48 42 40 42 43 38 37 34 28 23 21 18 19 21 20 11 11 14 15 15 13 16 22 29 34 39 42 43 44 43 44 41 40
82 82 74 72 70 72 72 69 66 61 54 52 48 45 45 48 39 39 37 31 27 24 21 12 20 20 13 8 7 11 17 20 19 18 22 25 29 34 39 43 45 47 45 46
83 84 84 78 75 72 68 66 67 63 61 58 54 51 52 51 44 39 39 36 33 27 26 16 13 18 16 11 10 9 9 13 18 24 25 26 28 30 33 37 41 42 42 41
88 88 85 81 79 77 78 77 74 72 70 59 57 51 52 56 47 43 44 41 38 32 31 23 16 15 17 13 13 14 12 10 10 17 25 30 35 37 38 40 41 40 39 40
81 84 85 85 84 84 77 76 76 74 70 63 59 57 57 58 53 50 47 45 42 40 36 32 22 18 18 14 13 16 17 14 12 12 13 21 25 30 38 41 38 35 36 42
72 72 75 77 82 88 85 82 80 77 72 69 68 65 63 64 59 55 51 50 47 46 38 39 32 21 21 22 19 17 18 17 15 14 15 16 17 23 27 29 32 33 32 33
59 57 66 66 73 79 82 81 79 77 77 74 75 71 68 69 66 59 54 54 45 50 42 40 39 33 29 28 26 23 23 20 19 19 18 20 19 19 18 21 24 28 30 32
55 57 60 60 70 73 74 65 72 71 70 69 69 69 66 67 68 57 59 58 50 53 50 47 42 41 37 35 31 27 26 25 24 23 23 22 22 23 24 25 24 25 27 30
49 53 54 58 64 70 67 66 65 66 67 66 62 61 63 63 67 59 60 61 52 52 53 49 49 44 43 42 37 31 28 29 30 28 27 26 27 29 28 28 29 31 33 36
49 52 52 59 64 65 55 62 64 62 62 59 58 61 63 63 65 60 67 70 62 57 56 52 50 49 46 44 40 34 30 32 33 33 31 31 29 30 31 32 34 35 38 39
48 50 50 52 55 57 52 60 61 54 57 60 58 56 60 63 67 67 72 69 65 58 57 60 56 51 50 45 44 41 35 36 38 41 41 40 39 39 40 40 41 42 42 44
48 50 52 54 55 57 49 55 56 54 60 58 56 55 61 67 69 67 70 70 69 63 60 61 60 57 54 47 44 48 44 45 46 45 47 48 48 47 47 47 50 50 48 49
45 49 52 55 57 56 48 51 52 53 57 58 57 58 64 71 75 72 70 71 71 69 64 63 61 64 61 59 50 48 53 54 53 52 53 54 55 54 53 54 55 58 58 59
43 46 50 53 55 54 50 49 57 56 58 57 57 60 68 70 74 76 75 72 72 71 69 68 66 64 67 61 62 56 53 56 58 55 54 55 57 64 63 60 62 62 66 67
42 44 44 49 51 53 50 51 54 53 54 55 57 57 63 70 73 77 79 74 72 70 70 70 71 72 70 67 67 67 68 67 65 67 67 67 69 69 67 67 67 71 73 74
40 43 46 48 53 52 52 55 53 52 54 55 56 56 65 71 76 76 78 77 70 70 74 72 71 71 71 72 72 71 70 72 71 71 72 74 75 75 73 72 74 78 78 80
45 44 43 45 49 55 56 57 53 52 54 52 57 56 66 73 75 76 77 76 73 74 72 71 73 74 75 74 74 76 75 75 77 78 80 78 78 78 79 81 83 86 86 87

GFSCGP_250_spd_084.txt.gz
Wind_Speed
56 46 42 49 59 48 40 39 42 40 33 33 29 30 38 32 31 29 27 28 34 31 32 32 29 21 20 24 27 31 26 25 23 26 30 28 29 38 49 43 52 54 54 48
52 47 51 58 54 50 42 39 44 38 40 28 29 30 36 35 33 29 28 29 32 28 32 32 25 17 13 13 20 27 28 25 23 32 32 32 35 38 44 44 50 51 48 49
52 50 53 57 56 51 44 42 52 41 42 24 30 29 41 36 28 28 28 27 30 27 31 30 24 17 15 10 15 21 28 27 23 35 39 40 38 39 43 50 49 47 53 49
55 54 57 60 55 49 46 53 48 41 43 31 30 32 43 30 27 25 27 25 27 27 30 29 26 16 14 15 11 18 27 27 30 35 44 44 45 47 49 49 54 55 51 51
65 62 57 55 57 56 52 52 52 46 42 34 34 36 47 34 25 27 26 25 24 24 27 27 27 17 14 15 11 13 24 28 35 37 43 47 47 49 52 51 50 54 51 53
69 68 59 52 60 61 63 57 53 48 42 33 43 32 46 35 27 25 27 26 24 22 23 27 24 23 14 13 9 11 14 24 40 42 47 46 45 49 50 50 50 51 54 53
72 68 67 67 56 62 64 61 55 48 40 36 45 31 40 41 30 27 24 23 24 21 23 25 21 25 15 13 10 11 18 25 33 36 47 47 43 46 44 44 47 46 47 47
69 69 68 67 64 69 65 58 58 52 48 44 41 38 41 45 36 34 31 30 24 23 22 23 22 20 19 12 12 16 18 21 33 33 41 40 43 46 43 40 48 44 43 46
66 70 70 67 65 64 62 57 57 55 52 48 44 42 42 52 41 39 38 33 26 26 24 23 26 15 20 15 14 14 19 23 29 31 34 38 38 43 41 45 43 45 47 48
60 65 69 74 70 70 67 66 62 63 60 54 49 45 42 55 44 40 37 32 29 29 28 24 23 15 17 18 12 13 15 20 30 35 36 36 37 39 42 43 48 46 45 47
64 65 65 70 71 75 72 68 66 65 54 51 50 50 44 56 49 45 45 40 38 32 29 27 25 16 10 13 13 8 13 18 21 26 34 41 40 42 44 44 45 47 50 51
71 69 72 71 74 75 66 65 64 58 56 57 56 49 48 55 56 49 47 45 43 34 31 33 28 19 13 10 12 10 6 6 18 25 26 28 35 42 49 50 51 52 53 52
73 71 72 74 78 79 80 80 75 72 71 63 58 55 55 51 59 53 51 46 46 35 34 34 32 30 21 16 13 14 10 7 6 6 13 23 30 34 35 37 39 43 44 46
76 76 77 76 77 80 81 84 82 81 75 66 53 59 58 58 64 60 57 53 50 42 36 38 36 36 32 24 19 19 19 11 7 7 6 4 9 19 26 30 34 36 34 36
78 81 83 82 83 85 83 80 80 77 69 69 62 61 60 61 68 65 65 63 55 45 40 42 41 37 39 33 26 23 21 20 17 12 10 11 12 12 11 10 17 24 23 29
80 82 83 83 88 88 85 87 84 80 76 75 76 72 69 66 70 69 65 65 61 50 46 45 45 43 43 45 36 29 29 26 23 21 17 17 16 16 18 19 18 17 16 15
68 74 76 75 79 81 81 87 86 84 85 79 76 72 72 72 72 74 75 72 68 61 54 49 50 46 47 48 45 43 36 33 30 28 26 24 23 22 22 22 23 23 22 23
63 66 65 64 74 74 76 80 82 81 80 79 81 82 82 80 78 79 80 75 70 66 60 49 53 52 48 52 49 45 43 41 37 35 33 30 28 28 28 28 28 27 29 29
60 55 57 59 68 67 68 73 77 77 76 77 75 78 78 77 75 78 82 75 70 66 64 54 57 58 55 52 52 50 48 44 41 41 40 37 35 33 34 34 34 34 35 36
50 50 49 54 59 60 65 69 69 69 68 66 69 71 71 72 72 75 74 72 68 61 60 58 61 61 61 58 54 53 51 50 46 44 45 43 41 39 41 42 44 45 45 46
47 46 47 49 52 54 58 61 63 61 58 61 60 61 63 65 66 66 68 67 59 57 59 64 64 61 57 59 55 55 46 51 55 51 46 48 45 45 46 47 49 51 53 54
41 42 44 49 49 52 54 58 59 58 51 53 58 59 58 60 62 63 64 63 60 59 62 67 69 67 61 60 59 58 59 58 57 57 54 47 53 54 52 52 53 56 58 60
38 41 41 43 49 51 53 55 57 59 49 53 56 51 54 58 58 60 63 63 61 61 64 68 71 74 70 64 61 63 62 65 61 61 57 56 54 53 55 57 61 66 70 72
41 42 43 44 49 51 56 56 57 56 50 52 54 52 52 54 55 59 63 61 62 65 68 71 74 75 74 73 69 65 65 65 64 62 66 68 69 72 73 75 77 79 76 76
40 41 42 44 47 50 52 53 57 54 49 49 53 55 52 51 53 59 64 64 65 66 68 70 73 75 74 76 76 74 71 69 69 70 67 66 69 71 73 74 76 79 78 80
40 41 41 40 43 48 50 50 52 52 50 45 52 55 52 51 54 57 64 68 68 68 67 69 71 70 70 73 77 78 76 78 76 76 75 76 77 78 78 81 83 84 84 83

GFSCGP_250_spd_087.txt.gz
Wind_Speed
98 91 82 80 67 53 57 54 50 49 44 37 33 35 42 34 32 30 31 35 31 30 29 30 32 37 38 32 27 27 30 34 37 39 44 37 35 27 43 49 57 60 56 53
97 86 86 76 61 55 53 56 50 52 46 37 40 36 38 36 33 24 29 31 30 28 27 28 31 35 37 30 25 25 31 37 37 41 45 38 35 31 33 42 50 47 52 53
91 86 76 68 59 54 46 48 52 54 51 34 39 36 39 41 32 23 26 27 26 27 26 26 28 33 35 26 19 22 25 31 40 40 46 42 36 37 35 41 46 47 46 47
88 72 68 62 56 60 51 55 53 52 50 43 39 36 41 43 31 27 25 28 25 25 26 25 25 30 32 26 20 15 21 22 36 36 43 41 38 37 35 44 46 49 52 52
68 66 60 59 56 62 57 57 54 54 51 39 36 36 43 44 36 28 29 27 26 24 27 24 25 25 30 27 21 14 15 24 36 33 39 40 42 41 40 48 49 49 51 53
62 57 55 59 60 59 58 54 52 54 53 47 40 42 41 48 44 30 27 29 26 26 24 23 24 23 28 28 21 14 9 21 31 34 37 44 51 49 48 52 54 55 55 53
60 53 58 61 62 62 53 63 55 58 51 42 47 44 43 52 38 29 29 29 29 25 21 23 24 23 26 26 23 15 11 17 29 38 40 51 52 53 55 56 55 60 59 59
57 57 61 65 65 64 63 61 56 56 52 52 51 44 41 48 43 34 29 31 33 29 27 25 23 24 25 24 23 18 11 18 24 39 43 50 56 56 57 60 57 60 60 58
59 63 62 70 70 73 68 62 57 55 56 59 54 50 47 52 49 39 39 33 34 34 34 28 23 24 27 19 22 15 13 13 18 35 42 47 54 55 54 56 60 63 63 63
62 67 67 71 69 75 67 66 59 53 59 58 53 52 59 52 50 44 42 38 34 36 34 28 23 23 28 19 16 17 12 12 16 24 38 44 46 57 55 50 53 59 57 55
64 66 67 69 68 75 78 71 62 63 57 60 54 55 55 51 53 52 46 41 39 37 37 33 29 27 26 22 13 16 14 11 14 18 33 38 41 50 55 52 54 51 54 52
61 65 64 64 72 71 73 73 63 65 59 59 60 59 57 56 59 58 49 45 43 40 42 38 36 31 28 25 18 12 14 12 9 16 21 36 44 44 44 48 49 56 55 57
62 64 63 66 62 60 72 74 70 67 71 66 67 61 64 60 63 59 56 47 46 41 43 43 38 32 34 24 25 19 12 12 13 11 13 25 29 35 46 47 45 49 51 53
64 65 66 70 69 60 58 67 78 76 74 70 71 74 74 73 62 59 58 53 49 46 46 46 43 37 35 35 25 30 23 17 16 16 13 12 14 24 34 37 41 47 54 58
66 65 67 71 75 72 70 67 68 65 70 75 76 75 69 62 63 63 61 57 55 54 51 49 49 41 37 41 35 30 36 29 22 21 20 17 16 13 13 15 18 24 33 38
65 69 69 73 81 77 71 77 79 72 71 66 67 67 69 70 71 69 74 65 60 58 57 50 47 44 42 43 43 34 33 37 32 29 27 25 23 22 20 19 19 19 20 20
68 74 77 80 81 85 83 79 74 77 81 78 77 75 78 78 77 72 72 67 61 58 58 58 51 49 47 44 46 48 42 38 42 39 33 33 33 30 29 27 26 25 25 25
75 79 81 80 81 78 82 83 85 83 80 81 79 78 78 80 78 71 74 72 69 69 68 65 59 53 51 49 47 53 51 44 43 43 43 42 41 38 36 35 33 32 32 33
72 71 72 74 77 81 82 82 84 82 83 86 86 85 85 85 84 80 78 73 77 73 70 66 64 58 56 55 52 53 58 56 47 43 43 42 39 39 43 41 40 38 38 39
68 70 70 70 76 76 74 73 76 78 77 82 83 82 84 85 87 88 82 78 84 81 77 72 69 67 64 63 61 56 61 61 58 51 45 45 48 47 45 43 47 48 46 44
63 64 65 68 67 66 67 65 69 68 69 70 72 73 74 78 80 81 81 83 87 90 88 84 81 76 72 69 63 61 61 64 62 57 53 52 47 51 52 48 48 48 54 50
52 52 55 57 57 58 54 57 63 63 63 57 70 68 64 63 69 72 74 76 78 80 82 79 75 71 65 65 62 59 60 63 66 67 65 60 55 53 54 57 56 52 51 57
44 47 51 49 50 45 49 52 56 57 58 58 62 61 56 54 63 61 65 66 67 69 73 72 69 64 61 60 58 58 60 62 58 63 65 61 59 60 61 61 64 68 69 69
44 47 46 47 46 47 50 50 53 55 55 55 57 54 55 56 57 55 58 59 59 61 64 64 62 59 56 57 55 61 62 63 62 56 57 62 65 63 61 60 61 65 66 67
43 45 45 43 44 48 47 49 52 55 57 56 57 55 55 54 53 55 55 56 56 57 58 58 57 53 51 55 56 60 64 67 70 66 65 66 64 66 67 66 69 72 70 71
41 43 42 41 43 43 44 47 50 55 57 57 56 56 55 52 52 55 54 57 55 54 53 51 52 52 47 39 40 56 64 70 73 78 78 77 75 75 75 77 77 79 80 84

GFSCGP_250_spd_093.txt.gz
Wind_Speed
95 90 88 91 91 91 88 88 87 83 82 84 85 78 64 44 47 50 44 40 38 34 33 38 35 32 38 38 34 30 30 33 28 28 32 38 41 41 47 43 44 56 63 64
92 87 92 92 91 91 90 90 89 84 87 90 84 62 48 42 35 46 44 37 36 29 32 31 30 29 33 30 29 27 27 34 34 24 28 35 44 45 44 51 49 51 61 63
87 87 92 92 92 93 91 94 93 93 93 78 78 52 46 38 34 39 40 38 35 29 28 28 28 32 34 29 27 24 27 31 36 32 28 36 47 46 44 45 50 53 52 62
91 92 93 93 94 96 96 100 98 89 77 60 72 39 39 38 36 39 34 35 37 31 28 29 26 28 30 26 24 24 26 31 36 31 26 30 43 51 47 45 43 48 54 54
93 99 103 100 101 103 100 103 96 79 74 50 58 46 40 38 41 38 39 38 35 33 28 30 29 25 28 26 23 23 26 30 36 31 21 21 40 46 49 41 41 41 46 55
94 99 103 104 101 96 93 96 90 66 64 39 58 47 33 37 41 37 41 35 33 33 34 33 32 23 25 25 22 22 25 29 35 28 23 22 29 42 43 47 43 42 46 46
101 99 100 103 103 96 92 89 65 57 52 42 53 43 35 42 43 43 43 37 29 32 34 31 29 23 24 20 21 22 22 28 29 26 22 20 22 37 39 44 44 43 45 48
95 93 97 99 87 85 82 66 57 53 47 44 45 37 45 52 43 45 42 36 30 35 36 30 28 23 27 27 22 22 21 26 24 25 20 18 21 31 35 38 43 46 42 41
89 84 86 85 73 70 66 52 53 48 46 41 44 47 50 53 49 43 42 37 30 32 34 30 31 27 26 28 28 23 24 25 25 22 19 18 22 28 33 37 42 48 47 42
81 75 76 71 64 60 52 50 49 41 40 39 50 50 51 51 52 50 46 47 33 34 33 32 30 32 27 27 31 27 25 24 24 20 19 16 23 31 35 38 41 47 46 48
72 65 67 59 56 52 45 42 43 40 40 44 55 54 51 51 53 53 47 43 41 41 45 31 31 34 28 33 34 33 26 24 22 23 17 15 13 28 37 41 43 49 49 49
57 53 53 46 44 42 41 39 42 39 42 49 60 59 55 50 54 50 49 46 47 48 45 36 33 37 37 39 35 32 31 24 22 23 20 16 12 12 25 41 46 48 47 50
48 46 46 39 42 45 41 41 42 43 49 52 59 57 53 53 49 49 49 56 52 46 49 40 38 43 44 45 35 36 34 28 24 23 23 23 16 11 11 21 38 40 48 51
41 40 42 42 40 40 35 38 40 44 43 53 51 58 63 59 56 50 56 62 48 47 46 40 41 45 48 47 45 39 36 29 27 27 22 22 24 20 14 14 14 30 45 48
39 40 43 44 40 39 38 40 43 45 49 54 58 57 61 63 61 54 50 52 50 46 43 45 44 49 52 46 47 41 39 36 31 31 33 22 24 28 24 19 17 18 17 21
43 45 43 45 42 41 39 43 44 46 50 55 61 58 63 61 56 53 58 62 60 51 53 50 43 40 43 48 49 48 44 41 35 35 39 39 26 27 31 29 26 24 22 22
46 45 44 46 40 40 47 52 53 52 51 58 60 60 62 64 59 57 58 62 65 60 42 44 48 55 50 49 49 49 48 41 44 43 42 40 43 35 30 32 37 33 31 30
47 44 44 47 42 45 53 51 55 58 58 53 50 57 58 63 68 69 66 63 63 62 57 57 56 55 57 56 52 55 51 48 45 46 38 39 42 45 42 37 35 36 42 42
45 42 45 48 48 52 55 51 56 58 59 56 53 51 58 62 69 74 77 73 69 69 66 69 71 71 70 63 56 58 52 50 52 46 46 47 47 49 48 49 52 48 45 42
41 43 43 47 52 55 52 53 54 55 53 52 56 54 55 61 66 69 72 77 76 76 77 78 74 71 70 67 66 56 56 58 59 51 50 47 49 50 54 56 59 61 59 56
43 42 45 46 50 57 56 55 55 59 61 61 59 61 61 60 60 63 65 73 77 79 78 78 78 73 73 67 66 66 65 61 53 54 53 55 55 54 54 56 58 60 61 60
39 38 40 42 49 55 56 58 58 63 59 61 64 65 67 69 68 70 71 70 69 68 70 75 72 70 69 69 68 67 67 65 61 58 58 61 63 61 62 65 64 67 66 68
38 39 40 44 49 54 55 56 57 61 58 57 63 69 70 69 70 73 81 80 78 81 83 87 88 86 86 85 86 87 84 82 77 72 66 64 66 65 66 70 71 71 68 64
37 38 42 43 45 51 57 57 60 57 56 52 59 66 68 73 77 78 86 84 81 81 86 84 86 87 82 80 78 74 75 80 82 86 87 79 75 75 74 74 67 70 75 70
36 39 41 40 40 42 50 56 58 60 58 56 53 57 61 66 68 72 75 74 75 76 74 71 68 65 63 62 61 62 59 56 63 66 71 71 72 75 79 81 78 76 72 67
36 37 39 38 39 42 43 47 49 51 54 56 57 58 58 60 63 67 69 69 70 70 65 64 63 61 58 59 57 59 56 55 54 59 60 63 65 67 67 70 70 70 71 68

GFSCGP_250_spd_099.txt.gz
Wind_Speed
86 83 79 81 82 81 89 88 84 81 80 81 78 75 76 76 74 75 73 68 51 51 53 55 54 46 41 33 36 33 32 28 31 31 28 28 26 30 34 23 34 37 46 45
87 82 85 84 85 79 78 81 84 85 86 85 80 72 71 73 72 69 68 62 51 54 54 55 54 43 40 31 37 31 29 28 31 30 28 29 27 31 32 25 30 40 47 45
87 84 84 86 85 85 79 81 84 86 86 83 79 71 73 72 72 71 66 62 53 56 56 58 53 40 44 31 37 31 28 27 31 28 27 26 26 29 30 28 28 45 46 53
90 92 91 89 88 90 86 83 85 85 87 84 83 72 73 73 69 70 68 64 58 58 63 59 46 43 47 32 36 31 29 26 31 25 25 25 26 30 27 24 29 47 49 51
87 93 95 90 88 91 83 88 81 82 84 84 82 80 65 68 68 71 71 69 68 67 64 56 43 48 53 33 38 32 31 24 27 24 25 24 25 29 23 23 24 45 49 48
92 90 88 90 91 88 86 84 81 79 81 77 80 80 65 71 77 76 73 72 69 59 55 49 45 46 46 37 40 35 28 23 24 24 24 23 24 26 24 18 21 34 49 49
97 96 92 91 89 84 82 83 81 82 81 73 80 76 72 74 77 72 71 70 66 59 55 50 44 46 48 39 42 36 26 24 22 25 23 25 23 25 23 15 15 25 42 43
94 88 87 88 83 84 82 85 79 76 74 74 76 65 66 68 66 64 63 60 53 51 51 47 47 47 45 41 40 36 29 27 23 24 23 26 25 22 23 10 5 17 30 36
81 75 82 81 82 84 81 80 80 81 75 71 65 61 60 63 62 57 53 47 44 45 49 45 49 49 41 41 38 34 32 28 27 21 20 25 25 23 21 10 3 9 21 30
90 86 86 85 83 83 83 83 82 77 72 69 60 60 60 64 52 46 44 39 40 46 48 57 56 50 44 38 38 35 27 30 29 19 19 23 25 23 17 16 6 12 16 22
97 87 90 87 84 84 82 80 84 82 72 65 60 55 64 48 41 38 35 37 43 48 53 54 60 55 43 37 35 30 25 28 28 19 21 26 24 23 18 14 14 11 15 20
80 83 83 90 88 88 89 88 93 79 77 60 52 48 45 37 39 35 39 43 47 52 54 53 54 50 43 40 35 35 28 34 31 26 23 21 23 22 21 15 13 12 14 21
69 74 82 89 90 91 95 81 77 74 62 55 46 40 38 37 39 46 47 50 54 55 53 53 49 45 49 43 35 33 34 28 28 28 26 22 24 26 23 20 15 14 13 15
60 66 70 76 72 74 68 62 62 59 52 45 41 42 37 37 43 47 42 45 55 52 50 51 50 49 44 41 32 30 30 27 28 30 27 25 25 25 28 27 24 20 18 15
62 62 63 59 56 58 60 54 52 47 42 40 41 43 44 43 50 56 56 42 47 54 52 56 54 48 50 41 39 33 30 25 30 30 29 30 31 28 26 30 30 26 25 24
54 56 48 47 52 52 51 46 39 39 37 42 43 46 48 49 55 55 59 59 51 59 56 58 54 52 48 45 40 37 35 34 33 33 34 32 31 29 30 30 35 34 31 30
51 51 43 48 47 48 43 38 36 36 41 43 46 50 54 59 58 54 64 65 55 54 60 63 60 48 51 51 44 44 36 33 34 34 36 35 34 32 26 25 29 33 38 38
48 46 48 47 46 45 40 37 36 41 43 45 49 54 55 64 67 66 64 61 60 56 58 62 61 59 55 49 46 44 43 40 38 40 40 41 38 37 35 33 31 32 32 37
44 44 44 45 48 45 42 35 39 45 47 49 52 58 61 64 67 62 68 61 59 66 59 59 58 65 60 54 51 49 47 47 43 46 48 48 44 40 39 40 40 42 45 44
47 48 44 46 46 45 44 40 43 46 49 55 58 64 66 68 75 73 72 71 58 56 61 65 62 64 65 59 58 55 54 53 54 55 49 50 55 55 52 47 45 51 50 53
52 49 46 45 44 45 45 44 46 49 54 54 58 68 67 66 76 81 71 59 62 56 56 62 60 60 58 55 56 57 58 60 58 55 53 57 60 61 59 58 60 63 57 55
51 48 48 45 44 47 48 47 49 51 55 56 58 62 71 68 62 70 80 76 73 77 70 64 60 64 63 61 60 62 63 60 58 60 60 62 64 67 65 69 69 65 64 65
45 41 44 46 47 49 49 48 49 51 53 57 60 61 66 71 66 63 58 56 60 73 68 64 66 66 65 67 69 71 72 67 65 65 63 66 71 74 71 71 70 69 66 62
44 47 46 49 49 48 49 51 52 53 54 57 61 65 68 69 73 72 66 64 64 65 68 70 71 72 73 72 70 69 71 71 68 68 67 66 69 73 73 71 71 66 66 69
47 45 48 50 49 49 50 52 53 54 56 56 58 63 68 71 72 74 74 71 70 72 73 73 74 73 75 75 75 77 77 77 75 70 68 69 69 71 70 72 75 74 70 71
37 38 44 47 49 50 53 53 55 55 56 59 61 61 63 67 70 72 73 74 76 77 77 78 77 76 77 77 77 78 77 78 78 78 75 77 77 78 80 81 83 84 86 86

GFSCGP_250_spd_102.txt.gz
Wind_Speed
102 101 92 89 88 88 85 84 81 78 74 73 74 73 76 76 71 69 67 64 65 66 66 64 57 53 47 52 50 49 35 38 32 31 32 33 33 26 27 29 32 25 34 39
103 96 94 88 87 88 91 89 77 74 75 73 72 58 64 71 75 73 71 68 66 64 61 57 57 47 50 52 49 47 35 39 31 30 30 32 30 25 25 28 32 27 31 47
98 91 89 93 89 87 90 82 78 76 78 76 71 58 61 64 64 68 67 70 70 66 59 57 53 47 50 53 52 46 35 39 29 29 29 32 27 25 26 29 33 28 31 49
87 84 86 83 82 84 81 81 83 81 80 75 77 67 66 68 65 68 73 72 66 62 60 62 55 47 51 54 53 44 35 37 28 28 30 27 22 23 27 29 33 28 31 49
86 84 86 80 82 80 77 81 81 82 84 83 79 74 65 66 70 73 70 69 68 66 65 53 52 51 54 56 53 41 36 36 29 26 31 24 22 23 27 28 31 24 30 49
88 83 82 80 84 84 84 81 85 84 81 78 76 77 70 68 64 67 63 64 66 63 61 58 57 56 57 56 50 37 39 35 30 27 30 23 22 24 25 28 30 21 28 48
90 86 84 88 89 90 90 89 89 89 84 78 79 80 74 66 63 54 63 70 67 65 63 64 62 59 55 54 52 36 39 34 31 29 28 22 24 23 25 27 28 21 24 38
83 84 88 92 93 95 92 89 87 88 88 82 80 76 67 63 60 62 66 70 72 70 67 66 62 59 51 52 48 36 39 37 34 32 29 21 20 20 20 24 25 19 22 34
79 83 83 86 88 92 91 89 91 93 90 89 85 75 67 63 63 63 61 63 65 59 58 58 54 52 54 49 48 41 43 39 36 31 28 23 19 20 17 20 24 13 14 24
75 77 80 85 85 86 89 91 89 87 81 82 73 69 67 67 63 59 54 52 51 52 55 57 47 49 45 49 46 43 43 40 33 29 28 22 17 22 19 16 19 14 8 14
78 78 81 80 81 85 85 85 84 79 75 75 70 68 67 67 65 59 51 49 53 58 49 43 45 44 45 45 42 41 41 34 35 26 27 23 20 23 21 15 16 15 14 14
86 81 80 81 80 81 82 81 82 83 83 82 82 69 68 67 64 57 41 47 46 46 35 36 40 39 46 46 41 42 38 36 29 26 26 26 22 23 22 19 18 16 9 17
92 90 89 92 91 86 87 86 89 85 89 77 75 72 69 57 59 41 41 40 39 33 33 36 39 49 50 46 41 41 39 33 31 28 27 33 27 24 21 20 18 18 17 12
78 83 88 93 97 95 92 94 93 87 75 70 68 63 52 59 46 37 39 36 32 32 36 43 48 50 48 43 39 40 39 37 32 33 32 29 27 25 20 22 20 18 21 21
66 65 67 68 75 80 76 72 70 66 62 61 57 50 50 48 37 35 40 36 32 42 40 50 45 45 45 45 45 44 38 35 29 34 31 29 28 28 24 24 23 25 22 24
61 62 61 63 66 64 60 57 55 52 50 46 42 44 45 41 36 44 46 53 44 41 45 49 47 49 49 47 47 44 41 36 32 33 33 33 30 29 28 27 27 25 24 24
56 55 55 57 56 55 55 49 47 44 40 39 39 38 40 39 41 54 51 46 52 55 52 47 51 54 52 46 46 45 43 41 40 38 38 36 35 36 34 31 29 25 22 23
51 50 52 52 50 47 49 47 42 38 38 39 37 38 39 36 47 53 57 53 54 51 54 51 54 54 53 51 51 52 51 47 48 42 40 39 40 40 41 41 39 34 33 31
47 48 50 50 46 45 49 45 38 35 35 36 36 39 39 40 54 57 65 51 50 46 55 61 57 59 60 57 55 52 54 52 52 47 44 42 48 48 45 41 43 41 39 37
43 45 45 45 43 48 48 42 38 37 35 35 37 40 43 47 59 69 69 61 56 59 59 60 63 62 65 64 59 55 56 53 54 56 54 55 54 51 49 47 46 47 47 46
43 44 44 44 46 48 47 44 41 37 36 36 39 43 46 50 62 69 81 70 66 60 63 61 54 60 65 65 64 62 56 55 54 56 58 58 54 51 51 52 50 53 54 56
43 43 43 44 46 46 44 42 40 38 39 40 42 46 50 54 66 71 76 75 78 76 69 66 69 66 65 62 66 68 65 63 61 62 61 59 58 60 62 63 62 62 59 57
45 45 47 46 46 43 43 42 41 43 44 46 47 49 54 55 69 72 75 71 70 75 68 70 61 62 56 60 60 69 70 68 68 68 65 71 69 68 66 66 64 64 64 68
43 46 47 44 45 43 41 40 43 46 47 48 50 52 56 60 62 78 82 80 73 69 65 65 68 72 72 73 69 70 65 68 69 70 71 70 68 70 72 70 71 73 74 75
42 43 44 43 41 44 41 43 45 48 48 52 53 55 56 62 68 71 82 84 82 81 78 77 72 75 79 72 68 67 71 77 77 75 74 74 71 73 74 74 75 76 77 80
40 42 45 40 43 46 46 46 47 51 52 55 57 58 58 64 65 71 82 84 88 88 84 79 81 82 80 78 78 80 81 78 76 77 76 79 78 76 75 74 73 77 78 79

GFSCGP_250_spd_105.txt.gz
Wind_Speed
102 103 98 103 100 97 93 92 88 88 91 87 80 75 73 72 67 67 68 66 66 67 70 72 66 61 57 54 52 50 48 39 40 40 36 34 33 31 32 30 27 23 23 22
102 97 101 102 101 101 99 95 92 90 90 91 86 77 76 73 68 68 67 67 65 59 53 58 66 63 56 54 54 52 45 39 37 41 33 34 34 31 32 31 27 23 26 24
95 96 99 100 103 102 102 99 95 91 92 90 87 78 74 75 74 68 68 66 63 59 58 56 55 55 55 57 56 52 48 42 36 45 35 33 33 32 30 27 25 24 28 30
83 86 90 95 97 95 91 88 93 93 95 90 84 74 74 74 74 70 69 66 64 64 61 59 55 54 54 54 54 52 46 42 35 45 36 32 31 31 28 25 24 25 30 34
79 81 82 86 85 94 88 89 92 96 92 80 76 74 68 64 67 70 70 68 66 61 59 59 55 56 53 55 53 53 47 43 34 42 35 33 29 28 27 25 24 25 30 34
78 80 79 81 83 83 78 79 84 81 68 73 70 72 64 59 67 72 71 67 64 56 59 49 50 51 54 55 55 53 48 45 33 40 34 34 29 26 27 27 28 28 32 33
80 77 78 81 83 84 82 82 82 80 77 73 69 67 57 60 67 70 70 67 64 63 50 46 45 48 51 52 49 52 52 45 36 38 35 34 30 25 23 21 24 26 31 30
76 75 76 78 79 81 81 81 80 76 73 74 71 65 66 67 72 74 70 70 69 65 54 42 43 50 55 57 54 55 53 47 37 37 38 35 33 26 23 18 22 24 28 27
76 73 75 80 80 81 80 79 80 79 73 71 69 73 76 74 74 74 74 75 71 70 54 44 52 56 61 65 62 59 54 48 39 38 41 37 33 30 25 17 22 23 25 24
81 75 74 73 76 79 80 81 79 77 74 74 74 75 76 79 77 77 76 74 71 60 53 51 49 55 57 60 54 55 54 46 41 40 43 38 35 31 23 19 22 22 21 20
88 84 79 75 74 73 73 80 85 83 80 81 80 81 82 79 78 77 77 65 58 54 51 45 46 52 55 55 57 55 55 46 46 43 44 39 36 31 21 19 20 19 18 17
90 88 88 84 81 76 72 70 75 76 75 74 73 72 74 77 78 72 65 62 55 56 52 49 51 57 52 47 47 50 50 45 49 43 42 39 35 29 22 19 18 18 15 15
87 90 90 87 85 83 77 71 69 71 72 68 71 75 77 75 71 67 68 67 59 47 51 55 50 38 39 42 45 46 40 46 45 42 43 40 32 28 28 22 21 19 16 15
74 82 86 88 88 88 85 77 71 70 70 68 66 68 69 71 72 71 69 65 43 48 51 48 34 30 31 33 35 39 42 45 41 43 40 39 33 30 32 27 26 21 21 19
64 66 70 75 78 80 84 84 78 74 72 72 74 75 77 74 74 76 67 48 44 51 43 28 27 21 29 32 37 39 41 40 39 35 38 37 35 34 33 31 26 24 22 21
61 58 59 63 70 72 73 79 82 82 80 79 83 83 78 65 64 54 47 41 39 39 38 38 24 36 26 36 39 40 38 40 39 41 41 42 39 38 36 33 29 31 27 25
56 55 56 57 63 66 70 76 79 81 77 71 63 60 54 47 42 39 38 37 38 41 41 45 50 54 37 39 39 40 39 43 43 44 45 45 42 32 34 34 34 34 32 29
51 52 53 53 55 59 58 61 61 58 53 52 51 48 37 36 36 34 37 38 41 43 36 42 40 41 38 42 45 46 45 44 44 45 47 41 40 38 40 42 42 40 38 37
46 45 48 51 53 54 57 57 53 49 48 46 43 39 37 36 33 37 38 42 51 50 44 48 45 43 44 46 47 46 50 47 44 46 50 46 44 45 48 48 47 46 44 42
38 41 45 46 48 50 50 48 46 46 42 39 37 35 30 32 35 38 46 62 62 56 52 49 51 46 47 48 45 50 53 57 53 52 43 55 53 44 49 53 53 46 46 44
35 41 43 44 45 46 46 45 47 41 37 36 36 33 34 35 41 51 59 69 63 64 62 56 52 49 53 42 54 60 62 57 58 58 57 56 53 54 56 55 53 50 49 48
38 41 42 44 47 46 43 46 45 40 40 40 39 36 36 38 44 63 70 68 66 58 71 69 65 66 64 65 58 58 62 61 60 60 61 62 59 56 56 57 56 57 55 55
41 39 38 41 44 43 44 46 43 40 40 40 40 39 39 40 45 65 70 70 61 60 59 65 71 70 70 67 68 69 65 62 59 59 60 65 62 58 58 59 59 61 60 61
40 40 40 40 41 41 42 41 39 37 39 42 43 42 42 41 43 61 77 75 67 63 65 62 69 61 67 71 71 72 66 61 65 68 65 63 64 64 65 65 67 70 70 71
38 39 39 40 41 41 40 39 38 38 41 44 44 44 44 44 44 54 71 81 78 67 67 70 65 71 62 65 72 74 73 73 78 74 71 71 75 75 75 74 73 73 76 78
35 36 33 35 38 41 40 39 41 40 42 46 47 46 45 47 47 51 63 84 85 77 72 71 73 77 69 67 66 64 68 72 67 73 77 78 79 82 83 84 83 81 81 81

GFSCGP_250_spd_108.txt.gz
Wind_Speed
95 100 97 91 99 98 97 91 89 89 93 92 88 87 81 77 75 75 71 71 71 71 70 68 57 58 60 59 60 59 59 59 52 47 47 47 46 39 38 31 31 32 33 29
90 80 88 95 100 101 97 93 90 92 91 93 94 89 88 82 79 80 79 78 75 73 70 64 60 61 61 57 52 52 55 55 51 48 48 50 47 39 39 33 31 32 33 30
82 86 91 92 98 102 97 92 91 92 92 90 92 85 85 88 84 85 83 82 76 73 70 69 66 61 55 53 53 53 54 53 52 45 48 50 49 39 38 34 31 32 32 29
80 83 86 87 88 96 98 97 98 95 92 78 92 87 85 82 83 85 85 81 76 75 72 70 72 65 58 57 56 56 56 51 52 45 44 48 46 40 37 35 31 33 30 28
84 85 88 84 84 89 89 97 94 94 92 93 84 85 84 80 84 85 85 84 79 75 65 65 62 60 59 61 55 56 57 53 52 48 42 45 46 39 37 35 31 33 29 28
79 82 83 82 80 82 87 88 87 94 93 90 82 85 81 77 79 81 84 81 78 74 66 63 57 57 60 56 58 56 55 53 52 48 43 43 46 38 38 35 30 32 29 31
74 82 82 79 75 72 74 81 84 86 84 79 82 83 74 70 71 70 70 75 72 64 57 56 56 58 54 55 57 54 54 52 50 49 45 43 44 37 38 35 28 27 26 28
72 78 81 78 73 71 69 70 72 75 71 74 74 74 77 63 64 67 71 68 65 57 55 53 57 56 52 54 56 54 52 52 50 47 43 42 41 38 38 36 26 21 19 23
68 72 79 82 74 71 71 65 72 71 65 74 65 66 66 69 66 67 68 67 61 60 59 57 54 52 53 55 58 56 55 53 53 50 45 44 38 41 40 37 27 25 25 22
65 69 81 83 78 72 70 72 70 70 67 71 69 70 71 75 72 73 73 66 65 65 66 65 56 56 56 57 55 56 58 58 60 58 52 46 38 43 43 37 29 28 26 25
64 68 75 86 82 73 71 69 68 74 73 70 70 73 73 77 73 71 70 70 70 72 68 66 62 61 58 53 55 54 59 59 58 59 54 46 42 45 44 37 28 26 23 21
62 65 70 82 84 76 74 72 69 67 69 72 73 73 71 75 74 71 67 66 67 70 70 69 61 59 49 52 54 58 60 60 58 59 53 42 47 47 44 37 28 27 23 19
63 66 70 80 88 82 75 72 70 70 69 71 73 74 72 75 73 72 70 70 72 74 69 63 61 58 56 66 62 59 62 61 59 58 49 44 49 48 45 38 31 29 21 19
61 61 66 73 82 88 80 74 71 67 63 64 67 67 70 76 78 76 72 66 64 65 63 58 56 57 57 55 56 57 54 53 51 45 46 49 48 49 44 38 34 30 25 22
57 59 61 66 73 83 85 77 72 70 68 66 67 67 62 61 61 63 60 56 56 59 52 53 56 60 45 50 43 43 42 41 40 42 43 48 51 47 45 37 34 37 30 24
52 55 57 59 65 76 86 83 79 77 75 73 74 74 70 65 62 63 62 60 60 60 56 56 47 29 19 21 27 26 28 29 32 37 47 49 50 47 45 35 33 37 35 29
50 52 53 54 59 69 78 84 84 82 80 80 79 78 79 75 73 70 64 62 62 63 48 29 21 7 18 17 18 23 26 31 40 48 45 46 45 42 39 36 35 35 37 36
47 50 54 54 54 59 66 74 78 81 80 78 75 72 73 74 74 71 60 59 50 40 34 42 34 19 22 25 16 26 35 40 44 40 38 37 40 40 39 40 40 36 36 37
44 48 51 54 55 54 55 58 60 61 62 61 60 59 59 60 61 55 44 45 37 36 38 55 45 19 24 33 28 33 39 40 40 40 37 41 43 45 47 47 46 42 42 42
41 44 47 49 52 53 55 55 54 53 54 51 53 52 50 49 46 41 42 40 36 38 52 64 60 56 48 33 35 42 42 38 39 44 43 43 46 51 51 50 53 51 48 47
37 37 41 44 48 51 52 56 54 52 50 47 49 45 44 41 41 41 38 41 39 42 65 65 69 65 43 35 36 48 49 47 45 34 44 39 41 48 52 52 55 60 57 54
31 33 37 44 46 47 47 50 47 50 49 46 43 39 39 38 40 38 41 43 48 57 68 61 65 55 51 60 49 55 54 51 47 59 58 51 51 52 47 52 55 60 57 58
28 33 38 42 41 42 43 44 44 44 44 42 40 39 39 38 38 39 43 53 60 66 67 60 67 63 56 46 56 59 59 52 58 60 61 60 60 56 56 56 57 58 56 55
31 35 37 38 39 40 39 40 42 43 43 40 39 37 37 38 38 39 41 63 67 71 66 67 64 68 66 66 64 57 56 69 68 64 63 65 62 61 60 64 66 68 68 64
30 34 38 38 36 37 38 38 38 41 40 38 37 38 37 39 40 40 41 65 75 76 77 76 76 74 73 72 68 67 69 66 72 71 70 68 71 69 69 70 68 67 66 67
30 32 35 37 37 37 36 38 39 40 37 35 36 38 40 41 42 43 44 71 76 81 80 78 84 79 76 70 73 73 75 71 69 72 77 68 68 71 69 70 69 72 74 75

GFSCGP_250_spd_111.txt.gz
Wind_Speed
103 108 100 87 94 93 99 99 98 93 95 93 86 82 87 87 86 82 78 73 73 71 70 71 67 62 63 63 62 62 61 60 60 59 54 56 51 53 55 44 44 43 42 36
109 109 86 98 99 97 100 100 91 91 101 98 93 85 89 88 85 85 82 79 79 76 74 74 71 69 65 66 66 62 60 60 59 52 48 50 51 51 53 47 44 43 43 37
101 86 99 104 100 98 97 92 89 95 103 98 93 89 90 90 86 84 84 85 86 81 79 76 74 74 70 70 65 63 61 58 56 57 55 52 50 49 51 48 44 44 42 37
88 86 95 94 93 94 90 86 93 96 102 96 96 90 91 93 89 83 80 84 84 85 83 85 82 78 76 72 66 60 63 65 59 61 60 56 52 49 50 49 43 42 39 35
72 83 88 85 81 84 81 84 86 89 93 98 98 88 89 92 88 82 80 82 86 84 82 79 79 79 73 71 65 61 65 65 61 61 62 59 54 50 49 49 44 42 38 34
67 74 77 78 83 81 83 77 77 80 81 92 85 90 86 88 85 81 80 81 81 81 78 76 77 76 74 72 71 65 61 61 61 62 60 60 56 50 48 49 46 43 38 34
62 70 71 74 76 76 75 74 74 71 72 71 82 89 82 90 84 81 75 75 76 77 81 80 76 77 73 69 66 59 58 60 61 61 57 59 54 50 47 47 47 42 37 34
58 58 63 66 69 72 76 73 75 70 65 66 79 81 83 88 84 80 76 75 72 76 77 79 73 66 60 63 55 55 57 60 60 56 54 54 53 52 49 47 46 41 36 33
51 56 63 64 70 74 75 70 72 68 62 63 65 74 79 81 84 81 84 86 78 78 77 74 65 63 60 51 51 51 56 60 56 56 56 53 53 52 48 47 46 40 37 35
50 57 57 61 66 71 72 73 69 64 56 56 62 67 72 79 80 82 81 82 80 82 77 65 60 57 58 53 54 55 57 56 58 58 57 53 53 50 45 46 47 40 39 37
49 52 55 58 61 70 70 73 68 63 56 52 53 59 67 68 68 73 72 73 80 80 64 64 60 62 55 56 57 61 65 59 58 59 54 54 57 54 51 48 47 42 40 40
47 51 53 57 60 67 72 75 71 62 59 57 56 60 59 56 60 66 62 57 65 72 71 70 70 70 67 63 63 64 63 60 56 54 52 56 55 53 53 52 50 43 42 40
47 53 55 58 60 64 70 76 73 68 64 60 60 62 53 61 66 72 68 71 69 70 72 73 71 72 67 65 63 63 66 61 57 56 59 59 57 52 42 50 50 45 43 38
45 54 57 58 60 64 66 77 77 75 67 62 62 64 67 67 67 65 70 69 73 73 74 76 74 66 65 66 68 67 64 60 58 60 63 63 59 51 43 47 46 46 45 39
41 49 54 57 58 62 68 73 80 77 72 68 65 65 63 62 68 69 71 70 67 65 67 69 67 62 58 58 59 58 57 58 61 58 57 56 52 47 40 41 47 48 46 39
38 45 49 51 52 56 58 62 77 79 78 70 68 69 59 63 65 65 67 69 69 67 65 68 68 59 51 46 45 49 49 55 52 51 50 48 43 44 41 45 49 51 46 38
38 43 47 50 53 53 56 60 68 79 79 75 70 68 68 63 64 64 65 64 63 60 54 51 50 49 43 46 48 37 41 41 38 39 39 39 43 44 45 48 50 50 44 36
37 43 45 49 49 51 51 57 64 74 78 78 75 74 71 69 69 67 65 66 65 63 63 60 55 44 41 37 34 26 27 24 29 26 29 34 39 44 45 46 48 45 39 36
37 39 44 46 46 50 50 52 56 64 73 81 82 80 77 75 73 71 72 72 70 68 65 64 50 33 34 35 25 16 19 24 21 30 33 35 41 44 45 45 44 43 42 39
35 38 40 43 47 50 50 50 51 54 59 67 75 82 82 80 76 76 77 74 64 50 43 38 33 42 33 33 36 26 19 25 32 36 41 43 40 33 35 37 37 40 42 43
30 35 38 41 44 47 48 50 52 50 55 59 64 72 77 78 76 73 65 54 46 41 33 34 48 40 37 30 26 18 25 28 33 36 38 37 31 33 40 42 44 44 45 46
29 31 37 40 42 44 45 48 51 48 54 49 52 56 57 57 54 48 43 40 38 35 31 57 50 47 44 44 28 26 34 27 26 33 36 38 42 43 45 45 45 48 50 49
27 29 33 37 39 41 42 45 47 49 50 51 52 52 48 46 42 40 40 39 37 35 41 65 61 52 47 45 46 44 46 50 52 47 40 41 49 44 43 46 46 50 50 52
25 29 32 38 40 41 42 44 44 44 46 49 49 46 43 40 37 37 39 38 38 38 64 74 68 62 63 52 64 62 50 52 57 59 60 62 52 57 59 51 53 54 56 55
25 30 33 35 36 37 38 39 41 42 43 43 44 43 40 38 37 36 37 38 40 44 69 80 77 70 71 59 64 61 61 63 56 65 62 60 60 60 62 60 58 58 61 59
25 27 30 33 34 34 35 35 38 38 38 38 38 36 36 35 37 38 38 39 42 49 72 89 88 85 76 73 73 70 63 62 66 64 63 63 61 61 67 71 72 68 68 65

GFSCGP_250_spd_114.txt.gz
Wind_Speed
108 118 118 105 98 92 97 102 99 95 91 95 96 85 90 92 87 80 77 72 71 74 69 66 64 61 55 53 56 59 58 58 60 62 60 58 57 57 57 50 51 51 48 46
102 111 102 95 93 105 102 107 106 101 96 105 99 95 89 92 82 81 81 77 75 74 72 71 73 69 62 58 58 60 61 61 63 63 65 60 57 57 54 54 53 53 48 46
91 89 90 94 101 100 101 106 102 97 97 105 97 96 93 91 88 81 81 79 80 76 71 76 77 71 67 69 69 66 64 65 64 64 67 60 58 58 58 57 57 53 51 48
73 77 80 89 93 93 93 96 97 99 101 99 96 95 94 90 91 90 84 84 82 81 78 79 78 69 68 72 73 68 70 70 69 68 65 61 61 61 59 61 56 56 50 49
60 62 71 78 77 80 79 92 96 100 97 89 91 89 83 91 92 91 84 89 87 84 85 84 79 71 68 70 73 70 71 70 68 66 64 62 64 63 61 58 57 55 52 50
54 50 60 64 68 74 76 86 88 86 86 87 79 85 78 87 86 87 92 86 92 89 85 84 80 70 69 71 70 69 71 68 66 66 63 61 62 60 59 59 60 60 52 50
41 47 52 56 61 64 68 70 73 75 77 75 80 83 73 82 85 85 86 82 75 84 83 80 79 67 70 70 67 64 64 65 68 67 62 58 59 61 58 57 56 57 50 50
34 41 46 54 57 57 53 60 61 66 66 67 73 66 64 75 81 82 89 93 87 85 83 83 80 71 66 62 65 63 67 69 70 62 61 57 56 57 54 53 54 53 50 52
31 35 41 46 51 54 53 53 60 62 61 61 60 56 57 66 77 83 85 87 76 82 80 77 72 70 63 65 62 60 64 64 63 61 55 57 55 57 55 54 50 50 49 51
31 35 36 37 42 48 48 57 61 58 57 56 56 54 54 55 66 69 73 83 84 84 77 74 70 63 55 60 63 64 62 61 61 56 57 60 55 54 55 54 48 50 49 50
28 30 35 35 40 48 49 52 57 58 59 55 56 57 48 49 53 57 71 73 78 73 65 63 66 69 70 70 65 67 58 58 56 51 59 60 58 60 57 52 46 48 49 49
26 30 32 41 45 46 50 55 61 61 57 55 56 50 47 47 50 56 62 64 69 70 76 77 72 73 74 76 72 68 54 64 69 53 56 58 63 62 54 48 45 43 49 53
25 31 31 38 44 46 47 55 60 60 61 56 52 49 46 47 54 59 59 65 64 69 76 69 71 72 76 77 77 73 67 68 69 68 69 69 66 63 56 49 47 43 44 52
26 35 40 45 46 51 52 53 59 61 58 61 58 53 53 54 51 52 61 65 64 68 65 59 66 68 64 73 78 76 70 68 70 71 73 71 69 63 60 54 53 48 44 49
30 35 40 50 57 51 50 51 56 60 61 63 63 58 51 51 52 63 56 52 50 56 53 54 52 57 60 62 66 69 72 73 73 75 70 68 68 66 60 54 54 47 48 47
31 34 36 43 46 47 47 51 54 60 64 68 70 64 57 57 62 66 55 50 50 56 59 59 65 67 68 67 67 71 76 78 75 68 68 69 65 61 60 58 56 48 46 43
30 33 34 39 42 45 46 51 49 53 65 67 72 66 64 62 67 65 56 53 54 56 60 69 69 70 69 68 71 69 65 63 60 54 53 56 60 60 60 56 50 43 47 45
27 33 36 39 41 46 48 49 50 54 56 65 72 70 70 72 71 67 62 58 56 56 55 56 57 60 59 55 47 41 44 44 48 50 56 59 53 51 50 47 46 48 51 46
26 31 36 40 41 44 50 50 50 50 57 64 75 76 76 76 74 71 66 65 62 60 57 56 57 57 52 48 49 51 49 51 51 55 48 44 45 43 43 41 45 48 46 45
26 30 35 40 42 43 45 50 50 51 55 61 65 73 79 78 78 77 74 70 66 64 63 60 56 55 55 54 50 50 52 45 35 33 30 27 30 28 34 39 43 46 43 40
22 29 33 37 41 42 44 49 51 54 53 57 56 59 68 78 80 81 80 76 72 69 67 62 56 55 54 44 42 44 37 33 31 30 27 24 25 31 35 39 39 39 41 40
25 26 31 37 42 43 44 45 49 52 53 55 54 53 56 61 68 74 78 78 76 74 69 63 61 51 47 38 37 44 40 31 27 33 34 32 31 32 33 34 39 41 36 35
20 24 30 34 37 36 36 39 43 48 50 51 47 47 49 55 58 61 62 64 65 64 66 64 57 43 37 43 47 46 43 42 36 38 40 35 34 29 34 34 32 37 38 41
20 22 27 31 34 33 35 39 43 47 49 45 50 50 45 47 46 46 47 47 46 45 43 41 40 39 52 50 54 48 46 38 38 38 41 42 46 44 37 35 34 37 39 45
20 23 26 30 34 34 36 39 41 43 44 41 45 47 46 45 45 44 42 41 41 40 40 41 40 59 59 56 56 52 57 52 54 49 51 38 44 39 45 45 36 48 48 46
20 23 26 28 30 33 34 35 37 39 40 39 39 43 43 42 41 41 39 39 41 40 39 41 54 66 64 63 62 56 57 61 59 52 59 60 60 51 54 52 50 52 54 58

GFSCGP_250_spd_117.txt.gz
Wind_Speed
108 113 110 113 116 117 117 118 116 110 105 111 111 104 93 92 93 90 87 85 82 75 75 75 73 71 63 61 57 49 43 48 50 57 56 48 49 52 53 52 57 59 56 53
98 98 106 107 108 111 108 107 106 102 105 112 110 108 97 98 93 90 87 86 82 79 79 78 76 73 72 66 61 56 55 51 50 53 55 53 53 54 60 57 57 57 56 57
94 99 99 101 100 102 99 99 95 92 97 108 107 102 95 91 92 86 85 82 80 79 80 80 78 74 77 71 62 59 61 60 54 56 59 57 54 55 60 59 56 54 53 58
83 84 83 83 81 81 79 82 88 94 95 102 102 98 93 91 92 85 82 79 78 80 77 78 79 77 72 72 63 59 58 57 56 57 55 55 56 60 62 59 57 54 56 57
68 66 65 64 66 67 64 72 79 86 96 94 95 97 90 88 87 83 78 78 78 79 80 81 81 75 74 72 65 62 62 57 58 57 56 54 58 65 64 58 57 55 54 55
54 53 49 48 48 51 59 68 76 78 84 84 89 87 83 82 79 81 82 82 85 86 87 86 87 80 75 72 67 63 63 58 59 59 57 60 60 60 60 59 59 55 54 56
48 45 43 39 37 44 52 60 63 71 69 72 75 74 71 79 81 81 81 82 85 88 89 89 90 83 72 69 66 67 65 66 64 60 60 59 55 57 58 61 57 55 56 55
37 36 38 32 34 39 44 41 48 47 52 59 68 62 67 78 80 79 80 84 82 83 87 91 87 76 71 74 72 69 70 70 63 66 62 60 57 60 61 60 53 54 53 54
32 27 25 27 27 23 31 33 35 37 44 53 57 59 66 70 75 74 71 72 77 79 79 81 80 76 79 77 68 72 68 65 69 70 60 57 57 56 59 54 52 52 53 55
25 23 21 24 23 23 33 44 44 46 46 48 50 53 57 65 62 68 69 73 78 77 75 75 75 74 72 68 70 66 63 62 67 67 59 56 53 54 54 53 51 52 52 52
20 18 19 21 26 27 30 28 34 41 44 40 42 44 53 52 50 51 53 60 66 68 66 67 70 77 78 68 66 67 64 63 60 57 51 52 55 56 49 49 48 51 54 55
17 18 20 18 24 29 31 34 39 36 35 39 36 44 45 44 44 45 44 47 54 55 59 64 72 75 77 69 68 67 66 67 67 63 58 54 53 57 50 51 50 50 53 56
18 19 21 23 26 29 32 33 36 37 39 42 48 47 43 41 39 39 38 41 49 52 56 60 65 69 74 77 79 64 61 57 58 58 62 64 64 60 55 62 60 53 54 61
19 19 22 26 30 32 35 36 35 39 42 46 47 45 43 42 42 39 44 49 47 46 44 49 55 59 70 70 69 64 61 62 64 66 71 70 70 63 64 67 66 64 62 67
20 19 21 27 29 33 36 37 37 39 44 49 50 49 45 44 45 44 51 51 54 54 49 47 49 54 59 63 66 69 70 72 73 72 74 74 67 71 65 69 67 66 66 69
21 22 25 30 32 33 37 39 40 45 51 54 54 56 51 43 40 49 55 61 52 52 53 52 53 57 53 59 69 72 74 76 74 74 73 74 73 74 72 73 71 74 73 72
22 23 27 28 31 33 39 42 43 47 53 55 57 61 58 57 60 63 60 57 48 43 49 55 56 55 54 58 60 63 57 56 59 61 59 61 65 70 74 75 77 79 77 67
21 26 28 29 32 34 39 43 46 50 56 57 62 62 64 67 66 67 64 61 54 45 46 50 50 49 48 55 55 56 59 61 63 63 63 64 68 72 78 82 82 75 64 58
23 27 33 33 34 38 43 42 45 49 60 50 53 56 62 68 70 67 68 66 61 53 50 52 51 50 53 53 57 61 64 67 66 66 64 62 62 65 61 63 64 61 61 58
23 27 32 38 40 41 44 42 43 46 51 54 56 62 64 66 70 71 70 68 65 64 57 54 53 52 53 52 53 58 59 55 54 50 52 54 59 64 63 58 59 55 54 51
22 28 33 34 39 41 45 47 47 49 51 50 54 57 59 61 65 72 76 73 70 68 64 62 62 60 58 54 52 47 42 43 44 52 58 60 62 62 59 48 40 41 43 43
20 24 28 33 37 39 39 43 48 49 50 53 55 54 53 57 64 71 74 75 77 75 73 71 69 67 65 61 52 46 40 46 49 55 53 47 52 47 41 31 31 31 33 35
19 23 26 29 32 36 37 40 42 44 48 52 55 55 50 52 54 60 66 72 76 78 77 75 75 72 69 63 56 48 47 44 41 38 36 37 36 30 24 21 22 25 29 34
19 22 24 26 30 32 33 36 38 40 43 47 50 50 50 50 52 52 53 55 57 60 61 65 67 66 63 56 51 48 43 36 37 38 40 38 33 30 28 24 25 29 31 34
21 22 23 24 28 31 34 36 39 43 44 46 46 46 47 48 49 48 49 49 49 49 50 51 52 49 44 41 40 40 36 45 45 40 42 39 37 36 30 30 33 39 44 42
24 22 24 24 26 29 30 34 39 41 42 42 42 42 45 48 48 47 47 48 46 43 41 41 41 40 38 37 38 39 46 55 51 44 45 46 48 47 39 42 40 43 43 45

GFSCGP_250_spd_120.txt.gz
Wind_Speed
91 94 103 104 113 123 119 116 114 108 106 112 110 111 103 111 111 107 103 100 96 91 88 88 86 81 76 71 67 67 62 57 51 47 51 45 41 45 51 51 48 46 47 47
94 97 107 108 109 116 115 112 107 102 104 108 105 109 99 109 106 101 100 93 90 92 93 90 86 82 77 76 67 66 67 62 56 50 55 46 43 45 49 51 49 47 47 48
93 99 102 102 101 107 105 104 97 95 98 102 106 104 91 94 96 96 97 93 84 81 83 85 85 81 78 78 73 68 69 68 64 56 55 53 49 50 50 51 51 49 47 50
90 90 89 89 89 95 91 100 87 85 87 93 98 94 87 85 86 90 93 93 84 78 83 87 86 80 79 77 74 70 69 69 69 64 58 56 56 56 55 53 49 51 50 53
83 82 78 74 73 76 73 73 72 74 73 84 88 88 83 82 84 82 86 86 76 82 90 87 84 82 76 74 72 71 71 69 72 65 63 58 57 55 56 56 50 48 53 54
78 71 64 62 59 58 58 59 62 63 64 66 67 71 76 78 79 78 78 78 79 88 91 92 86 83 79 74 71 70 71 70 69 67 66 63 60 57 55 54 50 52 53 49
67 60 57 51 47 47 41 42 45 49 50 51 57 60 66 74 75 79 78 80 84 90 93 88 86 83 81 78 73 70 72 70 71 70 72 62 60 54 53 56 52 56 52 52
60 56 47 43 41 37 34 33 38 40 42 42 47 52 58 66 74 75 77 80 86 91 85 88 87 84 80 79 75 74 73 73 70 69 70 69 67 60 54 56 58 58 52 52
53 46 40 36 36 33 31 31 32 31 29 29 36 48 57 62 64 69 71 74 79 82 85 82 82 83 82 80 78 76 76 74 73 72 71 68 65 65 60 62 60 59 52 55
43 39 34 32 29 27 22 21 28 30 29 28 37 46 50 53 55 58 63 70 74 74 79 78 80 83 83 81 80 79 82 80 78 76 74 72 66 60 60 60 61 55 51 53
36 33 30 29 26 21 22 23 25 29 33 32 37 39 40 43 48 53 58 62 67 71 73 75 76 76 80 84 83 80 78 74 79 81 76 70 69 64 60 61 61 52 49 51
32 32 30 26 21 19 20 25 27 34 36 35 34 31 35 37 37 41 44 48 56 61 64 68 70 72 73 75 77 75 74 72 72 73 74 71 66 62 60 62 58 49 48 48
29 29 26 25 18 16 22 28 33 34 35 34 30 24 24 33 30 30 21 37 43 48 54 60 64 67 71 71 72 71 72 71 71 71 67 63 63 64 64 63 54 55 53 48
25 29 25 19 15 19 22 29 31 31 33 35 34 32 23 23 17 20 46 49 39 40 46 45 46 51 56 61 66 69 71 69 75 72 73 69 64 59 61 61 57 54 57 56
21 22 23 20 19 21 27 29 27 26 34 38 41 38 35 39 45 46 39 35 38 42 45 41 43 44 47 51 53 55 58 61 65 69 68 67 64 62 56 55 54 59 62 60
20 19 23 20 20 24 29 32 32 33 33 41 50 45 45 43 46 49 43 44 43 48 46 42 42 40 40 43 47 52 58 61 63 71 68 71 70 59 61 63 63 66 68 66
18 18 20 20 23 25 31 35 36 37 41 48 54 56 55 49 49 49 50 54 52 53 44 49 43 42 43 43 45 47 48 50 56 66 65 64 63 65 67 67 68 68 74 73
16 17 20 24 26 31 36 38 40 42 47 52 57 57 54 54 52 52 53 55 57 55 49 46 43 45 48 49 48 47 48 50 53 66 71 65 67 71 70 75 78 75 66 66
16 18 21 27 29 32 36 43 43 46 47 50 53 58 59 58 58 53 52 49 54 59 49 42 44 45 48 53 53 49 52 56 57 60 61 63 68 66 64 65 63 64 66 67
17 17 21 27 30 33 35 36 34 40 46 46 51 54 55 56 59 57 57 59 60 56 54 54 50 49 51 53 56 57 55 55 55 52 53 58 62 64 65 62 64 66 67 69
15 17 24 28 30 33 34 35 36 33 40 41 46 52 56 55 60 64 65 64 64 64 64 61 58 57 55 54 54 54 52 53 51 55 57 58 62 64 65 68 70 69 66 60
16 19 25 28 30 33 34 34 36 40 43 44 45 47 50 52 55 61 68 73 73 73 72 70 69 65 58 53 54 55 52 49 47 47 47 47 49 54 58 57 57 59 57 49
21 20 25 30 33 35 37 37 38 39 41 47 53 54 54 49 49 55 60 61 66 73 76 75 73 70 66 61 56 55 54 52 52 52 50 47 52 54 59 62 58 61 53 44
22 24 24 28 33 36 38 39 40 41 43 44 43 46 50 53 53 54 55 56 60 62 65 66 67 69 70 68 67 65 60 55 55 56 54 54 57 62 61 58 48 42 36 35
22 25 26 28 30 33 36 39 41 43 43 44 45 45 46 48 51 53 54 54 54 53 53 55 56 58 59 59 57 57 56 54 53 54 53 58 54 46 41 40 34 28 26 22
24 24 26 28 30 31 35 37 40 43 44 44 44 45 49 50 49 49 49 51 54 51 51 51 51 51 50 49 47 46 44 45 47 45 45 43 40 40 40 40 33 32 33 34

GFSCGP_250_spd_123.txt.gz
Wind_Speed
82 88 93 93 92 93 92 96 104 102 113 110 110 99 96 102 100 102 108 106 103 101 98 96 92 89 83 78 79 78 73 72 69 67 61 61 60 59 58 54 52 47 46 45
93 94 94 90 94 96 95 98 110 122 119 117 113 97 92 91 91 89 99 107 105 102 99 97 95 92 88 80 79 80 77 75 72 70 65 64 62 59 58 53 48 49 44 45
100 103 98 95 98 106 99 108 108 112 106 103 104 100 94 92 97 96 89 98 101 103 101 99 99 97 91 83 73 78 80 79 77 72 67 63 61 58 54 49 51 48 49 48
107 108 100 100 98 102 89 106 99 98 98 91 102 66 73 72 84 87 82 89 90 100 101 100 98 96 90 82 74 70 77 77 77 73 66 62 59 58 58 55 56 56 52 50
112 104 101 105 94 91 79 88 87 85 84 77 79 57 61 64 71 79 80 85 91 93 94 94 94 92 87 80 72 65 71 78 78 74 69 63 60 54 50 59 66 61 58 57
106 105 97 86 81 76 70 74 72 67 69 66 68 46 50 51 61 70 74 86 91 94 95 89 89 88 83 77 70 64 71 78 80 77 73 66 52 51 60 67 64 65 63 56
108 100 79 72 68 62 63 63 57 54 53 52 51 38 50 47 55 67 75 83 83 86 88 85 84 81 78 73 69 68 69 77 77 77 73 69 68 67 70 72 70 66 65 61
87 82 67 64 56 50 54 51 45 42 38 37 34 36 41 45 51 58 67 74 76 74 74 74 74 74 75 72 68 71 74 76 78 80 80 77 75 78 76 75 73 71 66 62
71 67 62 56 50 47 47 40 35 32 28 27 27 30 35 38 48 52 56 62 65 66 67 70 71 70 72 72 74 76 77 77 76 78 77 77 76 78 79 78 76 71 67 64
61 59 56 50 45 39 38 35 30 24 20 24 23 25 28 30 36 37 51 49 56 61 70 71 68 66 70 74 76 78 80 80 79 78 78 76 75 74 75 75 72 71 69 67
54 53 48 43 36 30 32 29 22 18 18 22 20 19 22 26 32 39 44 46 52 59 67 65 65 70 72 73 77 78 81 84 85 85 84 82 80 77 79 78 73 72 70 68
48 45 41 34 27 24 25 24 21 18 20 23 20 15 16 21 27 32 36 43 50 56 60 64 61 65 68 76 82 80 84 83 84 87 86 86 84 82 81 79 74 71 70 68
39 35 33 27 22 21 22 20 20 20 23 23 25 20 12 10 19 24 26 31 37 43 51 56 61 66 69 74 81 84 86 83 82 84 84 82 82 82 80 81 79 74 71 70
35 30 27 22 20 20 16 21 20 25 26 30 35 26 15 16 17 17 14 22 29 33 39 50 58 62 66 71 75 76 76 77 76 80 83 82 78 72 70 71 69 68 66 64
31 28 24 21 20 20 21 20 22 27 33 37 43 39 34 33 34 37 36 33 26 24 33 36 43 55 61 62 64 65 67 69 69 71 70 69 74 73 71 70 66 65 62 65
27 24 24 18 22 24 25 23 26 27 33 41 49 51 51 49 47 48 47 46 46 55 47 36 40 45 49 53 56 60 63 64 64 64 65 64 67 66 67 73 73 61 58 60
26 23 19 20 22 26 28 26 34 35 38 46 47 48 52 49 42 45 51 51 52 55 60 51 50 43 42 43 45 46 47 48 49 51 54 59 61 66 68 67 66 69 67 64
24 24 20 22 22 27 30 30 38 42 43 50 53 52 50 53 52 50 53 61 65 63 59 51 46 47 48 48 47 46 42 40 40 41 44 50 52 54 56 62 67 65 62 59
21 23 21 24 24 25 27 29 36 44 49 53 57 58 59 54 54 61 62 59 60 58 61 56 50 47 47 47 47 48 52 51 48 48 49 47 42 44 53 57 65 64 67 65
23 21 22 24 21 24 23 28 34 43 53 51 54 55 56 52 52 59 65 67 65 63 59 54 50 48 49 50 51 55 56 54 54 52 48 49 47 49 51 50 63 69 66 67
21 23 24 24 23 24 25 24 32 34 44 54 52 56 55 55 54 56 60 61 61 61 61 59 58 59 59 60 59 59 57 52 50 51 49 49 52 53 54 53 61 70 69 68
23 23 25 26 26 25 28 28 28 33 39 46 50 54 56 60 59 55 60 61 62 63 62 63 64 64 58 56 56 55 54 50 49 52 54 54 53 53 56 57 55 57 60 61
26 25 27 28 29 29 29 31 33 33 36 42 47 51 55 57 56 56 61 62 65 66 65 64 64 62 59 56 55 57 56 56 56 56 57 56 55 54 55 53 57 55 59 65
25 26 28 29 31 32 31 32 34 36 38 40 43 49 54 57 57 58 60 62 67 68 71 71 70 69 66 62 58 54 54 56 56 58 59 59 58 55 54 52 53 53 54 56
24 28 29 31 32 33 34 35 35 36 38 41 44 47 49 50 53 57 57 58 61 64 67 71 73 73 72 70 66 61 59 56 55 58 60 63 64 65 66 63 62 59 60 60
28 26 29 31 33 34 35 36 38 39 41 43 44 45 47 48 51 53 55 55 58 60 63 63 64 62 60 59 57 55 53 51 51 53 58 61 65 66 70 67 66 61 57 58

GFSCGP_250_spd_126.txt.gz
Wind_Speed
89 91 91 88 86 83 86 84 89 91 95 96 103 105 105 96 107 104 104 105 103 103 98 103 101 94 92 91 86 78 80 81 76 69 68 67 63 63 61 58 53 53 56 56
90 93 93 90 89 92 89 97 92 97 99 103 101 109 109 109 107 108 105 106 109 107 108 107 105 100 95 94 90 85 80 84 79 73 71 69 71 66 62 60 56 54 55 57
92 93 94 94 98 94 93 100 99 98 94 100 115 109 106 110 110 107 105 102 101 109 112 110 105 104 102 95 92 86 82 84 82 78 74 73 71 70 64 60 57 56 55 48
94 96 96 99 100 99 90 97 100 94 104 107 103 99 83 88 85 85 92 88 90 101 109 107 104 96 94 93 93 90 84 81 78 76 71 71 70 71 66 60 56 53 52 51
98 100 101 102 102 97 96 99 97 91 91 92 90 85 70 78 70 67 75 78 77 87 103 113 106 95 95 93 89 89 85 78 77 77 75 71 69 73 66 58 52 39 45 59
101 103 104 98 101 99 94 85 85 81 79 80 75 69 62 58 55 53 57 63 70 77 89 99 91 95 94 86 88 87 84 80 77 78 75 70 68 71 64 62 57 44 56 72
102 106 100 84 96 93 80 76 73 70 66 64 56 56 47 41 40 40 48 52 60 69 78 85 87 88 87 83 76 79 83 82 79 77 75 67 67 66 68 65 67 53 49 53
98 107 99 86 86 76 68 63 61 58 51 46 39 39 34 29 31 33 42 46 50 60 66 70 74 75 77 74 74 76 83 83 78 76 70 64 67 66 69 66 70 68 49 59
98 93 82 84 75 63 58 53 50 45 39 33 28 26 23 22 26 31 38 41 42 48 54 60 64 63 65 68 71 71 70 63 64 62 62 65 66 70 72 69 69 73 76 70
91 85 77 65 59 53 52 47 43 35 29 26 24 21 20 20 22 24 28 32 39 45 50 53 55 60 65 69 70 72 72 69 66 65 64 65 68 71 75 77 73 72 76 77
86 77 72 60 50 44 44 38 33 25 23 21 18 17 17 18 19 19 27 32 36 41 45 48 51 55 60 66 69 68 70 68 67 68 68 70 72 73 75 77 79 79 77 82
73 73 63 51 45 39 34 25 24 21 19 17 15 17 14 15 17 22 26 31 37 43 44 46 48 51 59 62 63 63 65 67 68 70 70 71 72 76 77 80 82 83 83 83
69 57 51 45 36 30 24 18 19 18 20 18 20 20 24 18 14 16 20 25 29 35 44 48 52 56 59 61 60 62 66 69 72 73 73 72 76 78 80 81 82 82 82 81
53 44 43 39 26 24 17 17 18 22 23 23 25 27 28 23 22 19 22 23 26 34 41 46 51 59 56 59 63 68 67 73 76 76 76 75 77 79 80 82 85 83 82 82
44 41 40 32 20 22 17 19 21 24 27 28 34 33 29 27 26 24 28 26 23 27 37 46 54 51 49 50 59 71 73 76 71 74 78 77 82 82 83 85 83 83 83 82
37 37 35 29 19 24 20 26 28 28 32 36 34 43 41 39 36 33 22 21 13 15 29 38 43 39 37 50 54 62 68 68 67 71 75 78 83 84 80 79 78 77 77 77
34 31 28 27 18 24 22 28 35 35 38 39 37 47 49 52 50 46 34 35 32 30 36 34 37 47 42 44 51 54 60 63 65 68 73 78 75 71 70 69 70 70 69 67
33 29 26 22 18 21 21 29 41 38 44 43 43 43 50 55 56 50 47 48 48 47 50 34 30 53 57 63 57 49 53 57 59 61 62 63 63 62 61 61 61 61 61 61
31 26 24 20 17 16 24 29 43 46 43 44 47 46 50 51 54 55 60 59 61 58 57 53 56 54 58 56 49 45 50 53 54 55 55 57 55 52 49 51 53 57 62 62
31 25 23 21 19 17 22 29 40 51 50 49 47 50 48 54 56 56 61 65 59 62 67 64 64 68 67 63 54 52 51 51 52 55 54 51 46 46 43 44 45 49 51 57
29 25 22 22 20 21 20 28 35 48 55 53 53 51 56 55 55 58 66 66 66 66 68 68 70 72 71 68 62 60 60 59 60 61 59 56 53 49 46 47 41 39 42 49
27 26 23 23 23 22 23 25 34 38 53 56 57 57 56 61 58 60 64 65 69 73 70 73 76 76 73 69 68 62 60 64 64 63 60 60 55 54 53 46 44 44 44 45
24 25 25 25 26 26 25 26 30 38 44 56 60 62 60 59 63 59 59 63 66 67 72 76 79 80 76 72 68 66 64 64 61 60 60 58 55 55 55 54 50 53 53 53
24 24 27 28 27 28 29 29 28 30 39 43 50 56 62 63 59 60 65 64 63 65 69 75 76 74 73 72 71 69 66 64 61 58 59 58 57 56 55 56 58 58 59 57
27 27 26 30 31 30 31 32 31 31 33 37 45 50 55 63 70 68 64 64 65 66 65 66 69 72 73 69 67 65 64 62 60 58 58 61 63 62 63 66 64 65 66 64
30 29 28 28 33 33 33 33 34 35 36 35 37 41 48 55 59 62 69 74 75 75 73 72 70 69 69 69 71 70 68 64 60 57 52 53 57 62 69 74 69 68 66 64

GFSCGP_250_spd_129.txt.gz
Wind_Speed
82 84 84 86 88 91 92 91 91 88 94 95 95 89 80 79 91 98 99 101 100 95 92 98 102 100 94 92 87 81 79 75 73 73 69 63 62 60 56 54 52 47 46 48
89 90 90 90 93 93 93 90 92 85 90 95 93 95 88 82 94 107 109 108 113 109 105 99 100 105 102 95 92 89 85 83 76 77 76 74 69 64 63 58 58 53 49 49
90 93 95 94 90 88 93 90 88 90 87 93 89 90 88 100 108 109 118 119 114 103 106 108 106 108 110 104 94 90 89 87 84 82 82 79 75 69 64 65 62 56 51 49
97 95 94 91 90 87 89 90 89 92 91 85 88 95 85 92 96 99 99 101 98 96 99 104 113 117 117 107 104 97 94 88 88 84 82 81 76 73 69 67 62 61 55 53
95 93 91 92 92 89 91 90 91 91 87 86 87 86 83 75 77 80 79 77 76 75 79 91 97 117 118 109 97 103 98 96 89 85 84 82 78 75 72 69 63 60 55 51
94 92 93 92 94 93 89 90 90 85 83 84 81 76 71 69 69 65 57 53 54 56 62 70 76 92 110 106 93 95 101 97 92 88 82 83 77 75 73 70 63 59 51 48
85 86 88 90 92 92 87 84 76 72 73 74 69 66 62 58 55 51 46 42 43 45 49 58 69 82 93 101 84 87 91 92 90 88 85 83 79 78 75 70 65 61 53 50
81 83 87 90 88 86 83 74 69 63 62 59 58 56 49 44 44 40 39 35 34 38 42 49 62 72 77 83 66 76 91 94 90 85 85 86 84 83 77 73 68 62 56 56
78 83 84 85 83 76 70 61 61 58 55 50 46 45 40 34 35 30 28 24 23 26 33 39 47 55 57 63 77 89 96 95 93 89 86 86 86 84 80 75 68 59 61 63
69 75 79 80 74 65 57 54 51 48 48 42 39 36 34 29 27 24 18 15 17 19 24 30 37 43 52 61 70 87 88 90 89 87 82 80 83 84 78 70 66 61 63 66
69 73 79 71 67 60 54 49 44 42 37 30 30 27 25 22 21 16 10 12 7 12 20 26 33 38 47 54 63 76 86 97 86 85 76 77 72 81 82 80 80 71 69 70
71 74 71 66 58 52 46 42 40 36 30 27 28 26 21 16 14 14 18 15 16 3 13 20 25 30 37 45 54 62 74 83 80 78 77 81 76 77 83 84 74 74 74 74
70 67 68 58 53 44 38 36 35 32 27 26 27 23 16 15 14 17 22 24 28 18 15 6 18 24 30 36 43 50 57 64 67 70 72 75 75 76 76 75 72 77 76 77
67 63 60 51 39 37 34 32 31 31 27 29 28 24 22 23 21 20 20 29 31 31 35 29 23 20 12 29 39 33 51 57 59 64 68 73 75 77 78 77 78 78 78 74
62 60 49 45 32 34 33 29 32 30 27 29 31 29 30 29 31 30 24 26 27 30 45 46 48 39 56 48 50 59 58 57 49 52 63 74 75 75 76 78 81 80 77 76
58 47 41 38 30 33 32 28 31 36 30 34 32 33 34 33 33 33 30 26 26 35 40 52 51 65 58 46 48 54 58 58 67 71 77 73 76 75 75 78 77 77 75 77
45 35 34 32 30 32 29 26 33 38 35 37 36 36 35 36 40 41 40 37 30 32 35 44 51 52 63 61 62 51 55 63 63 66 73 74 76 74 75 78 78 78 78 75
39 30 30 28 27 26 23 26 38 45 39 40 39 39 39 35 45 45 43 39 35 37 35 35 43 52 54 56 60 58 56 61 63 71 75 74 74 71 72 73 75 77 73 71
35 27 27 26 24 20 22 25 36 46 41 42 42 39 43 39 45 45 44 40 37 32 36 34 40 45 59 57 52 58 55 61 59 61 67 75 74 73 73 74 72 69 66 66
31 28 24 26 24 18 20 25 35 46 46 44 41 46 46 41 46 46 49 47 48 44 46 44 43 52 57 61 60 61 60 61 61 58 58 61 66 68 68 67 65 61 59 61
30 28 24 23 24 19 17 24 30 42 48 48 50 45 52 51 47 55 56 55 52 53 54 57 57 58 59 60 61 65 66 67 67 65 60 59 59 60 61 58 54 49 50 50
30 29 27 24 22 21 19 19 32 36 48 54 57 55 53 55 57 56 62 61 62 61 63 69 69 67 65 64 64 63 67 71 73 70 65 60 60 61 61 58 54 54 54 50
28 27 26 27 25 22 21 22 24 33 41 49 55 62 60 58 59 60 60 66 68 68 70 72 71 71 71 71 74 73 75 73 73 74 71 65 65 61 66 63 61 62 60 56
30 30 29 28 29 28 26 24 25 27 34 44 49 55 64 65 60 62 66 62 64 67 66 71 73 76 75 76 72 75 77 77 74 72 70 70 64 63 64 65 67 64 61 62
32 33 31 31 31 30 31 30 27 29 31 36 43 50 57 63 64 62 59 65 67 66 65 65 74 76 80 76 77 73 76 76 76 76 75 75 72 67 67 65 64 65 65 66
33 34 33 32 32 32 32 35 33 30 30 32 38 44 49 51 53 63 66 66 69 75 78 76 75 74 78 76 76 76 73 72 74 76 74 74 72 68 68 66 65 64 66 69

GFSCGP_250_spd_132.txt.gz
Wind_Speed
77 79 79 82 83 85 84 86 86 94 95 95 95 92 90 94 104 102 99 98 96 95 94 92 102 101 97 96 93 89 87 84 81 73 72 73 74 70 60 58 54 51 48 45
82 84 85 85 85 86 90 90 89 91 95 97 100 94 95 95 99 103 101 102 105 102 99 100 97 107 107 104 105 99 94 90 86 79 72 77 79 76 66 59 54 54 54 51
87 87 89 93 93 89 91 89 92 87 94 94 92 89 94 98 93 99 107 109 111 112 112 118 116 114 116 111 115 110 100 95 90 87 81 81 80 77 70 66 64 62 58 56
90 93 94 96 96 93 95 97 92 88 86 92 92 89 87 94 95 101 105 108 110 106 106 111 114 115 131 116 116 109 111 104 100 93 86 81 83 79 76 75 71 65 63 61
92 95 95 97 96 95 92 89 92 90 88 84 93 93 89 90 91 90 91 89 91 86 89 89 89 92 103 114 123 105 101 107 105 93 89 82 84 83 80 75 73 71 67 64
94 93 93 90 88 89 88 90 89 88 88 88 88 92 89 83 75 71 75 72 70 69 68 71 71 73 81 92 117 119 117 114 102 89 92 84 81 85 83 78 76 76 70 66
97 92 89 87 87 88 88 89 85 84 84 82 84 81 79 72 70 62 60 63 61 59 60 57 54 56 66 81 94 117 102 111 109 93 89 85 79 80 82 81 79 78 75 72
90 87 84 82 81 83 85 84 81 79 76 72 73 70 66 61 57 52 51 47 51 46 49 48 43 45 58 69 79 88 92 102 112 105 98 89 82 76 81 75 78 74 73 71
85 77 77 76 79 81 79 76 72 66 66 64 61 60 56 48 45 45 41 42 41 37 39 38 34 36 47 56 63 68 79 91 101 102 97 91 62 95 89 79 79 79 73 70
73 72 71 70 72 72 72 66 62 58 53 56 52 49 43 43 37 35 37 33 32 28 23 23 20 25 36 42 48 55 65 86 97 97 88 94 90 93 88 88 83 81 81 77
68 67 64 65 67 67 68 61 56 49 48 47 47 43 34 33 30 29 28 27 21 16 9 8 14 22 29 34 41 52 68 82 90 94 91 90 87 89 88 86 84 84 77 76
57 58 62 63 65 66 61 58 53 49 45 43 41 37 31 29 28 24 18 15 12 11 10 7 10 17 17 28 36 46 56 79 83 89 87 84 83 86 86 88 83 80 80 81
54 58 61 63 64 60 61 57 50 43 40 39 36 33 31 27 25 25 21 17 19 23 19 15 12 13 19 26 31 39 49 77 72 83 84 88 86 87 87 88 86 86 82 88
55 54 59 64 59 60 56 51 44 40 35 35 34 35 34 31 26 25 23 21 25 31 28 22 22 17 15 20 29 34 43 57 87 91 81 81 80 90 93 89 88 86 84 84
51 57 60 59 61 59 51 44 39 37 33 32 35 35 35 32 29 27 29 28 31 32 34 32 26 24 17 13 14 30 33 42 63 86 83 75 74 74 78 81 78 78 83 88
57 60 59 59 59 53 43 39 35 35 33 31 35 39 34 33 29 28 32 30 32 30 40 38 32 29 23 28 29 27 27 28 37 56 79 90 90 83 85 91 89 80 82 82
58 58 57 56 52 44 38 34 32 33 32 32 37 43 38 37 34 29 38 40 34 36 43 42 44 39 41 44 41 38 45 42 34 41 56 52 57 62 70 69 66 78 78 80
58 57 52 49 43 36 35 31 30 31 33 33 38 44 43 39 37 34 40 39 42 45 46 48 49 47 47 45 47 54 52 56 52 62 58 53 59 60 63 68 76 82 77 78
52 50 48 40 35 33 30 30 30 32 34 36 38 45 45 43 44 35 48 42 43 52 54 55 53 57 54 53 59 66 59 55 65 65 68 64 72 72 75 74 80 87 81 76
48 45 40 35 31 30 28 28 30 30 33 38 37 42 43 49 51 44 51 51 48 50 54 60 62 63 64 63 63 58 58 59 62 71 82 78 76 80 85 83 82 84 84 81
47 40 36 29 28 28 27 26 30 30 32 36 39 40 42 51 54 49 47 57 52 49 52 57 65 70 70 72 70 70 70 71 70 71 72 72 76 80 87 87 87 85 83 81
41 35 32 29 27 26 27 27 27 31 33 34 38 40 43 46 50 56 57 51 60 54 57 55 56 59 71 78 76 76 82 80 78 78 75 77 77 76 80 82 77 70 69 73
36 34 30 30 29 29 28 28 28 28 33 35 37 40 44 45 51 52 59 59 56 57 56 58 62 63 63 64 71 73 83 85 86 81 82 78 75 77 76 76 74 71 70 65
36 33 32 30 30 32 31 30 29 29 30 32 37 39 42 45 49 52 53 55 60 60 60 62 59 66 68 68 69 69 72 78 79 86 87 82 79 79 78 79 79 74 69 67
35 33 31 29 32 33 33 34 33 33 32 33 34 39 43 45 47 48 49 53 56 66 67 64 66 66 66 71 71 73 72 72 75 79 81 80 79 78 76 74 74 73 73 75
35 33 31 34 36 35 35 35 35 37 38 37 36 38 41 44 46 47 48 49 54 57 62 67 69 69 73 75 76 75 77 80 82 78 76 77 76 77 78 77 74 74 71 71